[[{"header":{"parameterUnit":"m.s-1","parameterCategory":1,"la1":31.0,"la2":29.5877,"lo1":-88.7671,"lo2":-86.6584,"dy":0.0162,"dx":0.0185,"nx":115,"ny":88,"refTime":"2025-05-21T12:00:00:Z","depth":0,"parameterNumber":2,"parameterNumberName":"U-component_of_WINDS"},"data":[0.0,0.0,0.0,0.0,0.0,0.0,0.0,0.0,0.0,0.0,0.0,0.0,0.0,0.0,0.0,0.0,0.0,0.0,0.0,0.0,0.0,0.0,0.0,0.0,0.0,0.0,0.0,0.0,0.0,0.0,0.0,0.0,0.0,0.0,0.0,0.0,0.0,0.0,0.0,0.0,0.0,0.0,0.0,0.0,0.0,0.0,0.0,0.0,0.0,0.0,0.0,0.0,0.0,0.0,0.0,0.0,0.0,0.0,0.0,0.0,0.0,0.0,0.0,0.0,0.0,0.0,0.0,0.0,0.0,0.0,0.0,0.0,0.0,0.0,0.0,0.0,0.0,0.0,0.0,0.0,0.0,0.0,0.0,0.0,0.0,0.0,0.0,0.0,0.0,0.0,0.0,0.0,0.0,0.0,0.0,0.0,0.0,0.0,0.0,0.0,0.0,0.0,0.0,0.0,0.0,0.0,0.0,0.0,0.0,0.0,0.0,0.0,0.0,0.0,0.0,0.0,0.0,0.0,0.0,0.0,0.0,0.0,0.0,0.0,0.0,0.0,0.0,0.0,0.0,0.0,0.0,0.0,0.0,0.0,0.0,0.0,0.0,0.0,0.0,0.0,0.0,0.0,0.0,0.0,0.0,0.0,0.0,0.0,0.0,0.0,0.0,0.0,0.0,0.0,0.0,0.0,0.0,0.0,0.0,0.0,0.0,0.0,0.0,0.0,0.0,0.0,0.0,0.0,0.0,0.0,0.0,0.0,0.0,0.0,0.0,0.0,0.0,0.0,0.0,0.0,0.0,0.0,0.0,0.0,0.0,0.0,0.0,0.0,0.0,0.0,0.0,0.0,0.0,0.0,0.0,0.0,0.0,0.0,0.0,0.0,0.0,0.0,0.0,0.0,0.0,0.0,0.0,0.0,0.0,0.0,0.0,0.0,0.0,0.0,0.0,0.0,0.0,0.0,0.0,0.0,0.0,0.0,0.0,0.0,0.0,0.0,0.0,0.0,0.0,0.0,0.0,0.0,0.0,0.0,0.0,0.0,0.0,0.0,0.0,0.0,0.0,0.0,0.0,0.0,0.0,0.0,0.0,0.0,0.0,0.0,0.0,0.0,0.0,0.0,0.0,0.0,0.0,0.0,0.0,0.0,0.0,0.0,0.0,0.0,0.0,0.0,0.0,0.0,0.0,0.0,0.0,0.0,0.0,0.0,0.0,0.0,0.0,0.0,0.0,0.0,0.0,0.0,0.0,0.0,0.0,0.0,0.0,0.0,0.0,0.0,0.0,0.0,0.0,0.0,0.0,0.0,0.0,0.0,0.0,0.0,0.0,0.0,0.0,0.0,0.0,0.0,0.0,0.0,0.0,0.0,0.0,0.0,0.0,0.0,0.0,0.0,0.0,0.0,0.0,0.0,0.0,0.0,0.0,0.0,0.0,0.0,0.0,0.0,0.0,0.0,0.0,0.0,0.0,0.0,0.0,0.0,0.0,0.0,0.0,0.0,0.0,0.0,0.0,0.0,0.0,0.0,0.0,0.0,0.0,0.0,0.0,0.0,0.0,0.0,0.0,0.0,0.0,0.0,0.0,0.0,0.0,0.0,0.0,0.0,0.0,0.0,0.0,0.0,0.0,0.0,0.0,0.0,0.0,0.0,0.0,0.0,0.0,0.0,0.0,0.0,0.0,0.0,0.0,0.0,0.0,0.0,0.0,0.0,0.0,0.0,0.0,0.0,0.0,0.0,0.0,0.0,0.0,0.0,0.0,0.0,0.0,0.0,0.0,0.0,0.0,0.0,0.0,0.0,0.0,0.0,0.0,0.0,0.0,0.0,0.0,0.0,0.0,0.0,0.0,0.0,0.0,0.0,0.0,0.0,0.0,0.0,0.0,0.0,0.0,0.0,0.0,0.0,0.0,0.0,0.0,0.0,0.0,0.0,0.0,0.0,0.0,0.0,0.0,0.0,0.0,0.0,0.0,0.0,0.0,0.0,0.0,0.0,0.0,0.0,0.0,0.0,0.0,0.0,0.0,0.0,0.0,0.0,0.0,0.0,0.0,0.0,0.0,0.0,0.0,0.0,0.0,0.0,0.0,0.0,0.0,0.0,0.0,0.0,0.0,0.0,0.0,0.0,0.0,0.0,0.0,0.0,0.0,0.0,0.0,0.0,0.0,0.0,0.0,0.0,0.0,0.0,0.0,0.0,0.0,0.0,0.0,0.0,0.0,0.0,0.0,0.0,0.0,0.0,0.0,0.0,0.0,0.0,0.0,0.0,0.0,0.0,0.0,0.0,0.0,0.0,0.0,0.0,0.0,0.0,0.0,0.0,0.0,0.0,0.0,0.0,0.0,0.0,0.0,0.0,0.0,0.0,0.0,0.0,0.0,0.0,0.0,0.0,0.0,0.0,0.0,0.0,0.0,0.0,0.0,0.0,0.0,0.0,0.0,0.0,0.0,0.0,0.0,0.0,0.0,0.0,0.0,0.0,0.0,0.0,0.0,0.0,0.0,0.0,0.0,0.0,0.0,0.0,0.0,0.0,0.0,0.0,0.0,0.0,0.0,0.0,0.0,0.0,0.0,0.0,0.0,0.0,0.0,0.0,0.0,0.0,0.0,0.0,0.0,0.0,0.0,0.0,0.0,0.0,0.0,0.0,0.0,0.0,0.0,0.0,0.0,0.0,0.0,0.0,0.0,0.0,0.0,0.0,0.0,0.0,0.0,0.0,0.0,0.0,0.0,0.0,0.0,0.0,0.0,0.0,0.0,0.0,0.0,0.0,0.0,0.0,0.0,0.0,0.0,0.0,0.0,0.0,0.0,0.0,0.0,0.0,0.0,0.0,0.0,0.0,0.0,0.0,0.0,0.0,0.0,0.0,0.0,0.0,0.0,0.0,0.0,0.0,0.0,0.0,0.0,0.0,0.0,0.0,0.0,0.0,0.0,0.0,0.0,0.0,0.0,0.0,0.0,0.0,0.0,0.0,0.0,0.0,0.0,0.0,0.0,0.0,0.0,0.0,0.0,0.0,0.0,0.0,0.0,0.0,0.0,0.0,0.0,0.0,0.0,0.0,0.0,0.0,0.0,0.0,0.0,0.0,0.0,0.0,0.0,0.0,0.0,0.0,0.0,0.0,0.0,0.0,0.0,0.0,0.0,0.0,0.0,0.0,0.0,0.0,0.0,0.0,0.0,0.0,0.0,0.0,0.0,0.0,0.0,0.0,0.0,0.0,0.0,0.0,0.0,0.0,0.0,0.0,0.0,0.0,0.0,0.0,0.0,0.0,0.0,0.0,0.0,0.0,0.0,0.0,0.0,0.0,0.0,0.0,0.0,0.0,0.0,0.0,0.0,0.0,0.0,0.0,0.0,0.0,0.0,0.0,0.0,0.0,0.0,0.0,0.0,0.0,0.0,0.0,0.0,0.0,0.0,0.0,0.0,0.0,0.0,0.0,0.0,0.0,0.0,0.0,0.0,0.0,0.0,0.0,0.0,0.0,0.0,0.0,0.0,0.0,0.0,0.0,0.0,0.0,0.0,0.0,0.0,0.0,0.0,0.0,0.0,0.0,0.0,0.0,0.0,0.0,0.0,0.0,0.0,0.0,0.0,0.0,0.0,0.0,0.0,0.0,0.0,0.0,0.0,0.0,0.0,0.0,0.0,0.0,0.0,0.0,0.0,0.0,0.0,0.0,0.0,0.0,0.0,0.0,0.0,0.0,0.0,0.0,0.0,0.0,0.0,0.0,0.0,0.0,0.0,0.0,0.0,0.0,0.0,0.0,0.0,0.0,0.0,0.0,0.0,0.0,0.0,0.0,0.0,0.0,0.0,0.0,0.0,0.0,0.0,0.0,0.0,0.0,0.0,0.0,0.0,0.0,0.0,0.0,0.0,0.0,0.0,0.0,0.0,0.0,0.0,0.0,0.0,0.0,0.0,0.0,0.0,0.0,0.0,0.0,0.0,0.0,0.0,0.0,0.0,0.0,0.0,0.0,0.0,0.0,0.0,0.0,0.0,0.0,0.0,0.0,0.0,0.0,0.0,0.0,0.0,0.0,0.0,0.0,0.0,0.0,0.0,0.0,0.0,0.0,0.0,0.0,0.0,0.0,0.0,0.0,0.0,0.0,0.0,0.0,0.0,0.0,0.0,0.0,0.0,0.0,0.0,0.0,0.0,0.0,0.0,0.0,0.0,0.0,0.0,0.0,0.0,0.0,0.0,0.0,0.0,0.0,0.0,0.0,0.0,0.0,0.0,0.0,0.0,0.0,0.0,0.0,-0.583,0.0,0.0,0.0,0.0,0.0,0.0,0.0,0.0,0.0,0.0,0.0,0.0,0.0,0.0,0.0,0.0,0.0,0.0,0.0,0.0,0.0,0.0,0.0,0.0,0.0,0.0,0.0,0.0,0.0,0.0,0.0,0.0,0.0,0.0,0.0,0.0,0.0,0.0,0.0,0.0,0.0,0.0,0.0,0.0,0.0,0.0,0.0,0.0,0.0,0.0,0.0,0.0,0.0,0.0,0.0,0.0,0.0,0.0,0.0,0.0,0.0,0.0,0.0,0.0,0.0,0.0,0.0,0.0,0.0,0.0,0.0,0.0,0.0,0.0,0.0,0.0,0.0,0.0,0.0,0.0,0.0,0.0,0.0,0.0,0.0,0.0,0.0,0.0,0.0,0.0,0.0,0.0,0.0,0.0,0.0,0.0,0.0,0.0,0.0,0.0,0.0,0.0,0.0,0.0,0.0,0.0,0.0,0.0,0.0,0.0,-0.5444,-0.5566,-0.5711,-0.5756,-0.5793,0.0,0.0,0.0,0.0,0.0,0.0,0.0,0.0,0.0,0.0,0.0,0.0,0.0,0.0,0.0,0.0,0.0,0.0,0.0,0.0,0.0,0.0,0.0,0.0,0.0,0.0,0.0,0.0,0.0,0.0,0.0,0.0,0.0,0.0,0.0,0.0,0.0,0.0,0.0,0.0,0.0,0.0,0.0,0.0,0.0,0.0,0.0,0.0,0.0,0.0,0.0,0.0,0.0,0.0,0.0,0.0,0.0,0.0,0.0,0.0,0.0,0.0,0.0,0.0,0.0,0.0,0.0,0.0,0.0,0.0,0.0,0.0,0.0,0.0,0.0,0.0,0.0,0.0,0.0,0.0,0.0,0.0,0.0,0.0,0.0,0.0,0.0,0.0,0.0,0.0,0.0,0.0,0.0,0.0,0.0,0.0,0.0,0.0,0.0,0.0,0.0,0.0,0.0,0.0,0.0,0.0,0.0,0.0,0.0,0.0,0.0,0.0,-0.5746,-0.5873,-0.5939,0.0,0.0,0.0,0.0,0.0,0.0,0.0,0.0,0.0,0.0,0.0,0.0,0.0,0.0,0.0,0.0,0.0,0.0,0.0,0.0,0.0,0.0,0.0,0.0,0.0,0.0,0.0,0.0,0.0,0.0,0.0,0.0,0.0,0.0,0.0,0.0,0.0,0.0,0.0,0.0,0.0,0.0,0.0,0.0,0.0,0.0,0.0,0.0,0.0,0.0,0.0,0.0,0.0,0.0,0.0,0.0,0.0,0.0,0.0,0.0,0.0,0.0,0.0,0.0,0.0,0.0,0.0,0.0,0.0,0.0,0.0,0.0,0.0,0.0,0.0,0.0,0.0,0.0,0.0,0.0,0.0,0.0,0.0,0.0,0.0,0.0,0.0,0.0,0.0,0.0,0.0,0.0,0.0,0.0,0.0,0.0,0.0,0.0,0.0,0.0,0.0,0.0,0.0,0.0,0.0,0.0,0.0,0.0,0.0,0.0,-0.5522,-0.6191,-0.6234,0.0,-0.6349,0.0,0.0,0.0,0.0,0.0,0.0,0.0,0.0,0.0,0.0,0.0,0.0,0.0,0.0,0.0,0.0,0.0,0.0,0.0,0.0,0.0,0.0,0.0,0.0,0.0,0.0,0.0,0.0,0.0,0.0,0.0,0.0,0.0,0.0,0.0,0.0,0.0,0.0,0.0,0.0,0.0,0.0,0.0,0.0,0.0,0.0,0.0,0.0,0.0,0.0,0.0,0.0,0.0,0.0,0.0,0.0,0.0,0.0,0.0,0.0,0.0,0.0,0.0,0.0,0.0,0.0,0.0,0.0,0.0,0.0,0.0,0.0,0.0,0.0,0.0,0.0,0.0,0.0,0.0,0.0,0.0,0.0,0.0,0.0,0.0,0.0,0.0,0.0,0.0,0.0,0.0,0.0,0.0,0.0,0.0,0.0,0.0,0.0,0.0,0.0,0.0,0.0,0.0,0.0,0.0,0.0,0.0,0.0,0.0,0.0,-0.5722,-0.6042,-0.6244,-0.6361,0.0,0.0,0.0,0.0,0.0,0.0,0.0,0.0,0.0,0.0,0.0,0.0,0.0,0.0,0.0,0.0,0.0,0.0,0.0,0.0,0.0,0.0,0.0,0.0,0.0,0.0,0.0,0.0,0.0,0.0,0.0,0.0,0.0,0.0,0.0,0.0,0.0,0.0,0.0,0.0,0.0,0.0,0.0,0.0,0.0,0.0,0.0,0.0,0.0,0.0,0.0,0.0,0.0,0.0,0.0,0.0,0.0,0.0,0.0,0.0,0.0,0.0,0.0,0.0,0.0,0.0,0.0,0.0,0.0,0.0,0.0,0.0,0.0,0.0,0.0,0.0,0.0,0.0,0.0,0.0,0.0,0.0,0.0,0.0,0.0,0.0,0.0,0.0,0.0,0.0,0.0,0.0,0.0,0.0,0.0,0.0,0.0,0.0,0.0,0.0,0.0,0.0,0.0,0.0,0.0,0.0,0.0,0.0,0.0,0.0,-0.5458,-0.5862,-0.6138,-0.6368,-0.6457,-0.6372,0.0,0.0,0.0,0.0,0.0,0.0,0.0,0.0,0.0,0.0,0.0,0.0,0.0,0.0,0.0,0.0,0.0,0.0,0.0,0.0,0.0,0.0,0.0,0.0,0.0,0.0,0.0,0.0,0.0,0.0,0.0,0.0,0.0,0.0,0.0,0.0,0.0,0.0,0.0,0.0,0.0,0.0,0.0,0.0,0.0,0.0,0.0,0.0,0.0,0.0,0.0,0.0,0.0,0.0,0.0,0.0,0.0,0.0,0.0,0.0,0.0,0.0,0.0,0.0,0.0,0.0,0.0,0.0,0.0,0.0,0.0,0.0,0.0,0.0,0.0,0.0,0.0,0.0,0.0,0.0,0.0,0.0,0.0,0.0,0.0,0.0,0.0,0.0,0.0,0.0,0.0,0.0,0.0,0.0,0.0,0.0,0.0,0.0,0.0,0.0,0.0,0.0,0.0,0.0,0.0,0.0,0.0,0.0,0.0,-0.5726,-0.5918,-0.6745,-0.6708,-0.657,0.0,0.0,0.0,0.0,0.0,0.0,0.0,0.0,0.0,0.0,0.0,0.0,0.0,0.0,0.0,0.0,0.0,0.0,0.0,0.0,0.0,0.0,0.0,0.0,0.0,0.0,0.0,0.0,0.0,0.0,0.0,0.0,0.0,0.0,0.0,0.0,0.0,0.0,0.0,0.0,0.0,0.0,0.0,0.0,0.0,0.0,0.0,0.0,0.0,0.0,0.0,0.0,0.0,0.0,0.0,0.0,0.0,0.0,0.0,0.0,0.0,0.0,0.0,0.0,0.0,0.0,0.0,0.0,0.0,0.0,0.0,0.0,0.0,0.0,0.0,0.0,0.0,0.0,0.0,0.0,0.0,0.0,0.0,0.0,0.0,0.0,0.0,0.0,0.0,0.0,0.0,0.0,0.0,0.0,0.0,0.0,0.0,0.0,0.0,0.0,0.0,0.0,0.0,0.0,0.0,0.0,0.0,0.0,0.0,-0.5288,-0.5691,-0.632,-0.7193,-0.6743,-0.655,0.0,0.0,0.0,0.0,0.0,0.0,0.0,0.0,0.0,0.0,0.0,0.0,0.0,0.0,0.0,0.0,0.0,0.0,0.0,0.0,0.0,0.0,0.0,0.0,0.0,0.0,0.0,0.0,0.0,0.0,0.0,0.0,0.0,0.0,0.0,0.0,0.0,0.0,0.0,0.0,0.0,0.0,0.0,0.0,0.0,0.0,0.0,0.0,0.0,0.0,0.0,0.0,0.0,0.0,0.0,0.0,0.0,0.0,0.0,0.0,0.0,0.0,0.0,0.0,0.0,0.0,0.0,0.0,0.0,0.0,0.0,0.0,0.0,0.0,0.0,0.0,0.0,0.0,0.0,0.0,0.0,0.0,0.0,0.0,0.0,0.0,0.0,0.0,0.0,0.0,0.0,0.0,0.0,0.0,0.0,0.0,0.0,0.0,0.0,0.0,0.0,0.0,0.0,0.0,0.0,0.0,0.0,0.0,0.0,-0.5251,0.0,-0.679,0.0,-0.6733,-0.6454,0.0,0.0,0.0,0.0,0.0,0.0,0.0,0.0,0.0,0.0,0.0,0.0,0.0,0.0,0.0,0.0,0.0,0.0,0.0,0.0,0.0,0.0,0.0,0.0,0.0,0.0,0.0,0.0,0.0,0.0,0.0,0.0,0.0,0.0,0.0,0.0,0.0,0.0,0.0,0.0,0.0,0.0,0.0,0.0,0.0,0.0,0.0,0.0,0.0,0.0,0.0,0.0,0.0,0.0,0.0,0.0,0.0,0.0,0.0,0.0,0.0,0.0,0.0,0.0,0.0,0.0,0.0,0.0,0.0,0.0,0.0,0.0,0.0,0.0,0.0,0.0,0.0,0.0,0.0,0.0,0.0,0.0,0.0,0.0,0.0,0.0,0.0,0.0,0.0,0.0,0.0,0.0,0.0,0.0,0.0,0.0,0.0,0.0,0.0,0.0,0.0,0.0,0.0,0.0,0.0,0.0,0.0,0.0,-0.4872,-0.6131,-0.7006,-0.7214,-0.6817,-0.6718,-0.6297,0.0,0.0,0.0,0.0,0.0,0.0,0.0,0.0,0.0,0.0,0.0,0.0,0.0,0.0,0.0,0.0,0.0,0.0,0.0,0.0,0.0,0.0,0.0,0.0,0.0,0.0,0.0,0.0,0.0,0.0,0.0,0.0,0.0,0.0,0.0,0.0,0.0,0.0,0.0,0.0,0.0,0.0,0.0,0.0,0.0,0.0,0.0,0.0,0.0,0.0,0.0,0.0,0.0,0.0,0.0,0.0,0.0,0.0,0.0,0.0,0.0,0.0,0.0,0.0,0.0,0.0,0.0,0.0,0.0,0.0,0.0,0.0,0.0,0.0,0.0,0.0,0.0,0.0,0.0,0.0,0.0,0.0,0.0,0.0,0.0,0.0,0.0,0.0,0.0,0.0,0.0,0.0,0.0,0.0,0.0,0.0,0.0,0.0,0.0,0.0,0.0,0.0,0.0,0.0,0.0,0.0,0.0,0.0,0.0,-0.5726,-0.6241,-0.6803,-0.73,-0.6377,-0.6076,0.0,0.0,0.0,0.0,0.0,0.0,0.0,0.0,0.0,0.0,0.0,0.0,0.0,0.0,0.0,0.0,0.0,0.0,0.0,0.0,0.0,0.0,0.0,0.0,0.0,0.0,0.0,0.0,0.0,0.0,0.0,0.0,0.0,0.0,0.0,0.0,0.0,0.0,0.0,0.0,0.0,0.0,0.0,0.0,0.0,0.0,0.0,0.0,0.0,0.0,0.0,0.0,0.0,0.0,0.0,0.0,0.0,0.0,0.0,0.0,0.0,0.0,0.0,0.0,0.0,0.0,0.0,0.0,0.0,0.0,0.0,0.0,0.0,0.0,0.0,0.0,0.0,0.0,0.0,0.0,0.0,0.0,0.0,0.0,0.0,0.0,0.0,0.0,0.0,0.0,0.0,0.0,0.0,0.0,0.0,0.0,0.0,0.0,0.0,0.0,0.0,0.0,0.0,0.0,0.0,0.0,0.0,0.0,0.0,-0.6913,-0.7413,-0.7944,-0.8428,-0.7421,-0.684,-0.6745,0.0,0.0,0.0,0.0,0.0,0.0,0.0,0.0,0.0,0.0,0.0,0.0,0.0,0.0,0.0,0.0,0.0,0.0,0.0,0.0,0.0,0.0,0.0,0.0,0.0,0.0,0.0,0.0,0.0,0.0,0.0,0.0,0.0,0.0,0.0,0.0,0.0,0.0,0.0,0.0,0.0,0.0,0.0,0.0,0.0,0.0,0.0,0.0,0.0,0.0,0.0,0.0,0.0,0.0,0.0,0.0,0.0,0.0,0.0,0.0,0.0,0.0,0.0,0.0,0.0,0.0,0.0,0.0,0.0,0.0,0.0,0.0,0.0,0.0,0.0,0.0,0.0,0.0,0.0,0.0,0.0,0.0,0.0,0.0,0.0,0.0,0.0,0.0,0.0,0.0,0.0,0.0,0.0,0.0,0.0,0.0,0.0,0.0,0.0,0.0,0.0,0.0,0.0,0.0,0.0,0.0,0.0,0.0,-0.9305,-1.0178,-1.0421,-1.0014,-0.9443,-0.8267,0.0,0.0,0.0,0.0,0.0,0.0,0.0,0.0,0.0,0.0,0.0,0.0,0.0,0.0,0.0,0.0,0.0,0.0,0.0,0.0,0.0,0.0,0.0,0.0,0.0,0.0,0.0,0.0,0.0,0.0,0.0,0.0,0.0,0.0,0.0,0.0,0.0,0.0,0.0,0.0,0.0,0.0,0.0,0.0,0.0,0.0,0.0,0.0,0.0,0.0,0.0,0.0,0.0,0.0,0.0,0.0,0.0,0.0,0.0,0.0,0.0,0.0,0.0,0.0,0.0,0.0,0.0,0.0,0.0,0.0,0.0,0.0,0.0,0.0,0.0,0.0,0.0,0.0,0.0,0.0,0.0,0.0,0.0,0.0,0.0,0.0,0.0,0.0,0.0,0.0,0.0,0.0,0.0,0.0,0.0,0.0,0.0,0.0,0.0,0.0,0.0,0.0,0.0,0.0,0.0,0.0,0.0,0.0,0.0,-1.0452,-1.2296,-1.2708,-1.1535,-0.9691,-0.8473,0.0,0.0,0.0,0.0,0.0,0.0,0.0,0.0,0.0,0.0,0.0,0.0,0.0,0.0,0.0,0.0,0.0,0.0,0.0,0.0,0.0,0.0,0.0,0.0,0.0,0.0,0.0,0.0,0.0,0.0,0.0,0.0,0.0,0.0,0.0,0.0,0.0,0.0,0.0,0.0,0.0,0.0,0.0,0.0,0.0,0.0,0.0,0.0,0.0,0.0,0.0,0.0,0.0,0.0,0.0,0.0,0.0,0.0,0.0,0.0,0.0,0.0,0.0,0.0,0.0,0.0,0.0,0.0,0.0,0.0,0.0,0.0,0.0,0.0,0.0,0.0,0.0,0.0,0.0,0.0,0.0,0.0,0.0,0.0,0.0,0.0,0.0,0.0,0.0,0.0,0.0,0.0,0.0,0.0,0.0,0.0,0.0,0.0,0.0,0.0,0.0,0.0,0.0,0.0,0.0,0.0,0.0,0.0,-1.0015,-1.1497,-1.4142,-1.5028,-1.3976,-1.1621,-0.9864,0.0,0.0,0.0,0.0,0.0,0.0,0.0,0.0,0.0,0.0,0.0,0.0,0.0,0.0,0.0,0.0,0.0,0.0,0.0,0.0,0.0,0.0,0.0,0.0,0.0,0.0,0.0,0.0,0.0,0.0,0.0,0.0,0.0,0.0,0.0,0.0,0.0,0.0,0.0,0.0,0.0,0.0,0.0,0.0,0.0,0.0,0.0,0.0,0.0,0.0,0.0,0.0,0.0,0.0,0.0,0.0,0.0,0.0,0.0,0.0,0.0,0.0,0.0,0.0,0.0,0.0,0.0,0.0,0.0,0.0,0.0,0.0,0.0,0.0,0.0,0.0,0.0,0.0,0.0,0.0,0.0,0.0,0.0,0.0,0.0,0.0,0.0,0.0,0.0,0.0,0.0,0.0,0.0,0.0,0.0,0.0,0.0,0.0,0.0,0.0,0.0,0.0,0.0,0.0,0.0,0.0,0.0,0.0,-1.1456,-1.241,-1.5569,-1.6994,-1.6546,-1.412,-1.173,0.0,0.0,0.0,0.0,0.0,0.0,0.0,0.0,0.0,0.0,0.0,0.0,0.0,0.0,0.0,0.0,0.0,0.0,0.0,0.0,0.0,0.0,0.0,0.0,0.0,0.0,0.0,0.0,0.0,0.0,0.0,0.0,0.0,0.0,0.0,0.0,0.0,0.0,0.0,0.0,0.0,0.0,0.0,0.0,0.0,0.0,0.0,0.0,0.0,0.0,0.0,0.0,0.0,0.0,0.0,0.0,0.0,0.0,0.0,0.0,0.0,0.0,0.0,0.0,0.0,0.0,0.0,0.0,0.0,0.0,0.0,0.0,0.0,0.0,0.0,0.0,0.0,0.0,0.0,0.0,0.0,0.0,0.0,0.0,0.0,0.0,0.0,0.0,0.0,0.0,0.0,0.0,0.0,0.0,0.0,0.0,0.0,0.0,0.0,0.0,0.0,0.0,0.0,0.0,0.0,0.0,0.0,0.0,-1.1752,-1.3248,-1.5531,-1.6877,-1.7103,-1.4023,-1.1763,0.0,0.0,0.0,0.0,0.0,0.0,0.0,0.0,0.0,0.0,0.0,0.0,0.0,0.0,0.0,0.0,0.0,0.0,0.0,0.0,0.0,0.0,0.0,0.0,0.0,0.0,0.0,0.0,0.0,0.0,0.0,0.0,0.0,0.0,0.0,0.0,0.0,0.0,0.0,0.0,0.0,0.0,0.0,0.0,0.0,0.0,0.0,0.0,-0.2645,0.0,0.0,0.0,0.0,0.0,0.0,0.0,0.0,0.0,0.0,0.0,0.0,0.0,0.0,0.0,0.0,0.0,0.0,0.0,0.0,0.0,0.0,0.0,0.0,0.0,0.0,0.0,0.0,0.0,0.0,0.0,0.0,0.0,0.0,0.0,0.0,0.0,0.0,0.0,0.0,0.0,0.0,0.0,0.0,0.0,0.0,0.0,0.0,0.0,0.0,0.0,0.0,0.0,0.0,0.0,0.0,0.0,0.0,0.0,-1.1914,-1.3785,-1.5623,-1.6807,-1.718,-1.5008,-1.2913,0.0,0.0,0.0,0.0,0.0,0.0,0.0,0.0,0.0,0.0,0.0,0.0,0.0,0.0,0.0,0.0,0.0,0.0,0.0,0.0,0.0,0.0,0.0,0.0,0.0,0.0,0.0,0.0,0.0,0.0,0.0,0.0,0.0,0.0,0.0,0.0,0.0,0.0,0.0,0.0,0.0,0.0,0.0,0.0,0.0,0.0,0.0,0.0,0.0,0.0,0.0,0.0,0.0,0.0,0.0,0.0,0.0,0.0,0.0,0.0,0.0,0.0,0.0,0.0,0.0,0.0,0.0,0.0,0.0,0.0,0.0,0.0,0.0,0.0,0.0,0.0,0.0,0.0,0.0,0.0,0.0,0.0,0.0,0.0,0.0,0.0,0.0,0.0,0.0,0.0,0.0,0.0,0.0,0.0,0.0,0.0,0.0,0.0,0.0,0.0,0.0,0.0,0.0,0.0,0.0,0.0,0.0,-1.0118,-1.2168,-1.4297,-1.5917,-1.692,-1.7312,-1.6243,-1.4306,-1.1625,0.0,0.0,0.0,0.0,0.0,0.0,0.0,0.0,0.0,0.0,0.0,0.0,0.0,0.0,0.0,0.0,0.0,0.0,0.0,0.0,0.0,0.0,0.0,0.0,0.0,0.0,0.0,0.0,0.0,0.0,0.0,0.0,0.0,0.0,0.0,0.0,0.0,0.0,-0.2465,-0.2745,0.0,0.0,0.0,0.0,0.0,0.0,0.0,0.0,-0.3435,0.0,0.0,0.0,0.0,0.0,0.0,0.0,0.0,0.0,0.0,0.0,0.0,0.0,0.0,0.0,0.0,0.0,0.0,0.0,0.0,0.0,0.0,0.0,0.0,0.0,0.0,0.0,0.0,0.0,0.0,0.0,0.0,0.0,0.0,0.0,0.0,0.0,0.0,0.0,0.0,0.0,0.0,0.0,0.0,0.0,0.0,0.0,0.0,0.0,0.0,0.0,0.0,0.0,0.0,0.0,0.0,-0.987,-1.0944,-1.2828,-1.5517,-1.6623,-1.7323,-1.7567,-1.6554,-1.4766,-1.2178,0.0,0.0,0.0,0.0,0.0,0.0,0.0,0.0,0.0,0.0,0.0,0.0,0.0,0.0,0.0,0.0,0.0,0.0,0.0,0.0,0.0,0.0,0.0,0.0,0.0,0.0,0.0,0.0,0.0,0.0,0.0,0.0,0.0,0.0,0.0,0.0,0.0,0.0,0.0,-0.349,-0.3773,0.0,0.0,0.0,0.0,0.0,0.0,0.0,0.0,-0.395,0.0,0.0,0.0,0.0,0.0,0.0,0.0,0.0,0.0,0.0,0.0,0.0,0.0,0.0,0.0,0.0,0.0,0.0,0.0,0.0,0.0,0.0,0.0,0.0,0.0,0.0,0.0,0.0,0.0,0.0,0.0,0.0,0.0,0.0,0.0,0.0,0.0,0.0,0.0,0.0,0.0,0.0,0.0,0.0,0.0,0.0,0.0,0.0,0.0,0.0,0.0,0.0,0.0,0.0,0.0,-1.0469,-1.179,-1.3931,-1.6952,-1.7253,-1.7645,-1.826,-1.6632,-1.4593,0.0,0.0,0.0,0.0,0.0,0.0,0.0,0.0,0.0,0.0,0.0,0.0,0.0,0.0,0.0,0.0,0.0,0.0,0.0,0.0,0.0,0.0,0.0,0.0,0.0,0.0,0.0,0.0,0.0,0.0,0.0,0.0,0.0,0.0,0.0,0.0,0.0,0.0,0.0,0.0,-0.3956,-0.4328,-0.4695,0.0,0.0,0.0,0.0,0.0,0.0,-0.4416,-0.4295,0.0,0.0,0.0,0.0,0.0,0.0,0.0,0.0,0.0,0.0,0.0,0.0,0.0,0.0,0.0,0.0,0.0,0.0,0.0,0.0,0.0,0.0,0.0,0.0,0.0,0.0,0.0,0.0,0.0,0.0,0.0,0.0,0.0,0.0,0.0,0.0,0.0,0.0,0.0,0.0,0.0,0.0,0.0,0.0,0.0,0.0,0.0,0.0,0.0,0.0,0.0,0.0,0.0,0.0,0.0,-1.0761,-1.2617,-1.5037,-1.8032,-1.799,-1.8227,-1.8952,-1.6779,-1.4514,0.0,0.0,0.0,0.0,0.0,0.0,0.0,0.0,0.0,0.0,0.0,0.0,0.0,0.0,0.0,0.0,0.0,0.0,0.0,0.0,0.0,0.0,0.0,0.0,0.0,0.0,0.0,0.0,0.0,0.0,0.0,0.0,0.0,0.0,0.0,0.0,0.0,0.0,0.0,0.0,0.0,-0.4895,-0.5576,-0.5001,0.0,0.0,0.0,0.0,-0.5046,-0.5142,0.0,0.0,0.0,0.0,0.0,0.0,0.0,0.0,0.0,0.0,0.0,0.0,0.0,0.0,0.0,0.0,0.0,0.0,0.0,0.0,0.0,0.0,0.0,0.0,0.0,0.0,0.0,0.0,0.0,0.0,0.0,0.0,0.0,0.0,0.0,0.0,0.0,0.0,0.0,0.0,0.0,0.0,0.0,0.0,0.0,0.0,0.0,0.0,0.0,0.0,0.0,0.0,0.0,0.0,0.0,0.0,-1.0781,-1.3358,-1.5832,-1.8123,-1.902,-1.9414,-1.9303,-1.724,-1.5018,0.0,0.0,0.0,0.0,0.0,0.0,0.0,0.0,0.0,0.0,0.0,0.0,0.0,0.0,0.0,0.0,0.0,0.0,0.0,0.0,0.0,0.0,0.0,0.0,0.0,0.0,0.0,0.0,0.0,0.0,0.0,0.0,0.0,0.0,0.0,0.0,0.0,0.0,0.0,0.0,0.0,-0.547,-0.5744,-0.5252,-0.4979,0.0,0.0,-0.6344,-0.6375,-0.7327,0.0,0.0,0.0,0.0,0.0,0.0,0.0,0.0,0.0,0.0,0.0,0.0,0.0,0.0,0.0,0.0,0.0,0.0,0.0,0.0,0.0,0.0,0.0,0.0,0.0,0.0,0.0,0.0,0.0,0.0,0.0,0.0,0.0,0.0,0.0,0.0,0.0,0.0,0.0,0.0,0.0,0.0,0.0,0.0,0.0,0.0,0.0,0.0,0.0,0.0,0.0,0.0,0.0,0.0,0.0,-0.9922,-1.1544,-1.4918,-1.7656,-1.9483,-2.0006,-2.0203,-2.0079,-1.7219,-1.4725,0.0,0.0,0.0,0.0,0.0,0.0,0.0,0.0,0.0,0.0,0.0,0.0,0.0,0.0,0.0,0.0,0.0,0.0,0.0,0.0,0.0,0.0,0.0,0.0,0.0,0.0,0.0,0.0,0.0,0.0,0.0,0.0,0.0,0.0,0.0,0.0,0.0,0.0,0.0,0.0,0.0,0.0,-0.6379,-0.631,0.0,0.0,0.0,-0.7132,-0.6966,0.0,0.0,0.0,0.0,0.0,0.0,0.0,0.0,0.0,0.0,0.0,0.0,0.0,0.0,0.0,0.0,0.0,0.0,0.0,0.0,0.0,0.0,0.0,0.0,0.0,0.0,0.0,0.0,0.0,0.0,0.0,0.0,0.0,0.0,0.0,0.0,0.0,0.0,0.0,0.0,0.0,0.0,0.0,0.0,0.0,0.0,0.0,0.0,0.0,0.0,0.0,0.0,0.0,0.0,0.0,0.0,0.0,-1.2048,-1.6313,-1.9212,-2.0529,-2.0875,-2.0863,-2.0583,-1.7763,0.0,0.0,0.0,0.0,0.0,0.0,0.0,0.0,0.0,0.0,0.0,0.0,0.0,0.0,0.0,0.0,0.0,0.0,0.0,0.0,0.0,0.0,0.0,0.0,0.0,0.0,0.0,-0.2439,0.0,0.0,0.0,0.0,0.0,0.0,0.0,0.0,0.0,0.0,0.0,0.0,0.0,0.0,-0.6862,-0.7126,-0.7343,-0.7626,0.0,0.0,-0.8006,-0.793,-0.8756,-0.878,0.0,0.0,0.0,0.0,0.0,0.0,0.0,0.0,0.0,0.0,0.0,0.0,0.0,0.0,0.0,0.0,0.0,0.0,0.0,0.0,0.0,0.0,0.0,0.0,0.0,0.0,0.0,0.0,0.0,0.0,0.0,0.0,0.0,0.0,0.0,0.0,0.0,0.0,0.0,0.0,0.0,0.0,0.0,0.0,0.0,0.0,0.0,0.0,0.0,0.0,0.0,0.0,0.0,0.0,0.0,-1.2139,-1.7002,-1.9925,-2.0589,-2.1572,-2.1669,-2.0782,-1.9546,-1.701,0.0,0.0,0.0,0.0,0.0,0.0,0.0,0.0,0.0,0.0,0.0,0.0,0.0,0.0,0.0,0.0,0.0,0.0,0.0,0.0,0.0,0.0,0.0,0.0,0.0,0.0,0.0,0.0,0.0,0.0,0.0,0.0,0.0,0.0,0.0,0.0,0.0,0.0,0.0,0.0,0.0,-0.7486,-0.7853,-0.8134,-0.8681,0.0,0.0,-0.9364,-0.985,-1.097,-1.0836,-0.8028,0.0,0.0,0.0,0.0,0.0,0.0,0.0,0.0,0.0,0.0,0.0,0.0,0.0,0.0,0.0,0.0,0.0,0.0,0.0,0.0,0.0,0.0,0.0,0.0,0.0,0.0,0.0,0.0,0.0,0.0,0.0,0.0,0.0,0.0,0.0,0.0,0.0,0.0,0.0,0.0,0.0,0.0,0.0,0.0,0.0,0.0,0.0,0.0,0.0,0.0,0.0,0.0,0.0,-1.2068,-1.2782,-1.7796,-2.0626,-2.1209,-2.2055,-2.2201,-2.1455,-2.017,-1.77,0.0,0.0,0.0,0.0,0.0,0.0,0.0,0.0,0.0,0.0,0.0,0.0,0.0,0.0,0.0,0.0,0.0,0.0,0.0,0.0,0.0,0.0,0.0,0.0,0.0,0.0,0.0,0.0,-0.545,-0.5329,-0.5081,0.0,0.0,0.0,0.0,0.0,0.0,0.0,0.0,0.0,0.0,-0.8365,-0.902,-0.942,0.0,0.0,-1.0283,-1.0258,-1.0257,-1.0588,-1.0203,-0.8439,-0.7643,0.0,0.0,0.0,0.0,0.0,0.0,0.0,0.0,0.0,0.0,0.0,0.0,0.0,0.0,0.0,0.0,0.0,0.0,0.0,0.0,0.0,0.0,0.0,0.0,0.0,0.0,0.0,0.0,0.0,0.0,0.0,0.0,0.0,0.0,0.0,0.0,0.0,0.0,0.0,0.0,0.0,0.0,0.0,0.0,0.0,0.0,0.0,0.0,0.0,0.0,0.0,0.0,-1.2658,-1.3531,-1.8343,-2.1141,-2.1677,-2.2347,-2.2492,-2.1984,-2.0742,-1.8647,0.0,0.0,0.0,0.0,0.0,0.0,0.0,0.0,0.0,0.0,0.0,0.0,0.0,0.0,0.0,0.0,0.0,0.0,0.0,0.0,0.0,0.0,0.0,0.0,0.0,0.0,0.0,0.0,-0.6284,-0.5943,-0.5038,0.0,0.0,0.0,0.0,0.0,0.0,0.0,0.0,0.0,0.0,-0.9288,-0.9781,-1.0219,-1.0549,-1.0542,-1.0458,-1.0467,-1.0371,-1.0325,-0.9907,-0.8978,0.0,0.0,0.0,0.0,0.0,0.0,0.0,0.0,0.0,0.0,0.0,0.0,0.0,0.0,0.0,0.0,0.0,0.0,0.0,0.0,0.0,0.0,0.0,0.0,0.0,0.0,0.0,-0.6937,0.0,0.0,-0.6891,0.0,0.0,0.0,0.0,0.0,0.0,0.0,0.0,0.0,0.0,0.0,0.0,0.0,0.0,0.0,0.0,0.0,0.0,0.0,0.0,0.0,0.0,-1.3179,-1.4225,-1.8666,-2.1313,-2.1879,-2.2407,-2.2492,-2.2126,-2.1448,-1.998,-1.7363,0.0,0.0,0.0,0.0,0.0,0.0,0.0,0.0,0.0,0.0,0.0,0.0,0.0,0.0,0.0,0.0,0.0,0.0,0.0,0.0,0.0,0.0,0.0,0.0,0.0,0.0,-0.4739,-0.5723,-0.6085,0.0,0.0,0.0,0.0,0.0,0.0,0.0,0.0,0.0,0.0,-0.8997,-1.0283,-0.9936,-1.0332,-1.0651,-1.0595,-1.0107,-0.9927,-1.0537,-1.0598,-1.0409,0.0,0.0,0.0,0.0,0.0,0.0,0.0,0.0,0.0,0.0,0.0,0.0,0.0,0.0,0.0,0.0,0.0,0.0,0.0,0.0,0.0,0.0,0.0,0.0,0.0,0.0,0.0,-0.9776,-0.918,0.0,0.0,0.0,0.0,0.0,0.0,0.0,0.0,0.0,0.0,0.0,-1.4138,-1.4535,0.0,0.0,0.0,0.0,0.0,0.0,0.0,0.0,0.0,0.0,0.0,0.0,-1.3422,-1.5122,-1.9078,-2.1659,-2.2551,-2.2809,-2.2882,-2.2742,-2.2205,-2.0511,-1.7438,0.0,0.0,0.0,0.0,0.0,0.0,0.0,0.0,0.0,0.0,0.0,0.0,0.0,0.0,0.0,0.0,0.0,0.0,0.0,0.0,0.0,0.0,0.0,0.0,0.0,-0.5882,0.0,0.0,0.0,0.0,0.0,0.0,0.0,0.0,0.0,0.0,0.0,-0.7432,-0.856,-0.9681,-1.0362,-1.0458,-1.0989,-1.139,0.0,0.0,0.0,0.0,0.0,0.0,0.0,0.0,0.0,0.0,0.0,0.0,0.0,0.0,-0.8693,-0.695,-0.6813,-0.6967,-0.702,0.0,0.0,0.0,0.0,0.0,0.0,0.0,0.0,0.0,0.0,0.0,0.0,0.0,0.0,-1.2617,0.0,-1.1535,0.0,0.0,0.0,0.0,0.0,0.0,0.0,0.0,-1.5309,-1.6529,-1.7015,-1.741,-1.7397,0.0,-1.6572,-1.4488,0.0,0.0,0.0,0.0,0.0,0.0,0.0,0.0,-1.4256,-1.6114,-1.9768,-2.2048,-2.2919,-2.3078,-2.3125,-2.3125,-2.2598,-2.1016,-1.8232,-1.589,-1.3711,0.0,0.0,0.0,0.0,0.0,0.0,0.0,0.0,0.0,0.0,0.0,0.0,0.0,0.0,0.0,0.0,0.0,0.0,0.0,0.0,0.0,0.0,0.0,-0.6418,0.0,0.0,0.0,0.0,0.0,0.0,0.0,0.0,0.0,-0.758,-0.8112,-0.8844,-0.9795,-1.0843,-1.1411,-1.0877,0.0,0.0,0.0,0.0,0.0,0.0,0.0,-0.9611,-0.9487,-0.9508,-0.9651,-0.9982,-1.0513,-1.08,-1.0698,0.0,0.0,-0.8624,-0.8439,-0.8626,-0.8543,-0.8922,-0.9066,-0.8492,-0.8416,-0.8419,0.0,0.0,0.0,0.0,0.0,0.0,0.0,0.0,-1.5325,-1.5502,0.0,-1.4302,0.0,0.0,0.0,0.0,0.0,-1.4901,0.0,0.0,-2.0376,-2.1418,-1.9987,-1.9911,-1.9899,-1.9874,-1.9359,-1.8267,-1.6609,-1.4513,0.0,0.0,0.0,0.0,0.0,0.0,-1.5768,-1.741,-2.0611,-2.2514,-2.3065,-2.3138,-2.3125,-2.3065,-2.2598,-2.1543,-1.9924,-1.8292,-1.666,-1.5029,-1.1839,0.0,0.0,0.0,0.0,0.0,0.0,0.0,0.0,0.0,0.0,0.0,0.0,0.0,0.0,0.0,0.0,0.0,0.0,0.0,0.0,-0.6611,0.0,0.0,0.0,0.0,0.0,0.0,0.0,0.0,0.0,0.0,-0.8172,-0.9451,-1.0632,-1.0647,0.0,0.0,0.0,0.0,-1.1732,-1.0401,-0.9709,-0.9443,-0.9493,-0.996,-1.0526,-1.1044,0.0,0.0,-1.2501,-1.229,-1.2037,-1.1815,-1.248,-1.2557,-1.0972,-1.0594,-1.037,-0.981,-1.0236,-1.0315,-0.9515,-1.0019,-1.0478,-2.2836,0.0,0.0,0.0,0.0,-1.706,-1.8033,-1.9877,-1.9651,-1.9019,-1.8083,-1.7686,0.0,0.0,0.0,0.0,0.0,0.0,-1.7589,-1.9497,-2.0639,-2.1719,-2.2774,-2.2372,-2.2171,-2.2159,-2.1631,-2.1117,-2.0614,-1.9623,-1.6484,-1.1437,0.0,0.0,0.0,0.0,-1.7061,-1.9095,-2.123,-2.2585,-2.3065,-2.3125,-2.3125,-2.3125,-2.2598,-2.2083,-2.1594,-1.9987,-1.8355,-1.671,-1.4639,0.0,0.0,0.0,0.0,0.0,0.0,0.0,0.0,0.0,0.0,0.0,0.0,0.0,0.0,0.0,0.0,0.0,0.0,0.0,-0.7099,-0.8028,-0.8215,0.0,0.0,0.0,0.0,0.0,0.0,0.0,0.0,0.0,-1.1328,-1.119,-1.117,0.0,0.0,-1.2029,-1.1072,-1.2138,-1.2998,-1.2957,-1.2948,0.0,-1.3184,-1.2856,-1.2482,-1.202,-1.2445,-1.2853,-1.2846,-1.3142,-1.3353,-1.3248,-1.3618,-1.3675,-1.3138,-1.2903,-1.282,-1.2686,-1.2829,-1.281,-1.2364,-1.2194,-1.2133,-2.7738,-2.3582,-2.1759,-2.1181,-2.1355,-2.0746,-2.159,-2.3339,-2.2902,-2.2296,-2.165,-2.0978,-1.9656,-1.7903,-1.703,0.0,0.0,0.0,-2.0075,-2.2309,-2.2309,-2.3037,-2.4243,-2.3753,-2.3477,-2.3439,-2.2912,-2.2636,-2.2636,-2.1857,-1.9258,-1.4977,0.0,0.0,-1.445,-1.6672,-1.8581,-2.0137,-2.1782,-2.2799,-2.3125,-2.3125,-2.3125,-2.3125,-2.2811,-2.2535,-2.2309,-2.1129,-1.9811,-1.8392,-1.6534,-1.4412,0.0,0.0,0.0,0.0,0.0,0.0,0.0,0.0,0.0,0.0,0.0,-0.5973,-0.5419,0.0,0.0,0.0,-0.7907,-0.821,-0.8859,-0.9328,0.0,0.0,0.0,0.0,0.0,0.0,0.0,-1.0547,-1.2219,-1.3402,-1.3508,-1.3194,-1.2937,-1.2932,-1.3375,-1.347,-1.2804,0.0,-1.4662,-1.4782,-1.4473,-1.4261,-1.4385,-1.3893,-1.3514,-1.3361,-1.3575,-1.3808,-1.3951,-1.4281,-1.451,-1.4524,-1.4604,-1.4604,-1.4524,-1.4524,-1.4344,-1.3973,-1.4113,-1.4188,-1.4019,-1.3954,-1.3944,-3.1386,-3.0587,-2.7341,-2.5671,-2.5091,-2.4169,-2.4662,-2.5907,-2.5318,-2.5322,-2.5611,-2.4142,-2.3163,-2.251,-2.0526,0.0,-2.1907,-2.241,-2.3477,-2.5008,-2.4971,-2.4983,-2.4983,-2.4418,-2.4192,-2.413,-2.354,-2.3251,-2.315,-2.2241,-2.1146,-2.0001,-1.9459,-1.8631,-1.7601,-1.8995,-2.0112,-2.0794,-2.2221,-2.305,-2.3125,-2.3138,-2.3138,-2.3138,-2.31,-2.2824,-2.2322,-2.1732,-2.0953,-1.9874,-1.7852,-1.6195,-1.499,0.0,0.0,0.0,0.0,0.0,0.0,0.0,0.0,0.0,0.0,0.0,0.0,0.0,0.0,0.0,-0.9925,0.0,-1.1261,-1.0761,0.0,0.0,0.0,-1.0732,-1.1658,-1.2864,-1.3451,-1.2976,0.0,0.0,-1.4849,-1.5214,-1.5419,-1.5115,-1.5974,-1.6336,-1.5491,-1.6056,-1.6552,-1.6179,-1.5111,-1.4346,-1.466,-1.4229,-1.4178,-1.4865,-1.4977,-1.4961,-1.5202,-1.5289,-1.5416,-1.5311,-1.5423,-1.5416,-1.5423,-1.5325,-1.5202,-1.4243,-1.4568,-1.4874,-1.4916,-1.5296,-1.5627,-3.3753,-3.3098,-3.2317,-3.0262,-2.7561,-2.7301,-2.7333,-2.7506,-2.7377,-2.7168,-2.6854,-2.6465,-2.6,-2.5435,-2.4921,-2.4908,-2.5297,-2.5423,-2.5912,-2.6653,-2.6251,-2.6302,-2.664,-2.5832,-2.5431,-2.5393,-2.4976,-2.4555,-2.4134,-2.3927,-2.2961,-2.1495,-2.1304,-2.0156,-1.8129,-1.9208,-2.0341,-2.1433,-2.1837,-2.2515,-2.3471,-2.339,-2.333,-2.333,-2.2783,-2.2447,-2.2297,-2.1436,-2.074,-2.0439,-1.9158,-1.7739,-1.6183,-1.3326,0.0,0.0,0.0,0.0,0.0,0.0,0.0,0.0,0.0,-0.8058,-0.6649,0.0,-0.8351,0.0,-1.1087,-1.2386,-1.2801,-1.2995,0.0,0.0,-1.2871,-1.3016,-1.3903,-1.4865,-1.5303,-1.4831,-1.5759,-1.6354,-1.623,-1.6292,-1.6718,-1.755,-1.6847,-1.6172,-1.5972,-1.6896,-1.7736,-1.7898,-1.8114,-1.8359,-1.7841,-1.6785,-1.5942,-1.6215,-1.5703,-1.5343,-1.5423,-1.5431,-1.5431,-1.5431,-1.5431,-1.5431,-1.5438,-1.5621,-1.5738,-1.5522,-1.5532,-1.5705,-1.5668,-1.6015,-1.6205,-3.4728,-3.4404,-3.4404,-3.2514,-2.9467,-2.947,-2.9451,-2.9267,-2.8664,-2.8151,-2.7788,-2.7717,-2.7482,-2.7193,-2.7193,-2.7193,-2.7193,-2.7193,-2.7427,-2.7763,-2.7473,-2.7569,-2.7881,-2.6845,-2.6378,-2.6365,-2.5627,-2.514,-2.4846,-2.4833,-2.4218,-2.309,-2.3065,-2.2022,-1.9965,-1.994,-2.0294,-2.0942,-2.1517,-2.2362,-2.3505,-2.3509,-2.3221,-2.2655,-2.2223,-2.165,-2.0878,-2.0024,-1.9334,-1.8832,-1.8016,-1.7011,-1.5819,-1.3492,-1.1631,0.0,0.0,0.0,0.0,0.0,0.0,0.0,0.0,0.0,0.0,0.0,-1.019,-1.0705,-1.2743,-1.4023,-1.3966,-1.4398,-1.4856,-1.5449,-1.5508,-1.59,-1.6815,-1.7282,-1.7468,-1.7298,-1.7635,-1.7871,-1.7871,-1.7871,-1.8115,-1.898,-1.8331,-1.7773,-1.7822,-1.8428,-1.9014,-1.9443,-1.9591,-1.9416,-1.8868,-1.7917,-1.7098,-1.678,-1.6296,-1.5899,-1.5506,-1.5431,-1.5431,-1.5431,-1.5431,-1.5489,-1.5621,-1.5782,-1.5987,-1.6265,-1.633,-1.6396,-1.6378,-1.6613,-1.6708,-3.5001,-3.5001,-3.5001,-3.3594,-3.1403,-3.1373,-3.0946,-3.0184,-2.8861,-2.8311,-2.8371,-2.8369,-2.8384,-2.8396,-2.8396,-2.8384,-2.8396,-2.8384,-2.8457,-2.8664,-2.8664,-2.8737,-2.8856,-2.7798,-2.7259,-2.722,-2.6115,-2.5537,-2.5473,-2.546,-2.5126,-2.4506,-2.4403,-2.3495,-2.1957,-2.0797,-2.022,-2.0105,-2.1319,-2.2424,-2.3443,-2.327,-2.2661,-2.1593,-2.139,-2.0547,-1.9032,-1.8392,-1.7652,-1.6685,-1.617,-1.5756,-1.5392,-1.3459,-1.2313,0.0,-1.0366,0.0,0.0,0.0,0.0,0.0,0.0,0.0,0.0,-1.229,-1.2519,-1.2919,-1.4785,-1.5792,-1.5428,-1.5713,-1.6576,-1.8037,-1.8242,-1.8606,-1.9459,-1.9495,-1.9423,-1.964,-1.9495,-1.937,-1.9452,-1.9448,-1.9511,-1.9756,-1.99,-1.9934,-2.0017,-1.9922,-2.0068,-2.0527,-1.9932,-1.9413,-1.8709,-1.8238,-1.7755,-1.7017,-1.6535,-1.6296,-1.5506,-1.5431,-1.5431,-1.5431,-1.5431,-1.5533,-1.5855,-1.5943,-1.6177,-1.6696,-1.685,-1.6894,-1.6923,-1.7099,-1.7318,-3.5359,-3.5359,-3.5359,-3.507,-3.4534,-3.392,-3.1068,-2.6857,-2.6181,-2.6649,-2.803,-2.9372,-2.9972,-2.9972,-2.9972,-2.9972,-2.9972,-2.9972,-2.9972,-3.0048,-3.0035,-3.0035,-3.0046,-2.9052,-2.8608,-2.8601,-2.7569,-2.683,-2.644,-2.644,-2.5683,-2.4164,-2.367,-2.2743,-2.147,0.0,0.0,0.0,-2.164,-2.2408,-2.2577,-2.1561,-2.0914,-2.063,-1.9669,0.0,-1.8579,-1.7966,-1.7529,-1.7314,-1.7156,0.0,0.0,0.0,0.0,0.0,0.0,0.0,0.0,0.0,0.0,0.0,-1.3464,-1.3226,-1.3168,-1.376,-1.452,-1.5305,-1.7594,-1.8922,-1.8499,-1.8841,-1.9164,-1.9484,-1.9534,-1.9605,-1.9837,-1.9785,-1.9775,-1.9847,-1.9795,-1.9935,-2.0306,-2.0326,-2.0466,-2.0873,-2.0907,-2.0968,-2.0921,-2.0671,-2.0546,-2.0557,-2.0411,-2.0245,-2.0167,-1.8957,-1.7997,-1.7594,-1.6468,-1.5665,-1.5423,-1.5445,-1.5438,-1.5445,-1.5431,-1.5548,-1.587,-1.6111,-1.6404,-1.6784,-1.7062,-1.7238,-1.7238,-1.7282,-1.7333,-3.5489,0.0,-3.5489,-3.4936,0.0,-3.3333,-3.0907,-2.7436,-2.8678,-2.9413,-2.9836,-3.0209,-3.0368,-3.0317,-2.9497,-2.9125,-2.9087,-2.8254,-2.8318,-2.9246,-2.9271,-2.9796,-3.0646,-2.9606,-2.9145,-2.9093,-2.8017,-2.7379,-2.7105,-2.7105,-2.6504,-2.538,-2.5079,-2.4347,-2.3154,-2.2648,-2.2073,-2.1459,-2.2086,-2.2675,-2.3197,-2.2607,-2.1912,-2.1289,-2.0682,0.0,0.0,0.0,0.0,0.0,0.0,0.0,0.0,0.0,0.0,-1.6323,-1.5347,-1.4715,-1.4664,-1.4584,-1.5068,-1.6229,-1.6746,-1.6564,-1.5567,-1.5925,-1.6675,-1.7958,-1.9777,-2.0624,-2.001,-2.0151,-2.0363,-2.0481,-2.0521,-2.0595,-2.067,-2.0595,-2.0686,-2.0964,-2.0929,-2.109,-2.1544,-2.1605,-2.1676,-2.1957,-2.1928,-2.1847,-2.1713,-2.1258,-2.0896,-2.0886,-2.0809,-2.0741,-2.0654,-1.9608,-1.8399,-1.7997,-1.687,-1.5989,-1.5423,-1.5562,-1.5672,-1.5687,-1.5789,-1.6001,-1.6301,-1.6506,-1.6711,-1.7011,-1.7216,-1.7326,-1.7333,-1.7333,-1.7333,-3.5489,-3.5489,-3.5489,-3.4562,-3.2975,-3.2623,-3.1513,-3.0148,0.0,0.0,0.0,-3.0939,-3.0722,-3.0556,-2.9052,-2.8376,-2.8273,-2.6912,-2.7095,-2.862,-2.8646,-2.9457,-3.0908,-2.981,-2.9274,-2.9222,-2.8085,-2.7469,-2.7469,-2.7469,-2.7301,-2.6857,-2.6739,-2.6112,-2.5014,-2.4504,-2.3733,-2.2782,-2.252,-2.2831,-2.3772,-2.3602,-2.2985,-2.1966,-2.1809,-2.1082,-1.961,-1.9425,-1.8907,-1.7989,-1.7847,-1.7857,-1.8033,-1.7706,-1.7472,-1.73,-1.7033,-1.6918,-1.6915,-1.685,-1.7367,-1.8547,-1.9391,-1.9292,-1.8164,-1.8206,-1.8854,-2.0237,-2.1246,-2.1501,-2.0852,-2.0822,-2.0964,-2.1242,-2.1282,-2.1369,-2.1604,-2.1547,-2.17,-2.2206,-2.2188,-2.2332,-2.2727,-2.2787,-2.291,-2.2982,-2.2951,-2.2686,-2.2278,-2.1632,-2.1138,-2.1128,-2.1061,-2.0984,-2.0819,-2.0089,-1.9125,-1.8158,-1.7342,-1.6476,-1.5777,-1.5738,-1.5913,-1.5994,-1.6213,-1.6455,-1.6853,-1.6911,-1.6974,-1.7267,-1.7333,-1.7333,-1.7333,-1.7333,-1.7333,-3.5489,-3.5489,-3.5489,-3.5355,-3.5085,-3.5021,-3.4793,-3.4371,-3.2048,-3.0876,-3.0779,-3.1537,-3.1869,-3.1783,-3.0921,-3.0546,-3.0533,-3.0285,-3.0312,-3.062,-3.0607,-3.0738,-3.0921,-2.981,-2.9274,-2.9183,-2.8085,-2.7469,-2.7469,-2.7469,-2.7484,-2.7353,-2.6922,-2.6099,-2.5053,-2.4943,-2.453,-2.3877,-2.2871,-2.2507,-2.2622,-2.1668,-2.1131,-2.0897,-2.0479,-2.0025,-1.9777,-1.9681,-1.9516,-1.93,-1.9239,-1.9641,-2.0515,-2.0384,-2.0237,-1.9994,-2.024,-1.9939,-1.8791,-1.8692,-1.894,-1.9499,-1.9754,-1.9744,-1.9588,-2.0069,-2.0596,-2.0947,-2.1507,-2.1787,-2.1638,-2.1628,-2.1669,-2.1741,-2.1741,-2.1876,-2.2267,-2.2329,-2.2505,-2.2959,-2.301,-2.3185,-2.3608,-2.3701,-2.3691,-2.3691,-2.365,-2.3392,-2.2539,-2.172,-2.1235,-2.1215,-2.1215,-2.1138,-2.1051,-2.0401,-1.9432,-1.8461,-1.7504,-1.6727,-1.597,-1.5899,-1.6052,-1.625,-1.6463,-1.6543,-1.6904,-1.6941,-1.7004,-1.7274,-1.7333,-1.7333,-1.7333,-1.7333,-1.7333,-3.5489,-3.5489,-3.5489,-3.5489,-3.5489,-3.5489,-3.5489,-3.535,-3.3927,-3.3021,-3.2539,-3.2275,-3.2087,-3.192,-3.0328,-2.9575,-2.9523,-2.8621,-2.8686,-2.9536,-2.9562,-3.0072,-3.083,-2.9823,-2.9274,-2.9196,-2.8085,-2.7469,-2.7469,-2.7469,-2.7469,-2.7484,-2.6961,-2.6412,-2.5952,-2.5336,-2.4891,-2.457,-2.3733,-2.3315,-2.3315,-2.2818,-2.2531,-2.2531,-2.2269,-2.2139,-2.2139,-2.2031,-2.1923,-2.1923,-2.1802,-2.1924,-2.2411,-2.2406,-2.2151,-2.1716,-2.1735,-2.1239,-1.9835,-1.9561,-1.9634,-2.0079,-2.0358,-2.0493,-2.0493,-2.0576,-2.0866,-2.1424,-2.1694,-2.1807,-2.1818,-2.2025,-2.218,-2.218,-2.2397,-2.2646,-2.2822,-2.2873,-2.306,-2.3474,-2.3557,-2.3732,-2.4178,-2.424,-2.4229,-2.4219,-2.4053,-2.3608,-2.2967,-2.2313,-2.1788,-2.1563,-2.1436,-2.1359,-2.1359,-2.0547,-1.958,-1.863,-1.7924,-1.7119,-1.6323,-1.6253,-1.6544,-1.6581,-1.672,-1.6916,-1.7099,-1.7113,-1.7194,-1.726,-1.7333,-1.7333,-1.7333,-1.7333,-1.7333,-3.5489,-3.5489,-3.5489,-3.5489,-3.5489,-3.5489,-3.5489,-3.5489,-3.5489,-3.5133,-3.4461,-3.3199,-3.2506,-3.2154,-3.0161,-2.9171,-2.8778,-2.7602,-2.7732,-2.8882,-2.8961,-2.9706,-3.0777,-2.9941,-2.9418,-2.9183,-2.8216,-2.7667,-2.7482,-2.7469,-2.7469,-2.7484,-2.7079,-2.6804,-2.6648,-2.5667,-2.5105,-2.4949,-2.4413,-2.4125,-2.4125,-2.4125,-2.4112,-2.4125,-2.4099,-2.4125,-2.4125,-2.4008,-2.3949,-2.3949,-2.3819,-2.3688,-2.3747,-2.3688,-2.3416,-2.2886,-2.2727,-2.2091,-2.0796,-2.0222,-2.017,-2.0545,-2.0907,-2.1197,-2.1362,-2.1,-2.1073,-2.1818,-2.2014,-2.2066,-2.218,-2.2439,-2.2656,-2.2677,-2.2967,-2.3194,-2.3329,-2.335,-2.3525,-2.3929,-2.4033,-2.4167,-2.4447,-2.455,-2.4529,-2.4467,-2.4157,-2.3732,-2.337,-2.2873,-2.2377,-2.219,-2.1809,-2.166,-2.1614,-2.1093,-2.0191,-1.9191,-1.8659,-1.7869,-1.7055,-1.6971,-1.7221,-1.7146,-1.7172,-1.7338,-1.7412,-1.7318,-1.7318,-1.7333,-1.7333,-1.7333,-1.7333,-1.7333,-1.7333,-3.5489,-3.5489,-3.5489,-3.5489,-3.5489,-3.5489,-3.5489,-3.5489,-3.5489,-3.5504,-3.5279,-3.4461,-3.3699,-3.3059,-3.2072,-3.1269,-3.0721,-3.0568,-3.0529,-3.0647,-3.0751,-3.083,-3.0934,-3.0333,-2.9784,-2.9274,-2.8608,-2.8007,-2.7602,-2.7536,-2.7469,-2.7469,-2.7471,-2.7183,-2.6661,-2.6059,-2.5497,-2.5035,-2.4413,-2.4125,-2.4125,-2.4125,-2.4125,-2.4125,-2.4125,-2.4125,-2.4125,-2.4067,-2.4054,-2.4054,-2.4054,-2.4054,-2.4054,-2.3936,-2.3799,-2.3605,-2.3492,-2.2898,-2.1856,-2.1021,-2.077,-2.099,-2.1114,-2.1497,-2.2211,-2.1932,-2.188,-2.2366,-2.2584,-2.2791,-2.3018,-2.3091,-2.3122,-2.3132,-2.3215,-2.335,-2.3732,-2.3815,-2.3991,-2.4436,-2.4426,-2.4509,-2.4529,-2.455,-2.455,-2.454,-2.4219,-2.3898,-2.3701,-2.307,-2.2687,-2.277,-2.2387,-2.2076,-2.2237,-2.236,-2.149,-2.0228,-1.9946,-1.9102,-1.8002,-1.7489,-1.7621,-1.7637,-1.7687,-1.7699,-1.7621,-1.7527,-1.7333,-1.7333,-1.7333,-1.7333,-1.7333,-1.7333,-1.7333,-3.5489,-3.5489,-3.5489,-3.5489,-3.5489,-3.5489,-3.5489,-3.5489,-3.5489,-3.5489,-3.5424,-3.5133,-3.4558,-3.3768,-3.2648,-3.1955,-3.1603,-3.1185,-3.0986,-3.0986,-3.0986,-3.0986,-3.0921,-3.0398,-3.0006,-2.9706,-2.8843,-2.8255,-2.802,-2.7693,-2.7469,-2.7469,-2.7469,-2.7406,-2.7144,-2.6621,-2.6203,-2.6031,-2.5419,-2.4975,-2.4622,-2.4295,-2.4125,-2.4125,-2.4125,-2.4125,-2.4125,-2.4125,-2.4125,-2.4125,-2.4125,-2.4125,-2.4125,-2.438,-2.4546,-2.4448,-2.3786,-2.3328,-2.3098,-2.1953,-2.147,-2.185,-2.2155,-2.2415,-2.2606,-2.2642,-2.2811,-2.3256,-2.3619,-2.367,-2.3298,-2.3432,-2.3588,-2.3629,-2.3815,-2.4053,-2.424,-2.4271,-2.4353,-2.4519,-2.455,-2.455,-2.455,-2.455,-2.455,-2.4529,-2.4353,-2.4188,-2.3898,-2.3308,-2.3039,-2.306,-2.2625,-2.247,-2.2801,-2.2904,-2.2169,-2.0885,-2.0516,-1.9957,-1.8298,-1.8053,-1.8171,-1.8018,-1.7972,-1.7893,-1.7721,-1.7628,-1.7527,-1.7426,-1.7333,-1.7333,-1.7333,-1.7333,-1.7333,-3.5504,-3.5554,-3.5504,-3.5489,-3.5489,-3.5489,-3.5489,-3.5489,-3.5489,-3.5489,-3.5489,-3.5489,-3.5213,-3.4461,-3.3269,-3.2648,-3.2304,-3.1676,-3.132,-3.1259,-3.1123,-3.0986,-3.0934,-3.0581,-3.0281,-3.0019,-2.9287,-2.8712,-2.8373,-2.7811,-2.7469,-2.7469,-2.7469,-2.7469,-2.7471,-2.6961,-2.6674,-2.6621,-2.6125,-2.5628,-2.5184,-2.4648,-2.4269,-2.4138,-2.4125,-2.4125,-2.4125,-2.4125,-2.4125,-2.4125,-2.4125,-2.4125,-2.4138,-2.4661,-2.5166,-2.5322,-2.4505,-2.4006,-2.4189,-2.2806,-2.2168,-2.2551,-2.2934,-2.3165,-2.3171,-2.3231,-2.3453,-2.3991,-2.4353,-2.4198,-2.3753,-2.3867,-2.4053,-2.4074,-2.4374,-2.454,-2.454,-2.455,-2.4529,-2.455,-2.455,-2.455,-2.455,-2.455,-2.455,-2.454,-2.4529,-2.4457,-2.4095,-2.3691,-2.3412,-2.3505,-2.3001,-2.2787,-2.3216,-2.3023,-2.2271,-2.1448,-2.0934,-2.0105,-1.8451,-1.8498,-1.8542,-1.8409,-1.8311,-1.8071,-1.79,-1.7815,-1.7628,-1.7426,-1.7333,-1.7333,-1.7333,-1.7333,-1.7333,-3.5539,-3.5703,-3.5554,-3.5489,-3.5489,-3.5489,-3.5489,-3.5489,-3.5489,-3.5489,-3.5489,-3.5489,-3.5504,-3.5344,-3.4476,-3.3837,-3.3143,-3.2362,-3.2028,-3.1942,-3.1334,-3.0986,-3.0986,-3.0947,-3.0673,-3.0215,-2.9928,-2.9327,-2.836,-2.7811,-2.7469,-2.7469,-2.7469,-2.7469,-2.7458,-2.7,-2.67,-2.6674,-2.6216,-2.5837,-2.5733,-2.5236,-2.4713,-2.4282,-2.4125,-2.4125,-2.4125,-2.4125,-2.4125,-2.4125,-2.4151,-2.4151,-2.4178,-2.47,-2.5572,-2.6323,-2.5716,-2.5121,-2.4779,-2.3588,-2.28,-2.3075,-2.3179,-2.343,-2.3977,-2.3627,-2.3743,-2.4416,-2.4509,-2.4392,-2.4405,-2.4385,-2.4457,-2.4467,-2.4509,-2.455,-2.455,-2.455,-2.455,-2.455,-2.455,-2.455,-2.455,-2.455,-2.455,-2.455,-2.455,-2.4519,-2.4416,-2.4084,-2.3991,-2.3988,-2.3402,-2.274,-2.3565,-2.3042,-2.2265,-2.1443,-2.0544,-1.9983,-1.9322,-1.8819,-1.8703,-1.8696,-1.8542,-1.8365,-1.8087,-1.79,-1.7621,-1.752,-1.7426,-1.7333,-1.7333,-1.7333,-1.7333,-3.5782,-3.5688,-3.5554,-3.5489,-3.5489,-3.5489,-3.5489,-3.5489,-3.5489,-3.5489,-3.5489,-3.5489,-3.5489,-3.5504,-3.5198,-3.4624,-3.3905,-3.3129,-3.2577,-3.216,-3.1809,-3.1468,-3.1061,-3.0986,-3.0908,-3.0607,-2.9941,-2.8987,-2.7941,-2.7615,-2.7469,-2.7469,-2.7469,-2.7469,-2.7484,-2.7327,-2.7223,-2.7196,-2.7,-2.6739,-2.6386,-2.6151,-2.5785,-2.521,-2.4491,-2.4125,-2.4125,-2.4125,-2.4125,-2.4125,-2.4465,-2.4661,-2.4753,-2.555,-2.6399,-2.7052,-2.6438,-2.5938,-2.5565,-2.4699,-2.4038,-2.4013,-2.4259,-2.4417,-2.4538,-2.4471,-2.4535,-2.4787,-2.4615,-2.454,-2.47,-2.4625,-2.455,-2.455,-2.455,-2.455,-2.455,-2.455,-2.455,-2.455,-2.455,-2.455,-2.455,-2.455,-2.455,-2.455,-2.455,-2.455,-2.4478,-2.4167,-2.4053,-2.4258,-2.3914,-2.354,-2.4111,-2.2881,-2.1706,-2.1069,-2.0331,-1.9778,-1.918,-1.8827,-1.8812,-1.8711,-1.8651,-1.8566,-1.828,-1.8087,-1.7807,-1.7621,-1.7527,-1.7426,-1.7326,-1.7333,-1.7333,-3.5894,-3.5688,-3.5589,-3.5554,-3.5489,-3.5489,-3.5489,-3.5489,-3.5489,-3.5489,-3.5489,-3.5489,-3.5489,-3.5489,-3.5489,-3.5213,-3.4624,-3.3905,-3.3269,-3.2763,-3.2577,-3.2087,-3.1468,-3.132,-3.1185,-3.0865,-2.9823,-2.8765,-2.7889,-2.7615,-2.7536,-2.7469,-2.7469,-2.7469,-2.7469,-2.7469,-2.7469,-2.7469,-2.7469,-2.7327,-2.6974,-2.6765,-2.6608,-2.6282,-2.5432,-2.4844,-2.4687,-2.4661,-2.4674,-2.4713,-2.504,-2.5406,-2.5824,-2.6517,-2.7301,-2.79,-2.7372,-2.6739,-2.6262,-2.5604,-2.5,-2.473,-2.4978,-2.5126,-2.5042,-2.5198,-2.5274,-2.5115,-2.4946,-2.4871,-2.4871,-2.4711,-2.4625,-2.454,-2.455,-2.455,-2.455,-2.455,-2.455,-2.455,-2.455,-2.455,-2.455,-2.455,-2.455,-2.455,-2.455,-2.455,-2.4488,-2.4322,-2.4167,-2.4361,-2.3951,-2.3644,-2.369,-2.2669,-2.1868,-2.1221,-2.0085,-1.9546,-1.9188,-1.8912,-1.8827,-1.8827,-1.8743,-1.8658,-1.8566,-1.828,-1.8094,-1.7908,-1.7721,-1.7628,-1.7434,-1.7326,-1.7333,-3.6006,-3.5752,-3.5688,-3.5589,-3.5489,-3.5489,-3.5489,-3.5489,-3.5489,-3.5489,-3.5489,-3.5489,-3.5489,-3.5489,-3.5489,-3.5504,-3.5294,-3.461,-3.4245,-3.4027,-3.3492,-3.2791,-3.216,-3.2015,-3.1549,-3.0856,-2.9836,-2.8987,-2.8307,-2.785,-2.7602,-2.7482,-2.7469,-2.7469,-2.7469,-2.7469,-2.7469,-2.7482,-2.7575,-2.7575,-2.7484,-2.7131,-2.7131,-2.7432,-2.6974,-2.6465,-2.5955,-2.5863,-2.5837,-2.5837,-2.589,-2.6412,-2.7301,-2.7589,-2.8059,-2.8864,-2.8503,-2.7729,-2.7025,-2.6271,-2.5665,-2.54,-2.5289,-2.5343,-2.5492,-2.5706,-2.5644,-2.538,-2.5285,-2.5211,-2.5031,-2.4946,-2.4775,-2.454,-2.455,-2.455,-2.455,-2.455,-2.455,-2.455,-2.455,-2.455,-2.455,-2.455,-2.455,-2.455,-2.455,-2.455,-2.455,-2.4478,-2.4433,-2.4358,-2.4018,-2.373,-2.3153,-2.2394,-2.2041,-2.1516,-2.0175,-1.9188,-1.9004,-1.8827,-1.8827,-1.8827,-1.8827,-1.8743,-1.8658,-1.8465,-1.828,-1.8094,-1.7916,-1.7822,-1.7714,-1.7613,-1.7426,-3.6133,-3.6006,-3.5816,-3.5688,-3.5653,-3.5554,-3.5489,-3.5489,-3.5489,-3.5489,-3.5489,-3.5489,-3.5489,-3.5489,-3.5489,-3.5489,-3.5489,-3.5198,-3.4839,-3.4312,-3.4041,-3.3561,-3.2861,-3.2362,-3.1535,-3.0472,-3.0059,-2.934,-2.8516,-2.8203,-2.7941,-2.7602,-2.7469,-2.7469,-2.7469,-2.7469,-2.7469,-2.7575,-2.7928,-2.8111,-2.815,-2.8347,-2.8529,-2.8686,-2.8569,-2.8373,-2.8177,-2.7432,-2.7027,-2.7,-2.7379,-2.7941,-2.8569,-2.8739,-2.8908,-2.9209,-2.9048,-2.8711,-2.8188,-2.7481,-2.6854,-2.6483,-2.5975,-2.5732,-2.579,-2.5728,-2.5728,-2.5633,-2.5464,-2.5211,-2.5295,-2.5211,-2.4956,-2.454,-2.455,-2.454,-2.455,-2.455,-2.455,-2.455,-2.455,-2.455,-2.455,-2.455,-2.455,-2.455,-2.455,-2.455,-2.455,-2.455,-2.455,-2.4454,-2.409,-2.3907,-2.3647,-2.3202,-2.2755,-2.2041,-2.0701,-1.9455,-1.9188,-1.8827,-1.8827,-1.8827,-1.8827,-1.8735,-1.8651,-1.8558,-1.8465,-1.8381,-1.8288,-1.8094,-1.7994,-1.7807,-1.7527,-3.6274,-3.6196,-3.5943,-3.5879,-3.5831,-3.5733,-3.5668,-3.5604,-3.5539,-3.5539,-3.5489,-3.5489,-3.5489,-3.5489,-3.5489,-3.5489,-3.5489,-3.5489,-3.5198,-3.4824,-3.4758,-3.4327,-3.3561,-3.2847,-3.1775,-3.0698,-3.0533,-2.99,-2.8765,-2.8699,-2.8425,-2.7928,-2.785,-2.7719,-2.7496,-2.7469,-2.7469,-2.7589,-2.7876,-2.8059,-2.8177,-2.8634,-2.9052,-2.9261,-2.947,-2.9706,-2.9823,-2.917,-2.8608,-2.8333,-2.8543,-2.8987,-2.9523,-2.9601,-2.9693,-2.9876,-2.9855,-2.9619,-2.8733,-2.8089,-2.7502,-2.6789,-2.6218,-2.5895,-2.5895,-2.5738,-2.5822,-2.5812,-2.5633,-2.5475,-2.5559,-2.5475,-2.5211,-2.4786,-2.47,-2.4625,-2.454,-2.455,-2.455,-2.455,-2.455,-2.455,-2.455,-2.455,-2.455,-2.455,-2.455,-2.455,-2.455,-2.455,-2.455,-2.455,-2.4368,-2.4368,-2.4368,-2.4003,-2.3551,-2.2473,-2.132,-2.0348,-1.9629,-1.9096,-1.8827,-1.8827,-1.8827,-1.8827,-1.8735,-1.8735,-1.8643,-1.8651,-1.8473,-1.828,-1.8087,-1.7714,-1.7527,-3.6399,-3.6196,-3.6211,-3.6085,-3.6037,-3.5973,-3.5846,-3.5688,-3.5688,-3.5589,-3.5504,-3.5489,-3.5489,-3.5489,-3.5489,-3.5489,-3.5489,-3.5489,-3.5504,-3.5424,-3.5344,-3.4986,-3.4163,-3.3561,-3.2583,-3.1537,-3.1314,-3.0623,-2.9539,-2.9385,-2.9026,-2.849,-2.8347,-2.8124,-2.7732,-2.7575,-2.7469,-2.7469,-2.7628,-2.7693,-2.7732,-2.8307,-2.883,-2.9379,-2.9902,-3.0385,-3.0712,-3.066,-3.0294,-2.9523,-2.9418,-2.968,-3.0072,-3.0176,-3.0411,-3.0803,-3.0947,-2.9999,-2.8863,-2.8263,-2.7591,-2.6456,-2.6063,-2.5895,-2.5895,-2.5895,-2.5895,-2.5895,-2.5895,-2.5822,-2.5644,-2.5654,-2.5475,-2.5285,-2.4946,-2.4786,-2.454,-2.455,-2.455,-2.455,-2.455,-2.455,-2.455,-2.455,-2.455,-2.455,-2.455,-2.455,-2.455,-2.455,-2.455,-2.455,-2.455,-2.4464,-2.4454,-2.4368,-2.3907,-2.3008,-2.1943,-2.1141,-2.0076,-1.9271,-1.8827,-1.8827,-1.8827,-1.8827,-1.8827,-1.8827,-1.8827,-1.8735,-1.8558,-1.8373,-1.8179,-1.79,-1.7621,-3.6476,-3.6414,-3.6274,-3.6196,-3.6148,-3.6037,-3.5894,-3.5688,-3.5688,-3.5653,-3.5489,-3.5489,-3.5489,-3.5489,-3.5489,-3.5489,-3.5489,-3.5489,-3.5489,-3.5489,-3.5489,-3.5052,-3.4447,-3.4109,-3.3545,-3.2667,-3.2118,-3.1473,-3.0747,-3.0236,-2.966,-2.9039,-2.8677,-2.832,-2.8124,-2.7719,-2.7549,-2.7602,-2.7968,-2.8111,-2.8255,-2.9078,-2.9732,-2.9928,-3.0411,-3.0777,-3.0973,-3.0986,-3.0895,-3.0594,-3.0529,-3.0594,-3.0699,-3.0725,-3.0803,-3.0846,-3.0419,-2.9935,-2.9238,-2.8211,-2.7336,-2.6951,-2.6229,-2.5895,-2.5895,-2.5895,-2.5895,-2.5895,-2.5895,-2.5895,-2.5812,-2.5822,-2.5728,-2.5475,-2.5115,-2.4861,-2.4625,-2.455,-2.455,-2.455,-2.455,-2.455,-2.455,-2.455,-2.455,-2.455,-2.455,-2.455,-2.455,-2.455,-2.455,-2.455,-2.455,-2.455,-2.4464,-2.4464,-2.41,-2.3367,-2.2473,-2.1854,-2.061,-1.9363,-1.9004,-1.8827,-1.8827,-1.8827,-1.8827,-1.8827,-1.8827,-1.8827,-1.8643,-1.8558,-1.8465,-1.8272,-1.7994,-3.6492,-3.6492,-3.6352,-3.6352,-3.6352,-3.6226,-3.6037,-3.5831,-3.5831,-3.5718,-3.5554,-3.5489,-3.5489,-3.5489,-3.5489,-3.5489,-3.5489,-3.5489,-3.5489,-3.5489,-3.5489,-3.5198,-3.489,-3.4758,-3.4409,-3.3699,-3.3199,-3.2723,-3.2109,-3.1585,-3.0855,-2.9934,-2.9382,-2.8847,-2.7954,-2.7732,-2.7469,-2.7589,-2.7863,-2.802,-2.8111,-2.8908,-2.9287,-2.9562,-3.015,-3.0699,-3.0934,-3.0986,-3.0986,-3.0973,-3.0973,-3.0986,-3.0986,-3.0986,-3.0986,-3.0973,-3.0177,-2.9549,-2.8991,-2.7891,-2.7103,-2.6704,-2.6146,-2.5979,-2.5895,-2.5895,-2.5895,-2.5895,-2.5895,-2.5895,-2.5895,-2.5895,-2.5822,-2.5559,-2.538,-2.5041,-2.47,-2.454,-2.454,-2.455,-2.455,-2.455,-2.455,-2.455,-2.455,-2.455,-2.455,-2.455,-2.455,-2.455,-2.455,-2.455,-2.455,-2.455,-2.455,-2.455,-2.4358,-2.3637,-2.2296,-2.1854,-2.0872,-1.9538,-1.9096,-1.8827,-1.8827,-1.8827,-1.8827,-1.8827,-1.8827,-1.8735,-1.8743,-1.8743,-1.8651,-1.8458,-1.8179,-3.6492,-3.6492,-3.6492,-3.6492,-3.6492,-3.6492,-3.6304,-3.6037,-3.6037,-3.5797,-3.5554,-3.5504,-3.5504,-3.5489,-3.5489,-3.5489,-3.5489,-3.5489,-3.5489,-3.5489,-3.5489,-3.5424,-3.5344,-3.5344,-3.5052,-3.4461,-3.438,-3.3876,-3.324,-3.3143,-3.2097,-3.0814,-3.0364,-2.9308,-2.809,-2.7615,-2.7536,-2.7469,-2.7575,-2.7641,-2.7785,-2.836,-2.8804,-2.8974,-2.9902,-3.049,-3.0777,-3.0921,-3.0986,-3.0986,-3.0986,-3.0986,-3.0986,-3.0986,-3.0986,-3.0748,-3.0024,-2.9147,-2.8426,-2.7568,-2.6693,-2.6135,-2.5979,-2.5895,-2.5895,-2.5895,-2.5895,-2.5895,-2.5895,-2.5895,-2.5895,-2.5895,-2.5812,-2.5644,-2.5559,-2.538,-2.5041,-2.4711,-2.454,-2.455,-2.455,-2.454,-2.454,-2.454,-2.4529,-2.4615,-2.4625,-2.455,-2.455,-2.455,-2.455,-2.455,-2.455,-2.455,-2.455,-2.455,-2.4358,-2.381,-2.2129,-2.1239,-2.061,-1.9629,-1.9096,-1.8827,-1.8827,-1.8827,-1.8827,-1.8827,-1.8827,-1.8827,-1.8743,-1.8735,-1.8735,-1.8365,-1.8087,-3.6492,-3.6492,-3.6492,-3.6492,-3.6492,-3.6492,-3.6304,-3.6037,-3.6085,-3.5925,-3.5619,-3.5589,-3.5604,-3.5489,-3.5489,-3.5489,-3.5489,-3.5489,-3.5489,-3.5489,-3.5489,-3.5489,-3.5489,-3.5489,-3.5424,-3.5052,-3.4528,-3.423,-3.3973,-3.3504,-3.25,-3.1225,-3.0569,-2.9685,-2.8407,-2.768,-2.7469,-2.7469,-2.7469,-2.7469,-2.7719,-2.8425,-2.8948,-2.9118,-3.0111,-3.0516,-3.0451,-3.0751,-3.0973,-3.0986,-3.0986,-3.0986,-3.0986,-3.0986,-3.0986,-3.0672,-2.9549,-2.8664,-2.8187,-2.7162,-2.6146,-2.5979,-2.5895,-2.5895,-2.5895,-2.5895,-2.5895,-2.5895,-2.5895,-2.5895,-2.5895,-2.5895,-2.5895,-2.5812,-2.5728,-2.5559,-2.5391,-2.5041,-2.4786,-2.4625,-2.454,-2.4625,-2.4796,-2.4625,-2.4615,-2.469,-2.47,-2.454,-2.455,-2.455,-2.455,-2.455,-2.455,-2.455,-2.455,-2.4454,-2.4176,-2.3724,-2.2217,-2.0881,-2.0249,-1.9538,-1.9004,-1.8827,-1.8827,-1.8827,-1.8827,-1.8827,-1.8827,-1.8735,-1.8743,-1.8735,-1.8643,-1.8365,-1.8179,-3.6492,-3.6492,-3.6492,-3.6492,-3.6492,-3.6492,-3.6352,-3.6148,-3.6148,-3.5958,-3.5653,-3.5688,-3.5638,-3.5489,-3.5489,-3.5489,-3.5489,-3.5489,-3.5489,-3.5489,-3.5554,-3.5589,-3.5589,-3.5668,-3.5668,-3.5524,-3.5118,-3.489,-3.481,-3.4389,-3.3499,-3.1853,-3.1193,-3.0009,-2.8612,-2.7801,-2.7549,-2.7469,-2.7469,-2.7469,-2.7693,-2.8085,-2.8843,-2.9209,-2.9902,-3.0202,-3.0568,-3.0803,-3.096,-3.0986,-3.0986,-3.0986,-3.0986,-3.0986,-3.0986,-3.0748,-2.9858,-2.8821,-2.8187,-2.7255,-2.6385,-2.5895,-2.5895,-2.5895,-2.5895,-2.5895,-2.5895,-2.5895,-2.5895,-2.5895,-2.5895,-2.5895,-2.5895,-2.5895,-2.5822,-2.5728,-2.5559,-2.5295,-2.4946,-2.4786,-2.47,-2.4786,-2.4786,-2.4796,-2.4786,-2.4861,-2.4861,-2.47,-2.455,-2.455,-2.455,-2.455,-2.455,-2.455,-2.455,-2.4358,-2.3993,-2.3367,-2.2217,-2.115,-2.043,-1.9629,-1.8827,-1.8827,-1.8827,-1.8827,-1.8827,-1.8827,-1.8827,-1.8827,-1.8827,-1.8827,-1.8735,-1.855,-1.8465,-3.6492,-3.6492,-3.6492,-3.6492,-3.6492,-3.6492,-3.6352,-3.6211,-3.6211,-3.6085,-3.5831,-3.5752,-3.5703,-3.5554,-3.5539,-3.5489,-3.5489,-3.5489,-3.5489,-3.5489,-3.5604,-3.5638,-3.5703,-3.5767,-3.5831,-3.5752,-3.5589,-3.5589,-3.5574,-3.5449,-3.4295,-3.2788,-3.1809,-3.0488,-2.8888,-2.7868,-2.7469,-2.7469,-2.7469,-2.7469,-2.7589,-2.7745,-2.8373,-2.9118,-2.9562,-2.9993,-3.0568,-3.0869,-3.0986,-3.0986,-3.0986,-3.0986,-3.0986,-3.0986,-3.0986,-3.0986,-3.0101,-2.9381,-2.8664,-2.773,-2.6787,-2.6135,-2.5895,-2.5895,-2.5895,-2.5895,-2.5895,-2.5895,-2.5895,-2.5895,-2.5895,-2.5895,-2.5895,-2.5895,-2.5895,-2.5822,-2.5644,-2.5464,-2.5211,-2.5031,-2.4956,-2.4956,-2.5041,-2.5041,-2.4946,-2.4946,-2.4946,-2.4871,-2.4625,-2.455,-2.455,-2.455,-2.455,-2.409,-2.4003,-2.3474,-2.328,-2.2746,-2.1863,-2.115,-2.0339,-1.9446,-1.8827,-1.8827,-1.8827,-1.8827,-1.8827,-1.8827,-1.8827,-1.8827,-1.8827,-1.8827,-1.8827,-1.8743,-1.8658,-3.6492,-3.6492,-3.6492,-3.6492,-3.6492,-3.6492,-3.6414,-3.6274,-3.6352,-3.6226,-3.5973,-3.607,-3.5943,-3.5752,-3.5688,-3.5604,-3.5489,-3.5489,-3.5489,-3.5489,-3.5539,-3.5589,-3.5752,-3.5816,-3.5879,-3.6022,-3.5973,-3.591,-3.5767,-3.5578,-3.4837,-3.3383,-3.2211,-3.0797,-2.9531,-2.8199,-2.7748,-2.7774,-2.7695,-2.7615,-2.7615,-2.7902,-2.8438,-2.9209,-2.9588,-3.0019,-3.0346,-3.0764,-3.0986,-3.0986,-3.0986,-3.0986,-3.0986,-3.0986,-3.0986,-3.0823,-3.0266,-2.9704,-2.9225,-2.8051,-2.7336,-2.6857,-2.6302,-2.5895,-2.5895,-2.5895,-2.5895,-2.5895,-2.5895,-2.5895,-2.5895,-2.5895,-2.5895,-2.5895,-2.5906,-2.5906,-2.5812,-2.5728,-2.5549,-2.5285,-2.52,-2.5211,-2.5211,-2.5211,-2.5211,-2.5126,-2.5126,-2.4956,-2.4711,-2.454,-2.454,-2.454,-2.455,-2.3907,-2.3444,-2.2668,-2.2138,-2.1854,-2.123,-2.0881,-1.9985,-1.9271,-1.8827,-1.9096,-1.9004,-1.8827,-1.8827,-1.8827,-1.8827,-1.8827,-1.8827,-1.8827,-1.8735,-1.8743,-1.8658,-3.6492,-3.6492,-3.6492,-3.6492,-3.6492,-3.6492,-3.6414,-3.6352,-3.6414,-3.6352,-3.6211,-3.6133,-3.6085,-3.5894,-3.5752,-3.5653,-3.5554,-3.5489,-3.5489,-3.5489,-3.5539,-3.5718,-3.5831,-3.5879,-3.6085,-3.6274,-3.6289,-3.6163,-3.5958,-3.5752,-3.5149,-3.4199,-3.305,-3.2017,-3.0858,-2.9452,-2.8718,-2.8625,-2.8412,-2.8092,-2.7709,-2.7957,-2.8386,-2.9144,-2.9575,-2.9967,-3.0581,-3.0777,-3.0986,-3.0986,-3.0986,-3.0986,-3.0986,-3.0986,-3.0986,-3.0898,-3.0583,-3.0101,-2.9704,-2.8518,-2.7718,-2.7103,-2.6385,-2.5979,-2.5895,-2.5895,-2.5895,-2.5895,-2.5895,-2.5895,-2.5895,-2.5895,-2.5895,-2.5895,-2.5895,-2.5895,-2.5895,-2.5895,-2.5728,-2.5549,-2.5464,-2.5464,-2.5475,-2.5475,-2.5475,-2.538,-2.5295,-2.5041,-2.47,-2.47,-2.4625,-2.4358,-2.4272,-2.3907,-2.327,-2.257,-2.1872,-2.1507,-2.1141,-2.0701,-2.0348,-1.9812,-1.9629,-1.972,-1.9446,-1.8827,-1.8827,-1.8827,-1.8827,-1.8827,-1.8827,-1.8827,-1.8735,-1.8743,-1.8658,-3.6492,-3.6492,-3.6492,-3.6492,-3.6492,-3.6492,-3.6492,-3.6492,-3.6492,-3.6414,-3.6274,-3.6274,-3.6211,-3.6022,-3.5831,-3.5638,-3.5554,-3.5554,-3.5489,-3.5504,-3.5604,-3.5767,-3.5958,-3.6163,-3.6226,-3.6414,-3.6492,-3.6491,-3.6362,-3.6019,-3.5589,-3.4951,-3.4212,-3.3325,-3.2378,-3.0872,-3.0335,-2.9989,-2.9658,-2.9013,-2.8385,-2.8236,-2.8589,-2.9469,-2.9529,-3.0053,-3.0878,-3.096,-3.0986,-3.0986,-3.0986,-3.0986,-3.0986,-3.0986,-3.0986,-3.0986,-3.0986,-3.057,-3.0012,-2.9225,-2.8359,-2.7649,-2.6704,-2.6229,-2.5895,-2.5895,-2.5895,-2.5895,-2.5895,-2.5895,-2.5895,-2.5895,-2.5895,-2.5895,-2.5895,-2.5895,-2.5895,-2.5895,-2.5895,-2.5812,-2.5728,-2.5644,-2.5644,-2.5644,-2.5644,-2.5475,-2.5475,-2.5295,-2.5041,-2.4871,-2.47,-2.4262,-2.3993,-2.3724,-2.328,-2.2833,-2.2306,-2.1863,-2.1774,-2.1507,-2.115,-2.0701,-2.052,-2.0158,-1.9363,-1.8827,-1.8827,-1.8827,-1.8827,-1.8827,-1.8827,-1.8827,-1.8827,-1.8735,-1.8743,-3.6492,-3.6492,-3.6492,-3.6492,-3.6492,-3.6492,-3.6492,-3.6492,-3.6492,-3.6492,-3.6429,-3.6429,-3.6352,-3.6148,-3.5879,-3.5688,-3.5638,-3.5604,-3.5554,-3.5569,-3.5619,-3.5733,-3.5973,-3.6037,-3.6226,-3.6429,-3.6492,-3.6783,-3.6809,-3.6392,-3.6201,-3.5959,-3.4807,-3.3859,-3.3627,-3.2328,-3.1754,-3.1596,-3.094,-3.0269,-2.9763,-2.9957,-3.0179,-3.0334,-3.0381,-3.0487,-3.1093,-3.1136,-3.1061,-3.0986,-3.0986,-3.0986,-3.0986,-3.0986,-3.0986,-3.0986,-3.0986,-3.0898,-3.0659,-2.9858,-2.8991,-2.8199,-2.7418,-2.6704,-2.6146,-2.5895,-2.5895,-2.5895,-2.5895,-2.5895,-2.5895,-2.5895,-2.5895,-2.5895,-2.5895,-2.5895,-2.5895,-2.5895,-2.5895,-2.5895,-2.5812,-2.5812,-2.5812,-2.5812,-2.5812,-2.5654,-2.5559,-2.538,-2.52,-2.5031,-2.4786,-2.4444,-2.3907,-2.3551,-2.3551,-2.3105,-2.2843,-2.2482,-2.2492,-2.2403,-2.2041,-2.1686,-2.0791,-2.0339,-1.9446,-1.9004,-1.9096,-1.9096,-1.892,-1.8827,-1.8827,-1.8827,-1.8827,-1.8827,-1.8827,-3.6492,-3.6492,-3.6492,-3.6492,-3.6492,-3.6492,-3.6492,-3.6492,-3.6492,-3.6492,-3.6492,-3.6492,-3.6414,-3.6211,-3.6006,-3.5943,-3.5894,-3.5782,-3.5797,-3.5733,-3.5812,-3.5925,-3.61,-3.6148,-3.6289,-3.6429,-3.6569,-3.6861,-3.6934,-3.6672,-3.6283,-3.6246,-3.5661,-3.5153,-3.4733,-3.377,-3.3071,-3.2377,-3.1344,-3.0596,-3.0535,-3.0489,-3.0441,-3.0677,-3.0631,-3.0891,-3.1127,-3.1272,-3.1136,-3.1061,-3.0986,-3.0986,-3.0986,-3.0986,-3.0986,-3.0986,-3.0986,-3.0986,-3.0898,-3.0177,-2.9381,-2.8426,-2.7649,-2.6787,-2.6146,-2.5895,-2.5895,-2.5895,-2.5895,-2.5895,-2.5895,-2.5895,-2.5895,-2.5895,-2.5895,-2.5895,-2.5895,-2.5895,-2.5895,-2.5895,-2.5895,-2.5895,-2.5895,-2.5895,-2.5895,-2.5822,-2.5738,-2.5644,-2.538,-2.5126,-2.4871,-2.454,-2.3917,-2.3367,-2.3551,-2.3454,-2.3551,-2.3377,-2.356,-2.3474,-2.3115,-2.258,-2.1596,-2.0701,-1.9985,-1.972,-1.9538,-1.9188,-1.8827,-1.8827,-1.8827,-1.8827,-1.8827,-1.8827,-1.8827,-3.6492,-3.6492,-3.6492,-3.6492,-3.6492,-3.6492,-3.6492,-3.6492,-3.6492,-3.6492,-3.6492,-3.6492,-3.6414,-3.6274,-3.6196,-3.6133,-3.6022,-3.6037,-3.5988,-3.5988,-3.6052,-3.6085,-3.6148,-3.6211,-3.6274,-3.6492,-3.6492,-3.6738,-3.6813,-3.6658,-3.6365,-3.641,-3.6161,-3.5991,-3.5806,-3.5142,-3.4382,-3.3374,-3.237,-3.1792,-3.148,-3.1074,-3.0985,-3.1021,-3.1042,-3.1116,-3.1429,-3.136,-3.1286,-3.1136,-3.1061,-3.1061,-3.1061,-3.0986,-3.0986,-3.0986,-3.0986,-3.0986,-3.0898,-3.0419,-2.9471,-2.8518,-2.7406,-2.6456,-2.6063,-2.5895,-2.5895,-2.5895,-2.5895,-2.5895,-2.5895,-2.5895,-2.5895,-2.5895,-2.5895,-2.5895,-2.5895,-2.5895,-2.5895,-2.5895,-2.5895,-2.5895,-2.5895,-2.5895,-2.5895,-2.5895,-2.5906,-2.5822,-2.5559,-2.5211,-2.4956,-2.4711,-2.4433,-2.3897,-2.382,-2.3993,-2.4003,-2.3917,-2.41,-2.4003,-2.3377,-2.2755,-2.1863,-2.115,-2.052,-1.9894,-1.9546,-1.9188,-1.8827,-1.8827,-1.8827,-1.8827,-1.8827,-1.8827,-1.8827,-3.6492,-3.6492,-3.6492,-3.6492,-3.6492,-3.6492,-3.6492,-3.6492,-3.6492,-3.6492,-3.6492,-3.6492,-3.6492,-3.6414,-3.6274,-3.6211,-3.6211,-3.6037,-3.6052,-3.6052,-3.6052,-3.6148,-3.6211,-3.6274,-3.6352,-3.6492,-3.6492,-3.6538,-3.6584,-3.663,-3.6704,-3.6975,-3.6551,-3.6335,-3.618,-3.5854,-3.5175,-3.4464,-3.3808,-3.3199,-3.2657,-3.2236,-3.2326,-3.2015,-3.1869,-3.185,-3.1817,-3.1669,-3.1434,-3.1272,-3.1198,-3.1198,-3.1136,-3.1136,-3.1136,-3.1136,-3.1136,-3.1061,-3.0898,-3.0748,-3.0024,-2.8585,-2.7162,-2.6302,-2.6135,-2.5979,-2.5895,-2.5895,-2.5895,-2.5895,-2.5895,-2.5895,-2.5895,-2.5895,-2.5895,-2.5895,-2.5895,-2.5895,-2.5895,-2.5895,-2.5895,-2.5895,-2.5895,-2.5895,-2.5895,-2.5895,-2.5906,-2.5822,-2.5738,-2.5391,-2.5211,-2.4956,-2.4861,-2.4605,-2.4444,-2.4358,-2.4176,-2.3724,-2.3551,-2.3464,-2.3105,-2.2394,-2.1507,-2.1418,-2.0791,-2.0175,-1.9546,-1.9096,-1.8827,-1.8827,-1.8827,-1.8827,-1.8827,-1.8827,-1.8827,-3.6492,-3.6492,-3.6492,-3.6492,-3.6492,-3.6492,-3.6492,-3.6492,-3.6492,-3.6492,-3.6492,-3.6492,-3.6492,-3.6492,-3.6414,-3.6352,-3.6352,-3.6367,-3.6304,-3.6304,-3.6289,-3.6352,-3.6352,-3.6352,-3.6429,-3.6492,-3.6492,-3.6492,-3.6507,-3.6492,-3.6569,-3.6614,-3.6599,-3.646,-3.6352,-3.6085,-3.5544,-3.4971,-3.4311,-3.341,-3.3127,-3.2536,-3.2413,-3.2223,-3.2169,-3.2036,-3.1904,-3.183,-3.1596,-3.136,-3.1198,-3.1272,-3.1347,-3.136,-3.136,-3.1347,-3.1347,-3.1198,-3.0986,-3.0986,-3.0419,-2.9303,-2.781,-2.6704,-2.6539,-2.6218,-2.5979,-2.5895,-2.5895,-2.5895,-2.5895,-2.5895,-2.5895,-2.5895,-2.5895,-2.5895,-2.5895,-2.5895,-2.5895,-2.5895,-2.5895,-2.5895,-2.5895,-2.5895,-2.5895,-2.5895,-2.5906,-2.5822,-2.5738,-2.5654,-2.5391,-2.5211,-2.5115,-2.5031,-2.4786,-2.4519,-2.4166,-2.3714,-2.3183,-2.3096,-2.2833,-2.1498,-2.0791,-2.097,-2.097,-2.0257,-1.9538,-1.918,-1.8912,-1.8819,-1.8827,-1.8827,-1.8827,-1.8827,-1.8827,-3.6492,-3.6492,-3.6492,-3.6492,-3.6492,-3.6492,-3.6492,-3.6492,-3.6492,-3.6492,-3.6492,-3.6492,-3.6492,-3.6492,-3.6492,-3.6492,-3.6492,-3.6492,-3.6492,-3.6492,-3.6492,-3.6492,-3.6492,-3.6492,-3.6492,-3.6492,-3.6492,-3.6492,-3.6492,-3.6492,-3.6522,-3.6538,-3.6492,-3.6492,-3.6352,-3.6006,-3.5608,-3.5124,-3.4312,-3.3353,-3.3157,-3.2588,-3.2209,-3.2169,-3.2169,-3.2109,-3.2036,-3.1963,-3.1803,-3.1582,-3.1434,-3.1434,-3.1508,-3.1656,-3.1656,-3.1643,-3.1482,-3.1421,-3.1123,-3.0659,-3.0343,-2.9471,-2.8426,-2.7568,-2.7103,-2.6456,-2.5979,-2.5895,-2.5895,-2.5895,-2.5895,-2.5895,-2.5895,-2.5895,-2.5895,-2.5895,-2.5895,-2.5895,-2.5895,-2.5895,-2.5895,-2.5895,-2.5895,-2.5895,-2.5895,-2.5895,-2.5906,-2.5906,-2.5822,-2.5738,-2.5559,-2.538,-2.5295,-2.5211,-2.5041,-2.4775,-2.4509,-2.3897,-2.3444,-2.3183,-2.2561,-2.132,-2.0791,-2.1248,-2.1069,-2.0257,-1.9803,-1.9629,-1.9271,-1.8912,-1.8819,-1.8827,-1.8827,-1.8827,-1.8827,-3.6492,-3.6492,-3.6492,-3.6492,-3.6492,-3.6492,-3.6492,-3.6492,-3.6492,-3.6492,-3.6492,-3.6492,-3.6492,-3.6492,-3.6492,-3.6492,-3.6492,-3.6492,-3.6492,-3.6492,-3.6492,-3.6492,-3.6492,-3.6492,-3.6492,-3.6492,-3.6492,-3.6492,-3.6492,-3.6492,-3.6492,-3.6492,-3.6492,-3.6492,-3.6492,-3.6492,-3.6085,-3.54,-3.4647,-3.3959,-3.3367,-3.2717,-3.2372,-3.2169,-3.2169,-3.2169,-3.2182,-3.2109,-3.195,-3.1817,-3.1743,-3.1743,-3.1669,-3.1669,-3.1669,-3.1669,-3.1495,-3.1347,-3.1272,-3.033,-3.0024,-2.9858,-2.8978,-2.8267,-2.7336,-2.655,-2.5979,-2.6063,-2.5895,-2.5895,-2.5895,-2.5895,-2.5895,-2.5895,-2.5895,-2.5895,-2.5895,-2.5895,-2.5895,-2.5895,-2.5895,-2.5895,-2.5895,-2.5895,-2.5895,-2.5895,-2.5895,-2.5906,-2.5822,-2.5822,-2.5728,-2.5549,-2.5464,-2.538,-2.5295,-2.5115,-2.4765,-2.4155,-2.3541,-2.3008,-2.2736,-2.2031,-2.1774,-2.1784,-2.1516,-2.097,-2.061,-2.0257,-1.972,-1.9088,-1.8912,-1.8827,-1.8827,-1.8827,-1.8827,-3.6492,-3.6492,-3.6492,-3.6492,-3.6492,-3.6492,-3.6492,-3.6492,-3.6492,-3.6492,-3.6492,-3.6492,-3.6492,-3.6492,-3.6492,-3.6492,-3.6492,-3.6492,-3.6492,-3.6492,-3.6492,-3.6492,-3.6492,-3.6492,-3.6492,-3.6492,-3.6492,-3.6492,-3.6492,-3.6492,-3.6492,-3.6492,-3.6492,-3.6492,-3.6492,-3.6492,-3.6289,-3.6022,-3.54,-3.4714,-3.3973,-3.3227,-3.2632,-3.2241,-3.2241,-3.2169,-3.2169,-3.2169,-3.2109,-3.1963,-3.189,-3.189,-3.1963,-3.1963,-3.1963,-3.1963,-3.1877,-3.1643,-3.1347,-3.081,-3.0583,-3.033,-2.9845,-2.9135,-2.8438,-2.6775,-2.629,-2.6135,-2.5979,-2.5979,-2.5895,-2.5895,-2.5895,-2.5895,-2.5895,-2.5895,-2.5895,-2.5895,-2.5895,-2.5895,-2.5895,-2.5895,-2.5895,-2.5895,-2.5895,-2.5895,-2.5895,-2.5895,-2.5906,-2.5895,-2.5812,-2.5728,-2.5633,-2.5644,-2.5464,-2.5285,-2.5031,-2.4584,-2.3531,-2.2473,-2.2296,-2.2296,-2.1943,-2.1606,-2.1774,-2.1863,-2.115,-2.0339,-1.9803,-1.9363,-1.9004,-1.8827,-1.8827,-1.8827,-1.8827,-3.6662,-3.6492,-3.6492,-3.6492,-3.6492,-3.6492,-3.6492,-3.6492,-3.6492,-3.6492,-3.6492,-3.6492,-3.6492,-3.6492,-3.6492,-3.6492,-3.6492,-3.6492,-3.6492,-3.6492,-3.6492,-3.6492,-3.6492,-3.6492,-3.6492,-3.6492,-3.6492,-3.6492,-3.6492,-3.6492,-3.6492,-3.6492,-3.6492,-3.6492,-3.6492,-3.6492,-3.6492,-3.6211,-3.5672,-3.5124,-3.4514,-3.3768,-3.296,-3.2632,-3.2372,-3.2169,-3.2169,-3.2169,-3.2169,-3.2036,-3.2036,-3.2036,-3.2169,-3.2169,-3.2169,-3.2169,-3.2096,-3.179,-3.1347,-3.1198,-3.0973,-3.0898,-3.0558,-2.9845,-2.9069,-2.7879,-2.6846,-2.6456,-2.6135,-2.5979,-2.5895,-2.5895,-2.5895,-2.5895,-2.5895,-2.5895,-2.5895,-2.5895,-2.5895,-2.5895,-2.5895,-2.5895,-2.5895,-2.5895,-2.5895,-2.5895,-2.5895,-2.5895,-2.5895,-2.5895,-2.5895,-2.5812,-2.5728,-2.5728,-2.5633,-2.5369,-2.52,-2.502,-2.4049,-2.2824,-2.2385,-2.2473,-2.1952,-2.1329,-2.1329,-2.1239,-2.097,-2.043,-1.972,-1.918,-1.8912,-1.8827,-1.8827,-1.8827,-1.8827,-3.7027,-3.6523,-3.6476,-3.6492,-3.6492,-3.6554,-3.6554,-3.6492,-3.6492,-3.6492,-3.6492,-3.6492,-3.6492,-3.6492,-3.6492,-3.6492,-3.6492,-3.6492,-3.6492,-3.6492,-3.6492,-3.6492,-3.6492,-3.6492,-3.6492,-3.6492,-3.6492,-3.6492,-3.6492,-3.6492,-3.6492,-3.6492,-3.6492,-3.6492,-3.6492,-3.6492,-3.6492,-3.6289,-3.6022,-3.5529,-3.4978,-3.4177,-3.3492,-3.3087,-3.2775,-3.2444,-3.2386,-3.2314,-3.2241,-3.2241,-3.2169,-3.2169,-3.2169,-3.2169,-3.2169,-3.2169,-3.2023,-3.173,-3.1508,-3.1421,-3.1198,-3.1061,-3.0986,-3.0012,-2.9213,-2.8664,-2.7867,-2.6846,-2.6218,-2.6052,-2.5979,-2.5895,-2.5895,-2.5895,-2.5895,-2.5895,-2.5895,-2.5895,-2.5895,-2.5895,-2.5895,-2.5895,-2.5895,-2.5895,-2.5895,-2.5895,-2.5895,-2.5895,-2.5895,-2.5895,-2.5895,-2.5895,-2.5895,-2.5895,-2.5728,-2.538,-2.538,-2.5285,-2.4946,-2.4059,-2.3444,-2.2921,-2.2658,-2.2208,-2.1141,-2.0701,-2.061,-2.0167,-1.9455,-1.9096,-1.8827,-1.8827,-1.8827,-1.8827,-1.8827,-3.6499,-3.6369,-3.6461,-3.6492,-3.6554,-3.6952,-3.6892,-3.6554,-3.6492,-3.6492,-3.6492,-3.6492,-3.6492,-3.6492,-3.6492,-3.6492,-3.6492,-3.6492,-3.6492,-3.6492,-3.6492,-3.6492,-3.6492,-3.6492,-3.6492,-3.6492,-3.6492,-3.6492,-3.6492,-3.6492,-3.6492,-3.6492,-3.6492,-3.6492,-3.6492,-3.6492,-3.6492,-3.6429,-3.6226,-3.5879,-3.5529,-3.4861,-3.4163,-3.3561,-3.3575,-3.3101,-3.2646,-3.2704,-3.2632,-3.2314,-3.2241,-3.2169,-3.2169,-3.2169,-3.2169,-3.2286,-3.2082,-3.189,-3.1877,-3.1569,-3.1272,-3.1198,-3.1136,-3.0685,-2.9947,-2.9369,-2.873,-2.7557,-2.6539,-2.6302,-2.6135,-2.6063,-2.5979,-2.5895,-2.5895,-2.5895,-2.5895,-2.5895,-2.5895,-2.5895,-2.5895,-2.5895,-2.5895,-2.5895,-2.5895,-2.5895,-2.5895,-2.5895,-2.5895,-2.5895,-2.5895,-2.5895,-2.5895,-2.5895,-2.5728,-2.538,-2.5475,-2.5475,-2.5126,-2.4861,-2.4241,-2.38,-2.3714,-2.3096,-2.2041,-2.115,-2.043,-2.0076,-2.0085,-1.9188,-1.8827,-1.8827,-1.8827,-1.8827,-1.8827,-3.6286,-3.6253,-3.6648,-3.6911,-3.7266,-3.7562,-3.7519,-3.7222,-3.6937,-3.6785,-3.6492,-3.6492,-3.6492,-3.6492,-3.6492,-3.6492,-3.6492,-3.6492,-3.6492,-3.6492,-3.6492,-3.6492,-3.6492,-3.6492,-3.6492,-3.6492,-3.6492,-3.6492,-3.6492,-3.6492,-3.6492,-3.6492,-3.6492,-3.6492,-3.6492,-3.6492,-3.6492,-3.6492,-3.6429,-3.6211,-3.5943,-3.5529,-3.478,-3.423,-3.4365,-3.3699,-3.3115,-3.3297,-3.2889,-3.2574,-3.2444,-3.2169,-3.2241,-3.2241,-3.2241,-3.2286,-3.2372,-3.2169,-3.2023,-3.1877,-3.1582,-3.1434,-3.1211,-3.1048,-3.0735,-3.0241,-2.9213,-2.8119,-2.7174,-2.6467,-2.6302,-2.6218,-2.6063,-2.5895,-2.5895,-2.5895,-2.5895,-2.5895,-2.5895,-2.5895,-2.5895,-2.5895,-2.5895,-2.5895,-2.5895,-2.5895,-2.5895,-2.5895,-2.5895,-2.5895,-2.5895,-2.5895,-2.5895,-2.5895,-2.5644,-2.5549,-2.5644,-2.5559,-2.5211,-2.4861,-2.468,-2.4059,-2.3357,-2.3105,-2.3028,-2.205,-2.097,-2.1159,-2.1069,-2.0085,-1.9279,-1.9279,-1.9096,-1.8827,-1.8827,-3.6039,-3.6034,-3.6799,-3.7429,-3.8124,-3.8172,-3.8205,-3.823,-3.7748,-3.7178,-3.6723,-3.6492,-3.6492,-3.6492,-3.6492,-3.6492,-3.6492,-3.6492,-3.6492,-3.6492,-3.6492,-3.6492,-3.6492,-3.6492,-3.6492,-3.6492,-3.6492,-3.6492,-3.6492,-3.6492,-3.6492,-3.6492,-3.6492,-3.6492,-3.6492,-3.6492,-3.6492,-3.6492,-3.6492,-3.6414,-3.6274,-3.5864,-3.54,-3.5124,-3.4714,-3.4245,-3.3973,-3.363,-3.3227,-3.2974,-3.2646,-3.2241,-3.2241,-3.23,-3.23,-3.2372,-3.2431,-3.2444,-3.2241,-3.2096,-3.189,-3.1669,-3.1447,-3.136,-3.1123,-3.081,-2.9858,-2.8767,-2.7822,-2.7103,-2.6857,-2.6302,-2.5979,-2.5895,-2.5895,-2.5895,-2.5895,-2.5895,-2.5895,-2.5895,-2.5895,-2.5895,-2.5895,-2.5895,-2.5895,-2.5895,-2.5895,-2.5895,-2.5895,-2.5895,-2.5895,-2.5895,-2.5895,-2.5895,-2.5895,-2.5812,-2.5812,-2.5644,-2.5295,-2.5031,-2.4946,-2.3973,-2.2736,-2.2921,-2.3105,-2.2403,-2.1606,-2.1695,-2.1516,-2.0889,-2.0257,-1.9994,-1.9637,-1.9363,-1.8912,-3.5295,-3.5376,-3.6088,-3.6759,-3.734,-3.792,-3.815,-3.82,-3.8635,-3.8092,-3.7238,-3.6723,-3.6492,-3.6492,-3.6492,-3.6492,-3.6492,-3.6492,-3.6492,-3.6492,-3.6492,-3.6492,-3.6492,-3.6492,-3.6492,-3.6492,-3.6492,-3.6492,-3.6492,-3.6492,-3.6492,-3.6492,-3.6492,-3.6492,-3.6492,-3.6492,-3.6492,-3.6492,-3.6492,-3.6492,-3.6414,-3.6226,-3.5879,-3.5255,-3.4714,-3.4514,-3.4109,-3.3492,-3.3297,-3.3101,-3.2516,-3.2241,-3.2169,-3.2359,-3.2489,-3.2574,-3.2489,-3.2489,-3.2503,-3.2241,-3.2036,-3.1963,-3.1817,-3.1596,-3.1447,-3.1136,-3.0508,-2.9484,-2.8542,-2.781,-2.7174,-2.6539,-2.5979,-2.5979,-2.5895,-2.5895,-2.5895,-2.5895,-2.5895,-2.5895,-2.5895,-2.5895,-2.5895,-2.5895,-2.5895,-2.5895,-2.5895,-2.5895,-2.5895,-2.5895,-2.5895,-2.5895,-2.5895,-2.5895,-2.5895,-2.5895,-2.5895,-2.5895,-2.5644,-2.538,-2.5115,-2.4327,-2.3444,-2.3173,-2.2999,-2.2482,-2.2138,-2.1784,-2.1516,-2.1248,-2.1239,-2.0979,-2.0799,-2.0619,-1.9812,-3.4704,-3.5069,-3.6025,-3.6804,-3.7402,-3.7853,-3.802,-3.8087,-3.8515,-3.8155,-3.7355,-3.7021,-3.6785,-3.6554,-3.6492,-3.6492,-3.6492,-3.6492,-3.6492,-3.6492,-3.6492,-3.6492,-3.6492,-3.6492,-3.6492,-3.6492,-3.6492,-3.6492,-3.6492,-3.6492,-3.6492,-3.6492,-3.6492,-3.6492,-3.6492,-3.6492,-3.6492,-3.6492,-3.6492,-3.6492,-3.6492,-3.6367,-3.6226,-3.5593,-3.54,-3.519,-3.4993,-3.4447,-3.4177,-3.3837,-3.3241,-3.2516,-3.2372,-3.2286,-3.2417,-3.2503,-3.2503,-3.2632,-3.2561,-3.2431,-3.2169,-3.2169,-3.1963,-3.1743,-3.1743,-3.1434,-3.1149,-3.0126,-2.8767,-2.7959,-2.758,-2.694,-2.6633,-2.6467,-2.6146,-2.5895,-2.5895,-2.5895,-2.5895,-2.5895,-2.5895,-2.5895,-2.5895,-2.5895,-2.5895,-2.5895,-2.5895,-2.5895,-2.5895,-2.5895,-2.5895,-2.5895,-2.5895,-2.5895,-2.5895,-2.5895,-2.5895,-2.5895,-2.5895,-2.5464,-2.4935,-2.468,-2.4327,-2.3714,-2.327,-2.3105,-2.2668,-2.2129,-2.1872,-2.1606,-2.1784,-2.205,-2.1872,-2.1516,-2.0709,-3.4415,-3.5074,-3.6165,-3.6992,-3.7601,-3.7719,-3.7753,-3.7776,-3.797,-3.7785,-3.7261,-3.7297,-3.6993,-3.6662,-3.6492,-3.6492,-3.6492,-3.6492,-3.6492,-3.6492,-3.6492,-3.6492,-3.6492,-3.6492,-3.6492,-3.6492,-3.6492,-3.6492,-3.6492,-3.6492,-3.6492,-3.6492,-3.6492,-3.6492,-3.6492,-3.6492,-3.6492,-3.6492,-3.6492,-3.6492,-3.6492,-3.6492,-3.6289,-3.6352,-3.6352,-3.6352,-3.6085,-3.5737,-3.5255,-3.478,-3.3905,-3.2974,-3.2431,-3.2359,-3.2359,-3.2431,-3.2574,-3.2632,-3.2561,-3.2489,-3.2417,-3.2359,-3.2096,-3.1963,-3.189,-3.1743,-3.1447,-3.0659,-2.9381,-2.8518,-2.8131,-2.7499,-2.7267,-2.6787,-2.6385,-2.5895,-2.5895,-2.5895,-2.5895,-2.5895,-2.5895,-2.5895,-2.5895,-2.5895,-2.5895,-2.5895,-2.5895,-2.5895,-2.5895,-2.5895,-2.5895,-2.5895,-2.5895,-2.5895,-2.5895,-2.5895,-2.5895,-2.5895,-2.5812,-2.5285,-2.485,-2.468,-2.4251,-2.3647,-2.3299,-2.2843,-2.2755,-2.2394,-2.2138,-2.1695,-2.1872,-2.1961,-2.1695,-2.1338,-2.1248,-3.4771,-3.5639,-3.5881,-3.6112,-3.6333,-3.6842,-3.7051,-3.711,-3.7675,-3.7668,-3.7275,-3.7189,-3.6933,-3.6476,-3.6492,-3.6492,-3.6492,-3.6492,-3.6492,-3.6492,-3.6492,-3.6492,-3.6492,-3.6492,-3.6492,-3.6492,-3.6492,-3.6492,-3.6492,-3.6492,-3.6492,-3.6492,-3.6492,-3.6492,-3.6492,-3.6492,-3.6492,-3.6492,-3.6492,-3.6492,-3.6492,-3.6352,-3.607,-3.5879,-3.5608,-3.5593,-3.5385,-3.4846,-3.4993,-3.4795,-3.4109,-3.3157,-3.2618,-3.2417,-3.2417,-3.2489,-3.2632,-3.2704,-3.2632,-3.2489,-3.2489,-3.2489,-3.23,-3.2109,-3.2169,-3.2241,-3.1877,-3.1582,-3.0469,-2.9679,-2.9135,-2.8187,-2.7718,-2.7092,-2.6622,-2.6218,-2.5979,-2.5979,-2.5895,-2.5895,-2.5895,-2.5895,-2.5895,-2.5895,-2.5895,-2.5895,-2.5895,-2.5895,-2.5895,-2.5895,-2.5895,-2.5895,-2.5895,-2.5895,-2.5895,-2.5895,-2.5895,-2.5895,-2.5812,-2.5369,-2.502,-2.468,-2.4251,-2.3657,-2.2677,-2.1872,-2.1961,-2.2306,-2.1774,-2.1338,-2.1606,-2.1695,-2.1427,-2.1338,-2.1248]},{"header":{"parameterUnit":"m.s-1","parameterCategory":1,"la1":31.0,"la2":29.5877,"lo1":-88.7671,"lo2":-86.6584,"dy":0.0162,"dx":0.0185,"nx":115,"ny":88,"refTime":"2025-05-21T12:00:00:Z","depth":0,"parameterNumber":3,"parameterNumberName":"V-component_of_WINDS"},"data":[0.0,0.0,0.0,0.0,0.0,0.0,0.0,0.0,0.0,0.0,0.0,0.0,0.0,0.0,0.0,0.0,0.0,0.0,0.0,0.0,0.0,0.0,0.0,0.0,0.0,0.0,0.0,0.0,0.0,0.0,0.0,0.0,0.0,0.0,0.0,0.0,0.0,0.0,0.0,0.0,0.0,0.0,0.0,0.0,0.0,0.0,0.0,0.0,0.0,0.0,0.0,0.0,0.0,0.0,0.0,0.0,0.0,0.0,0.0,0.0,0.0,0.0,0.0,0.0,0.0,0.0,0.0,0.0,0.0,0.0,0.0,0.0,0.0,0.0,0.0,0.0,0.0,0.0,0.0,0.0,0.0,0.0,0.0,0.0,0.0,0.0,0.0,0.0,0.0,0.0,0.0,0.0,0.0,0.0,0.0,0.0,0.0,0.0,0.0,0.0,0.0,0.0,0.0,0.0,0.0,0.0,0.0,0.0,0.0,0.0,0.0,0.0,0.0,0.0,0.0,0.0,0.0,0.0,0.0,0.0,0.0,0.0,0.0,0.0,0.0,0.0,0.0,0.0,0.0,0.0,0.0,0.0,0.0,0.0,0.0,0.0,0.0,0.0,0.0,0.0,0.0,0.0,0.0,0.0,0.0,0.0,0.0,0.0,0.0,0.0,0.0,0.0,0.0,0.0,0.0,0.0,0.0,0.0,0.0,0.0,0.0,0.0,0.0,0.0,0.0,0.0,0.0,0.0,0.0,0.0,0.0,0.0,0.0,0.0,0.0,0.0,0.0,0.0,0.0,0.0,0.0,0.0,0.0,0.0,0.0,0.0,0.0,0.0,0.0,0.0,0.0,0.0,0.0,0.0,0.0,0.0,0.0,0.0,0.0,0.0,0.0,0.0,0.0,0.0,0.0,0.0,0.0,0.0,0.0,0.0,0.0,0.0,0.0,0.0,0.0,0.0,0.0,0.0,0.0,0.0,0.0,0.0,0.0,0.0,0.0,0.0,0.0,0.0,0.0,0.0,0.0,0.0,0.0,0.0,0.0,0.0,0.0,0.0,0.0,0.0,0.0,0.0,0.0,0.0,0.0,0.0,0.0,0.0,0.0,0.0,0.0,0.0,0.0,0.0,0.0,0.0,0.0,0.0,0.0,0.0,0.0,0.0,0.0,0.0,0.0,0.0,0.0,0.0,0.0,0.0,0.0,0.0,0.0,0.0,0.0,0.0,0.0,0.0,0.0,0.0,0.0,0.0,0.0,0.0,0.0,0.0,0.0,0.0,0.0,0.0,0.0,0.0,0.0,0.0,0.0,0.0,0.0,0.0,0.0,0.0,0.0,0.0,0.0,0.0,0.0,0.0,0.0,0.0,0.0,0.0,0.0,0.0,0.0,0.0,0.0,0.0,0.0,0.0,0.0,0.0,0.0,0.0,0.0,0.0,0.0,0.0,0.0,0.0,0.0,0.0,0.0,0.0,0.0,0.0,0.0,0.0,0.0,0.0,0.0,0.0,0.0,0.0,0.0,0.0,0.0,0.0,0.0,0.0,0.0,0.0,0.0,0.0,0.0,0.0,0.0,0.0,0.0,0.0,0.0,0.0,0.0,0.0,0.0,0.0,0.0,0.0,0.0,0.0,0.0,0.0,0.0,0.0,0.0,0.0,0.0,0.0,0.0,0.0,0.0,0.0,0.0,0.0,0.0,0.0,0.0,0.0,0.0,0.0,0.0,0.0,0.0,0.0,0.0,0.0,0.0,0.0,0.0,0.0,0.0,0.0,0.0,0.0,0.0,0.0,0.0,0.0,0.0,0.0,0.0,0.0,0.0,0.0,0.0,0.0,0.0,0.0,0.0,0.0,0.0,0.0,0.0,0.0,0.0,0.0,0.0,0.0,0.0,0.0,0.0,0.0,0.0,0.0,0.0,0.0,0.0,0.0,0.0,0.0,0.0,0.0,0.0,0.0,0.0,0.0,0.0,0.0,0.0,0.0,0.0,0.0,0.0,0.0,0.0,0.0,0.0,0.0,0.0,0.0,0.0,0.0,0.0,0.0,0.0,0.0,0.0,0.0,0.0,0.0,0.0,0.0,0.0,0.0,0.0,0.0,0.0,0.0,0.0,0.0,0.0,0.0,0.0,0.0,0.0,0.0,0.0,0.0,0.0,0.0,0.0,0.0,0.0,0.0,0.0,0.0,0.0,0.0,0.0,0.0,0.0,0.0,0.0,0.0,0.0,0.0,0.0,0.0,0.0,0.0,0.0,0.0,0.0,0.0,0.0,0.0,0.0,0.0,0.0,0.0,0.0,0.0,0.0,0.0,0.0,0.0,0.0,0.0,0.0,0.0,0.0,0.0,0.0,0.0,0.0,0.0,0.0,0.0,0.0,0.0,0.0,0.0,0.0,0.0,0.0,0.0,0.0,0.0,0.0,0.0,0.0,0.0,0.0,0.0,0.0,0.0,0.0,0.0,0.0,0.0,0.0,0.0,0.0,0.0,0.0,0.0,0.0,0.0,0.0,0.0,0.0,0.0,0.0,0.0,0.0,0.0,0.0,0.0,0.0,0.0,0.0,0.0,0.0,0.0,0.0,0.0,0.0,0.0,0.0,0.0,0.0,0.0,0.0,0.0,0.0,0.0,0.0,0.0,0.0,0.0,0.0,0.0,0.0,0.0,0.0,0.0,0.0,0.0,0.0,0.0,0.0,0.0,0.0,0.0,0.0,0.0,0.0,0.0,0.0,0.0,0.0,0.0,0.0,0.0,0.0,0.0,0.0,0.0,0.0,0.0,0.0,0.0,0.0,0.0,0.0,0.0,0.0,0.0,0.0,0.0,0.0,0.0,0.0,0.0,0.0,0.0,0.0,0.0,0.0,0.0,0.0,0.0,0.0,0.0,0.0,0.0,0.0,0.0,0.0,0.0,0.0,0.0,0.0,0.0,0.0,0.0,0.0,0.0,0.0,0.0,0.0,0.0,0.0,0.0,0.0,0.0,0.0,0.0,0.0,0.0,0.0,0.0,0.0,0.0,0.0,0.0,0.0,0.0,0.0,0.0,0.0,0.0,0.0,0.0,0.0,0.0,0.0,0.0,0.0,0.0,0.0,0.0,0.0,0.0,0.0,0.0,0.0,0.0,0.0,0.0,0.0,0.0,0.0,0.0,0.0,0.0,0.0,0.0,0.0,0.0,0.0,0.0,0.0,0.0,0.0,0.0,0.0,0.0,0.0,0.0,0.0,0.0,0.0,0.0,0.0,0.0,0.0,0.0,0.0,0.0,0.0,0.0,0.0,0.0,0.0,0.0,0.0,0.0,0.0,0.0,0.0,0.0,0.0,0.0,0.0,0.0,0.0,0.0,0.0,0.0,0.0,0.0,0.0,0.0,0.0,0.0,0.0,0.0,0.0,0.0,0.0,0.0,0.0,0.0,0.0,0.0,0.0,0.0,0.0,0.0,0.0,0.0,0.0,0.0,0.0,0.0,0.0,0.0,0.0,0.0,0.0,0.0,0.0,0.0,0.0,0.0,0.0,0.0,0.0,0.0,0.0,0.0,0.0,0.0,0.0,0.0,0.0,0.0,0.0,0.0,0.0,0.0,0.0,0.0,0.0,0.0,0.0,0.0,0.0,0.0,0.0,0.0,0.0,0.0,0.0,0.0,0.0,0.0,0.0,0.0,0.0,0.0,0.0,0.0,0.0,0.0,0.0,0.0,0.0,0.0,0.0,0.0,0.0,0.0,0.0,0.0,0.0,0.0,0.0,0.0,0.0,0.0,0.0,0.0,0.0,0.0,0.0,0.0,0.0,0.0,0.0,0.0,0.0,0.0,0.0,0.0,0.0,0.0,0.0,0.0,0.0,0.0,0.0,0.0,0.0,0.0,0.0,0.0,0.0,0.0,0.0,0.0,0.0,0.0,0.0,0.0,0.0,0.0,0.0,0.0,0.0,0.0,0.0,0.0,0.0,0.0,0.0,0.0,0.0,0.0,0.0,0.0,0.0,0.0,0.0,0.0,0.0,0.0,0.0,0.0,0.0,0.0,0.0,0.0,0.0,0.0,0.0,0.0,0.0,0.0,0.0,0.0,0.0,0.0,0.0,0.0,0.0,0.0,0.0,0.0,0.0,0.0,0.0,0.0,0.0,0.0,0.0,0.0,0.0,0.0,0.0,0.0,0.0,0.0,0.0,0.0,0.0,0.0,0.0,0.0,0.0,0.0,0.0,0.0,0.0,0.0,0.0,0.0,0.0,0.0,0.0,0.0,0.0,0.0,0.0,0.0,0.0,0.0,-0.8483,0.0,0.0,0.0,0.0,0.0,0.0,0.0,0.0,0.0,0.0,0.0,0.0,0.0,0.0,0.0,0.0,0.0,0.0,0.0,0.0,0.0,0.0,0.0,0.0,0.0,0.0,0.0,0.0,0.0,0.0,0.0,0.0,0.0,0.0,0.0,0.0,0.0,0.0,0.0,0.0,0.0,0.0,0.0,0.0,0.0,0.0,0.0,0.0,0.0,0.0,0.0,0.0,0.0,0.0,0.0,0.0,0.0,0.0,0.0,0.0,0.0,0.0,0.0,0.0,0.0,0.0,0.0,0.0,0.0,0.0,0.0,0.0,0.0,0.0,0.0,0.0,0.0,0.0,0.0,0.0,0.0,0.0,0.0,0.0,0.0,0.0,0.0,0.0,0.0,0.0,0.0,0.0,0.0,0.0,0.0,0.0,0.0,0.0,0.0,0.0,0.0,0.0,0.0,0.0,0.0,0.0,0.0,0.0,0.0,0.0,-0.8712,-0.8612,-0.8587,-0.8533,-0.8508,0.0,0.0,0.0,0.0,0.0,0.0,0.0,0.0,0.0,0.0,0.0,0.0,0.0,0.0,0.0,0.0,0.0,0.0,0.0,0.0,0.0,0.0,0.0,0.0,0.0,0.0,0.0,0.0,0.0,0.0,0.0,0.0,0.0,0.0,0.0,0.0,0.0,0.0,0.0,0.0,0.0,0.0,0.0,0.0,0.0,0.0,0.0,0.0,0.0,0.0,0.0,0.0,0.0,0.0,0.0,0.0,0.0,0.0,0.0,0.0,0.0,0.0,0.0,0.0,0.0,0.0,0.0,0.0,0.0,0.0,0.0,0.0,0.0,0.0,0.0,0.0,0.0,0.0,0.0,0.0,0.0,0.0,0.0,0.0,0.0,0.0,0.0,0.0,0.0,0.0,0.0,0.0,0.0,0.0,0.0,0.0,0.0,0.0,0.0,0.0,0.0,0.0,0.0,0.0,0.0,0.0,0.0,0.0,0.0,0.0,0.0,0.0,-0.8891,-0.8831,-0.8763,0.0,0.0,0.0,0.0,0.0,0.0,0.0,0.0,0.0,0.0,0.0,0.0,0.0,0.0,0.0,0.0,0.0,0.0,0.0,0.0,0.0,0.0,0.0,0.0,0.0,0.0,0.0,0.0,0.0,0.0,0.0,0.0,0.0,0.0,0.0,0.0,0.0,0.0,0.0,0.0,0.0,0.0,0.0,0.0,0.0,0.0,0.0,0.0,0.0,0.0,0.0,0.0,0.0,0.0,0.0,0.0,0.0,0.0,0.0,0.0,0.0,0.0,0.0,0.0,0.0,0.0,0.0,0.0,0.0,0.0,0.0,0.0,0.0,0.0,0.0,0.0,0.0,0.0,0.0,0.0,0.0,0.0,0.0,0.0,0.0,0.0,0.0,0.0,0.0,0.0,0.0,0.0,0.0,0.0,0.0,0.0,0.0,0.0,0.0,0.0,0.0,0.0,0.0,0.0,0.0,0.0,0.0,0.0,0.0,0.0,-0.9055,-0.958,-0.9599,0.0,-0.9593,0.0,0.0,0.0,0.0,0.0,0.0,0.0,0.0,0.0,0.0,0.0,0.0,0.0,0.0,0.0,0.0,0.0,0.0,0.0,0.0,0.0,0.0,0.0,0.0,0.0,0.0,0.0,0.0,0.0,0.0,0.0,0.0,0.0,0.0,0.0,0.0,0.0,0.0,0.0,0.0,0.0,0.0,0.0,0.0,0.0,0.0,0.0,0.0,0.0,0.0,0.0,0.0,0.0,0.0,0.0,0.0,0.0,0.0,0.0,0.0,0.0,0.0,0.0,0.0,0.0,0.0,0.0,0.0,0.0,0.0,0.0,0.0,0.0,0.0,0.0,0.0,0.0,0.0,0.0,0.0,0.0,0.0,0.0,0.0,0.0,0.0,0.0,0.0,0.0,0.0,0.0,0.0,0.0,0.0,0.0,0.0,0.0,0.0,0.0,0.0,0.0,0.0,0.0,0.0,0.0,0.0,0.0,0.0,0.0,0.0,-0.9618,-0.9812,-0.9755,-0.9702,0.0,0.0,0.0,0.0,0.0,0.0,0.0,0.0,0.0,0.0,0.0,0.0,0.0,0.0,0.0,0.0,0.0,0.0,0.0,0.0,0.0,0.0,0.0,0.0,0.0,0.0,0.0,0.0,0.0,0.0,0.0,0.0,0.0,0.0,0.0,0.0,0.0,0.0,0.0,0.0,0.0,0.0,0.0,0.0,0.0,0.0,0.0,0.0,0.0,0.0,0.0,0.0,0.0,0.0,0.0,0.0,0.0,0.0,0.0,0.0,0.0,0.0,0.0,0.0,0.0,0.0,0.0,0.0,0.0,0.0,0.0,0.0,0.0,0.0,0.0,0.0,0.0,0.0,0.0,0.0,0.0,0.0,0.0,0.0,0.0,0.0,0.0,0.0,0.0,0.0,0.0,0.0,0.0,0.0,0.0,0.0,0.0,0.0,0.0,0.0,0.0,0.0,0.0,0.0,0.0,0.0,0.0,0.0,0.0,0.0,-0.9949,-1.0102,-1.0165,-1.0093,-0.9943,-0.9719,0.0,0.0,0.0,0.0,0.0,0.0,0.0,0.0,0.0,0.0,0.0,0.0,0.0,0.0,0.0,0.0,0.0,0.0,0.0,0.0,0.0,0.0,0.0,0.0,0.0,0.0,0.0,0.0,0.0,0.0,0.0,0.0,0.0,0.0,0.0,0.0,0.0,0.0,0.0,0.0,0.0,0.0,0.0,0.0,0.0,0.0,0.0,0.0,0.0,0.0,0.0,0.0,0.0,0.0,0.0,0.0,0.0,0.0,0.0,0.0,0.0,0.0,0.0,0.0,0.0,0.0,0.0,0.0,0.0,0.0,0.0,0.0,0.0,0.0,0.0,0.0,0.0,0.0,0.0,0.0,0.0,0.0,0.0,0.0,0.0,0.0,0.0,0.0,0.0,0.0,0.0,0.0,0.0,0.0,0.0,0.0,0.0,0.0,0.0,0.0,0.0,0.0,0.0,0.0,0.0,0.0,0.0,0.0,0.0,-1.0492,-1.0408,-1.0847,-1.0893,-1.0565,0.0,0.0,0.0,0.0,0.0,0.0,0.0,0.0,0.0,0.0,0.0,0.0,0.0,0.0,0.0,0.0,0.0,0.0,0.0,0.0,0.0,0.0,0.0,0.0,0.0,0.0,0.0,0.0,0.0,0.0,0.0,0.0,0.0,0.0,0.0,0.0,0.0,0.0,0.0,0.0,0.0,0.0,0.0,0.0,0.0,0.0,0.0,0.0,0.0,0.0,0.0,0.0,0.0,0.0,0.0,0.0,0.0,0.0,0.0,0.0,0.0,0.0,0.0,0.0,0.0,0.0,0.0,0.0,0.0,0.0,0.0,0.0,0.0,0.0,0.0,0.0,0.0,0.0,0.0,0.0,0.0,0.0,0.0,0.0,0.0,0.0,0.0,0.0,0.0,0.0,0.0,0.0,0.0,0.0,0.0,0.0,0.0,0.0,0.0,0.0,0.0,0.0,0.0,0.0,0.0,0.0,0.0,0.0,0.0,-0.9841,-0.9907,-1.0466,-1.1512,-1.0687,-1.0232,0.0,0.0,0.0,0.0,0.0,0.0,0.0,0.0,0.0,0.0,0.0,0.0,0.0,0.0,0.0,0.0,0.0,0.0,0.0,0.0,0.0,0.0,0.0,0.0,0.0,0.0,0.0,0.0,0.0,0.0,0.0,0.0,0.0,0.0,0.0,0.0,0.0,0.0,0.0,0.0,0.0,0.0,0.0,0.0,0.0,0.0,0.0,0.0,0.0,0.0,0.0,0.0,0.0,0.0,0.0,0.0,0.0,0.0,0.0,0.0,0.0,0.0,0.0,0.0,0.0,0.0,0.0,0.0,0.0,0.0,0.0,0.0,0.0,0.0,0.0,0.0,0.0,0.0,0.0,0.0,0.0,0.0,0.0,0.0,0.0,0.0,0.0,0.0,0.0,0.0,0.0,0.0,0.0,0.0,0.0,0.0,0.0,0.0,0.0,0.0,0.0,0.0,0.0,0.0,0.0,0.0,0.0,0.0,0.0,-0.9772,0.0,-1.0866,0.0,-1.0671,-1.0131,0.0,0.0,0.0,0.0,0.0,0.0,0.0,0.0,0.0,0.0,0.0,0.0,0.0,0.0,0.0,0.0,0.0,0.0,0.0,0.0,0.0,0.0,0.0,0.0,0.0,0.0,0.0,0.0,0.0,0.0,0.0,0.0,0.0,0.0,0.0,0.0,0.0,0.0,0.0,0.0,0.0,0.0,0.0,0.0,0.0,0.0,0.0,0.0,0.0,0.0,0.0,0.0,0.0,0.0,0.0,0.0,0.0,0.0,0.0,0.0,0.0,0.0,0.0,0.0,0.0,0.0,0.0,0.0,0.0,0.0,0.0,0.0,0.0,0.0,0.0,0.0,0.0,0.0,0.0,0.0,0.0,0.0,0.0,0.0,0.0,0.0,0.0,0.0,0.0,0.0,0.0,0.0,0.0,0.0,0.0,0.0,0.0,0.0,0.0,0.0,0.0,0.0,0.0,0.0,0.0,0.0,0.0,0.0,-0.9989,-1.1117,-1.1603,-1.1545,-1.0963,-1.091,-1.0275,0.0,0.0,0.0,0.0,0.0,0.0,0.0,0.0,0.0,0.0,0.0,0.0,0.0,0.0,0.0,0.0,0.0,0.0,0.0,0.0,0.0,0.0,0.0,0.0,0.0,0.0,0.0,0.0,0.0,0.0,0.0,0.0,0.0,0.0,0.0,0.0,0.0,0.0,0.0,0.0,0.0,0.0,0.0,0.0,0.0,0.0,0.0,0.0,0.0,0.0,0.0,0.0,0.0,0.0,0.0,0.0,0.0,0.0,0.0,0.0,0.0,0.0,0.0,0.0,0.0,0.0,0.0,0.0,0.0,0.0,0.0,0.0,0.0,0.0,0.0,0.0,0.0,0.0,0.0,0.0,0.0,0.0,0.0,0.0,0.0,0.0,0.0,0.0,0.0,0.0,0.0,0.0,0.0,0.0,0.0,0.0,0.0,0.0,0.0,0.0,0.0,0.0,0.0,0.0,0.0,0.0,0.0,0.0,0.0,-1.0492,-1.0491,-1.0834,-1.1514,-1.0156,-0.963,0.0,0.0,0.0,0.0,0.0,0.0,0.0,0.0,0.0,0.0,0.0,0.0,0.0,0.0,0.0,0.0,0.0,0.0,0.0,0.0,0.0,0.0,0.0,0.0,0.0,0.0,0.0,0.0,0.0,0.0,0.0,0.0,0.0,0.0,0.0,0.0,0.0,0.0,0.0,0.0,0.0,0.0,0.0,0.0,0.0,0.0,0.0,0.0,0.0,0.0,0.0,0.0,0.0,0.0,0.0,0.0,0.0,0.0,0.0,0.0,0.0,0.0,0.0,0.0,0.0,0.0,0.0,0.0,0.0,0.0,0.0,0.0,0.0,0.0,0.0,0.0,0.0,0.0,0.0,0.0,0.0,0.0,0.0,0.0,0.0,0.0,0.0,0.0,0.0,0.0,0.0,0.0,0.0,0.0,0.0,0.0,0.0,0.0,0.0,0.0,0.0,0.0,0.0,0.0,0.0,0.0,0.0,0.0,0.0,-1.2156,-1.2156,-1.247,-1.3041,-1.1482,-1.0532,-1.0338,0.0,0.0,0.0,0.0,0.0,0.0,0.0,0.0,0.0,0.0,0.0,0.0,0.0,0.0,0.0,0.0,0.0,0.0,0.0,0.0,0.0,0.0,0.0,0.0,0.0,0.0,0.0,0.0,0.0,0.0,0.0,0.0,0.0,0.0,0.0,0.0,0.0,0.0,0.0,0.0,0.0,0.0,0.0,0.0,0.0,0.0,0.0,0.0,0.0,0.0,0.0,0.0,0.0,0.0,0.0,0.0,0.0,0.0,0.0,0.0,0.0,0.0,0.0,0.0,0.0,0.0,0.0,0.0,0.0,0.0,0.0,0.0,0.0,0.0,0.0,0.0,0.0,0.0,0.0,0.0,0.0,0.0,0.0,0.0,0.0,0.0,0.0,0.0,0.0,0.0,0.0,0.0,0.0,0.0,0.0,0.0,0.0,0.0,0.0,0.0,0.0,0.0,0.0,0.0,0.0,0.0,0.0,0.0,-1.5486,-1.621,-1.6125,-1.5201,-1.4267,-1.261,0.0,0.0,0.0,0.0,0.0,0.0,0.0,0.0,0.0,0.0,0.0,0.0,0.0,0.0,0.0,0.0,0.0,0.0,0.0,0.0,0.0,0.0,0.0,0.0,0.0,0.0,0.0,0.0,0.0,0.0,0.0,0.0,0.0,0.0,0.0,0.0,0.0,0.0,0.0,0.0,0.0,0.0,0.0,0.0,0.0,0.0,0.0,0.0,0.0,0.0,0.0,0.0,0.0,0.0,0.0,0.0,0.0,0.0,0.0,0.0,0.0,0.0,0.0,0.0,0.0,0.0,0.0,0.0,0.0,0.0,0.0,0.0,0.0,0.0,0.0,0.0,0.0,0.0,0.0,0.0,0.0,0.0,0.0,0.0,0.0,0.0,0.0,0.0,0.0,0.0,0.0,0.0,0.0,0.0,0.0,0.0,0.0,0.0,0.0,0.0,0.0,0.0,0.0,0.0,0.0,0.0,0.0,0.0,0.0,-1.6891,-1.9677,-1.9948,-1.7427,-1.4642,-1.2801,0.0,0.0,0.0,0.0,0.0,0.0,0.0,0.0,0.0,0.0,0.0,0.0,0.0,0.0,0.0,0.0,0.0,0.0,0.0,0.0,0.0,0.0,0.0,0.0,0.0,0.0,0.0,0.0,0.0,0.0,0.0,0.0,0.0,0.0,0.0,0.0,0.0,0.0,0.0,0.0,0.0,0.0,0.0,0.0,0.0,0.0,0.0,0.0,0.0,0.0,0.0,0.0,0.0,0.0,0.0,0.0,0.0,0.0,0.0,0.0,0.0,0.0,0.0,0.0,0.0,0.0,0.0,0.0,0.0,0.0,0.0,0.0,0.0,0.0,0.0,0.0,0.0,0.0,0.0,0.0,0.0,0.0,0.0,0.0,0.0,0.0,0.0,0.0,0.0,0.0,0.0,0.0,0.0,0.0,0.0,0.0,0.0,0.0,0.0,0.0,0.0,0.0,0.0,0.0,0.0,0.0,0.0,0.0,-1.6586,-1.8311,-2.2092,-2.3031,-2.0917,-1.7393,-1.4832,0.0,0.0,0.0,0.0,0.0,0.0,0.0,0.0,0.0,0.0,0.0,0.0,0.0,0.0,0.0,0.0,0.0,0.0,0.0,0.0,0.0,0.0,0.0,0.0,0.0,0.0,0.0,0.0,0.0,0.0,0.0,0.0,0.0,0.0,0.0,0.0,0.0,0.0,0.0,0.0,0.0,0.0,0.0,0.0,0.0,0.0,0.0,0.0,0.0,0.0,0.0,0.0,0.0,0.0,0.0,0.0,0.0,0.0,0.0,0.0,0.0,0.0,0.0,0.0,0.0,0.0,0.0,0.0,0.0,0.0,0.0,0.0,0.0,0.0,0.0,0.0,0.0,0.0,0.0,0.0,0.0,0.0,0.0,0.0,0.0,0.0,0.0,0.0,0.0,0.0,0.0,0.0,0.0,0.0,0.0,0.0,0.0,0.0,0.0,0.0,0.0,0.0,0.0,0.0,0.0,0.0,0.0,0.0,-1.8244,-1.986,-2.3634,-2.5313,-2.4531,-2.1032,-1.7555,0.0,0.0,0.0,0.0,0.0,0.0,0.0,0.0,0.0,0.0,0.0,0.0,0.0,0.0,0.0,0.0,0.0,0.0,0.0,0.0,0.0,0.0,0.0,0.0,0.0,0.0,0.0,0.0,0.0,0.0,0.0,0.0,0.0,0.0,0.0,0.0,0.0,0.0,0.0,0.0,0.0,0.0,0.0,0.0,0.0,0.0,0.0,0.0,0.0,0.0,0.0,0.0,0.0,0.0,0.0,0.0,0.0,0.0,0.0,0.0,0.0,0.0,0.0,0.0,0.0,0.0,0.0,0.0,0.0,0.0,0.0,0.0,0.0,0.0,0.0,0.0,0.0,0.0,0.0,0.0,0.0,0.0,0.0,0.0,0.0,0.0,0.0,0.0,0.0,0.0,0.0,0.0,0.0,0.0,0.0,0.0,0.0,0.0,0.0,0.0,0.0,0.0,0.0,0.0,0.0,0.0,0.0,0.0,-1.9462,-2.1408,-2.4379,-2.5742,-2.5357,-2.0791,-1.7439,0.0,0.0,0.0,0.0,0.0,0.0,0.0,0.0,0.0,0.0,0.0,0.0,0.0,0.0,0.0,0.0,0.0,0.0,0.0,0.0,0.0,0.0,0.0,0.0,0.0,0.0,0.0,0.0,0.0,0.0,0.0,0.0,0.0,0.0,0.0,0.0,0.0,0.0,0.0,0.0,0.0,0.0,0.0,0.0,0.0,0.0,0.0,0.0,-1.2716,0.0,0.0,0.0,0.0,0.0,0.0,0.0,0.0,0.0,0.0,0.0,0.0,0.0,0.0,0.0,0.0,0.0,0.0,0.0,0.0,0.0,0.0,0.0,0.0,0.0,0.0,0.0,0.0,0.0,0.0,0.0,0.0,0.0,0.0,0.0,0.0,0.0,0.0,0.0,0.0,0.0,0.0,0.0,0.0,0.0,0.0,0.0,0.0,0.0,0.0,0.0,0.0,0.0,0.0,0.0,0.0,0.0,0.0,0.0,-2.0025,-2.2385,-2.4761,-2.5881,-2.547,-2.194,-1.8877,0.0,0.0,0.0,0.0,0.0,0.0,0.0,0.0,0.0,0.0,0.0,0.0,0.0,0.0,0.0,0.0,0.0,0.0,0.0,0.0,0.0,0.0,0.0,0.0,0.0,0.0,0.0,0.0,0.0,0.0,0.0,0.0,0.0,0.0,0.0,0.0,0.0,0.0,0.0,0.0,0.0,0.0,0.0,0.0,0.0,0.0,0.0,0.0,0.0,0.0,0.0,0.0,0.0,0.0,0.0,0.0,0.0,0.0,0.0,0.0,0.0,0.0,0.0,0.0,0.0,0.0,0.0,0.0,0.0,0.0,0.0,0.0,0.0,0.0,0.0,0.0,0.0,0.0,0.0,0.0,0.0,0.0,0.0,0.0,0.0,0.0,0.0,0.0,0.0,0.0,0.0,0.0,0.0,0.0,0.0,0.0,0.0,0.0,0.0,0.0,0.0,0.0,0.0,0.0,0.0,0.0,0.0,-1.7703,-2.0351,-2.3445,-2.5106,-2.5807,-2.5546,-2.3414,-2.0621,-1.7154,0.0,0.0,0.0,0.0,0.0,0.0,0.0,0.0,0.0,0.0,0.0,0.0,0.0,0.0,0.0,0.0,0.0,0.0,0.0,0.0,0.0,0.0,0.0,0.0,0.0,0.0,0.0,0.0,0.0,0.0,0.0,0.0,0.0,0.0,0.0,0.0,0.0,0.0,-0.953,-1.0809,0.0,0.0,0.0,0.0,0.0,0.0,0.0,0.0,-1.2708,0.0,0.0,0.0,0.0,0.0,0.0,0.0,0.0,0.0,0.0,0.0,0.0,0.0,0.0,0.0,0.0,0.0,0.0,0.0,0.0,0.0,0.0,0.0,0.0,0.0,0.0,0.0,0.0,0.0,0.0,0.0,0.0,0.0,0.0,0.0,0.0,0.0,0.0,0.0,0.0,0.0,0.0,0.0,0.0,0.0,0.0,0.0,0.0,0.0,0.0,0.0,0.0,0.0,0.0,0.0,0.0,-1.8465,-1.8579,-2.0933,-2.5698,-2.5721,-2.5562,-2.5323,-2.3863,-2.0991,-1.6839,0.0,0.0,0.0,0.0,0.0,0.0,0.0,0.0,0.0,0.0,0.0,0.0,0.0,0.0,0.0,0.0,0.0,0.0,0.0,0.0,0.0,0.0,0.0,0.0,0.0,0.0,0.0,0.0,0.0,0.0,0.0,0.0,0.0,0.0,0.0,0.0,0.0,0.0,0.0,-1.3743,-1.4457,0.0,0.0,0.0,0.0,0.0,0.0,0.0,0.0,-1.4004,0.0,0.0,0.0,0.0,0.0,0.0,0.0,0.0,0.0,0.0,0.0,0.0,0.0,0.0,0.0,0.0,0.0,0.0,0.0,0.0,0.0,0.0,0.0,0.0,0.0,0.0,0.0,0.0,0.0,0.0,0.0,0.0,0.0,0.0,0.0,0.0,0.0,0.0,0.0,0.0,0.0,0.0,0.0,0.0,0.0,0.0,0.0,0.0,0.0,0.0,0.0,0.0,0.0,0.0,0.0,-1.8132,-1.9621,-2.2294,-2.6229,-2.5821,-2.5554,-2.56,-2.3211,-2.0178,0.0,0.0,0.0,0.0,0.0,0.0,0.0,0.0,0.0,0.0,0.0,0.0,0.0,0.0,0.0,0.0,0.0,0.0,0.0,0.0,0.0,0.0,0.0,0.0,0.0,0.0,0.0,0.0,0.0,0.0,0.0,0.0,0.0,0.0,0.0,0.0,0.0,0.0,0.0,0.0,-1.5721,-1.6735,-1.7991,0.0,0.0,0.0,0.0,0.0,0.0,-1.5273,-1.4616,0.0,0.0,0.0,0.0,0.0,0.0,0.0,0.0,0.0,0.0,0.0,0.0,0.0,0.0,0.0,0.0,0.0,0.0,0.0,0.0,0.0,0.0,0.0,0.0,0.0,0.0,0.0,0.0,0.0,0.0,0.0,0.0,0.0,0.0,0.0,0.0,0.0,0.0,0.0,0.0,0.0,0.0,0.0,0.0,0.0,0.0,0.0,0.0,0.0,0.0,0.0,0.0,0.0,0.0,0.0,-1.7389,-2.0489,-2.349,-2.6237,-2.5933,-2.5791,-2.5847,-2.2572,-1.9437,0.0,0.0,0.0,0.0,0.0,0.0,0.0,0.0,0.0,0.0,0.0,0.0,0.0,0.0,0.0,0.0,0.0,0.0,0.0,0.0,0.0,0.0,0.0,0.0,0.0,0.0,0.0,0.0,0.0,0.0,0.0,0.0,0.0,0.0,0.0,0.0,0.0,0.0,0.0,0.0,0.0,-1.8928,-2.0809,-1.9163,0.0,0.0,0.0,0.0,-1.6899,-1.6952,0.0,0.0,0.0,0.0,0.0,0.0,0.0,0.0,0.0,0.0,0.0,0.0,0.0,0.0,0.0,0.0,0.0,0.0,0.0,0.0,0.0,0.0,0.0,0.0,0.0,0.0,0.0,0.0,0.0,0.0,0.0,0.0,0.0,0.0,0.0,0.0,0.0,0.0,0.0,0.0,0.0,0.0,0.0,0.0,0.0,0.0,0.0,0.0,0.0,0.0,0.0,0.0,0.0,0.0,0.0,0.0,-1.7422,-2.0668,-2.3694,-2.6246,-2.6665,-2.6477,-2.5733,-2.2983,-1.984,0.0,0.0,0.0,0.0,0.0,0.0,0.0,0.0,0.0,0.0,0.0,0.0,0.0,0.0,0.0,0.0,0.0,0.0,0.0,0.0,0.0,0.0,0.0,0.0,0.0,0.0,0.0,0.0,0.0,0.0,0.0,0.0,0.0,0.0,0.0,0.0,0.0,0.0,0.0,0.0,0.0,-2.0776,-2.1067,-1.9601,-1.8421,0.0,0.0,-2.1078,-2.0374,-2.255,0.0,0.0,0.0,0.0,0.0,0.0,0.0,0.0,0.0,0.0,0.0,0.0,0.0,0.0,0.0,0.0,0.0,0.0,0.0,0.0,0.0,0.0,0.0,0.0,0.0,0.0,0.0,0.0,0.0,0.0,0.0,0.0,0.0,0.0,0.0,0.0,0.0,0.0,0.0,0.0,0.0,0.0,0.0,0.0,0.0,0.0,0.0,0.0,0.0,0.0,0.0,0.0,0.0,0.0,0.0,-1.5725,-1.7115,-2.1504,-2.4639,-2.6329,-2.6548,-2.6448,-2.605,-2.2238,-1.8932,0.0,0.0,0.0,0.0,0.0,0.0,0.0,0.0,0.0,0.0,0.0,0.0,0.0,0.0,0.0,0.0,0.0,0.0,0.0,0.0,0.0,0.0,0.0,0.0,0.0,0.0,0.0,0.0,0.0,0.0,0.0,0.0,0.0,0.0,0.0,0.0,0.0,0.0,0.0,0.0,0.0,0.0,-2.2431,-2.2187,0.0,0.0,0.0,-2.2449,-2.16,0.0,0.0,0.0,0.0,0.0,0.0,0.0,0.0,0.0,0.0,0.0,0.0,0.0,0.0,0.0,0.0,0.0,0.0,0.0,0.0,0.0,0.0,0.0,0.0,0.0,0.0,0.0,0.0,0.0,0.0,0.0,0.0,0.0,0.0,0.0,0.0,0.0,0.0,0.0,0.0,0.0,0.0,0.0,0.0,0.0,0.0,0.0,0.0,0.0,0.0,0.0,0.0,0.0,0.0,0.0,0.0,0.0,-1.6813,-2.2453,-2.5728,-2.6394,-2.6718,-2.6703,-2.6227,-2.2432,0.0,0.0,0.0,0.0,0.0,0.0,0.0,0.0,0.0,0.0,0.0,0.0,0.0,0.0,0.0,0.0,0.0,0.0,0.0,0.0,0.0,0.0,0.0,0.0,0.0,0.0,0.0,-0.6657,0.0,0.0,0.0,0.0,0.0,0.0,0.0,0.0,0.0,0.0,0.0,0.0,0.0,0.0,-2.3735,-2.3677,-2.4591,-2.5138,0.0,0.0,-2.428,-2.3874,-2.5429,-2.4966,0.0,0.0,0.0,0.0,0.0,0.0,0.0,0.0,0.0,0.0,0.0,0.0,0.0,0.0,0.0,0.0,0.0,0.0,0.0,0.0,0.0,0.0,0.0,0.0,0.0,0.0,0.0,0.0,0.0,0.0,0.0,0.0,0.0,0.0,0.0,0.0,0.0,0.0,0.0,0.0,0.0,0.0,0.0,0.0,0.0,0.0,0.0,0.0,0.0,0.0,0.0,0.0,0.0,0.0,0.0,-1.694,-2.3401,-2.6682,-2.6471,-2.7611,-2.761,-2.6244,-2.4683,-2.1384,0.0,0.0,0.0,0.0,0.0,0.0,0.0,0.0,0.0,0.0,0.0,0.0,0.0,0.0,0.0,0.0,0.0,0.0,0.0,0.0,0.0,0.0,0.0,0.0,0.0,0.0,0.0,0.0,0.0,0.0,0.0,0.0,0.0,0.0,0.0,0.0,0.0,0.0,0.0,0.0,0.0,-2.4487,-2.4351,-2.5799,-2.7326,0.0,0.0,-2.7987,-2.8606,-3.1194,-3.0599,-2.2829,0.0,0.0,0.0,0.0,0.0,0.0,0.0,0.0,0.0,0.0,0.0,0.0,0.0,0.0,0.0,0.0,0.0,0.0,0.0,0.0,0.0,0.0,0.0,0.0,0.0,0.0,0.0,0.0,0.0,0.0,0.0,0.0,0.0,0.0,0.0,0.0,0.0,0.0,0.0,0.0,0.0,0.0,0.0,0.0,0.0,0.0,0.0,0.0,0.0,0.0,0.0,0.0,0.0,-1.6918,-1.7195,-2.3297,-2.6639,-2.6903,-2.7727,-2.7661,-2.6732,-2.4908,-2.1857,0.0,0.0,0.0,0.0,0.0,0.0,0.0,0.0,0.0,0.0,0.0,0.0,0.0,0.0,0.0,0.0,0.0,0.0,0.0,0.0,0.0,0.0,0.0,0.0,0.0,0.0,0.0,0.0,-1.3323,-1.3792,-1.2735,0.0,0.0,0.0,0.0,0.0,0.0,0.0,0.0,0.0,0.0,-2.5745,-2.7154,-2.8359,0.0,0.0,-2.9654,-2.9374,-2.9167,-2.9692,-2.8419,-2.3346,-2.1287,0.0,0.0,0.0,0.0,0.0,0.0,0.0,0.0,0.0,0.0,0.0,0.0,0.0,0.0,0.0,0.0,0.0,0.0,0.0,0.0,0.0,0.0,0.0,0.0,0.0,0.0,0.0,0.0,0.0,0.0,0.0,0.0,0.0,0.0,0.0,0.0,0.0,0.0,0.0,0.0,0.0,0.0,0.0,0.0,0.0,0.0,0.0,0.0,0.0,0.0,0.0,0.0,-1.6874,-1.7633,-2.3268,-2.6459,-2.713,-2.7719,-2.7652,-2.6907,-2.5274,-2.2621,0.0,0.0,0.0,0.0,0.0,0.0,0.0,0.0,0.0,0.0,0.0,0.0,0.0,0.0,0.0,0.0,0.0,0.0,0.0,0.0,0.0,0.0,0.0,0.0,0.0,0.0,0.0,0.0,-1.4114,-1.426,-1.3296,0.0,0.0,0.0,0.0,0.0,0.0,0.0,0.0,0.0,0.0,-2.7167,-2.8609,-2.947,-2.9996,-2.9978,-2.9531,-2.9154,-2.9085,-2.8562,-2.7218,-2.4501,0.0,0.0,0.0,0.0,0.0,0.0,0.0,0.0,0.0,0.0,0.0,0.0,0.0,0.0,0.0,0.0,0.0,0.0,0.0,0.0,0.0,0.0,0.0,0.0,0.0,0.0,0.0,-0.7604,0.0,0.0,-0.762,0.0,0.0,0.0,0.0,0.0,0.0,0.0,0.0,0.0,0.0,0.0,0.0,0.0,0.0,0.0,0.0,0.0,0.0,0.0,0.0,0.0,0.0,-1.6868,-1.8207,-2.3361,-2.632,-2.7018,-2.7671,-2.7652,-2.6841,-2.6134,-2.413,-2.0692,0.0,0.0,0.0,0.0,0.0,0.0,0.0,0.0,0.0,0.0,0.0,0.0,0.0,0.0,0.0,0.0,0.0,0.0,0.0,0.0,0.0,0.0,0.0,0.0,0.0,0.0,-0.9771,-1.1354,-1.2829,0.0,0.0,0.0,0.0,0.0,0.0,0.0,0.0,0.0,0.0,-2.5407,-2.864,-2.8058,-2.858,-2.9067,-2.9108,-2.7769,-2.7273,-2.8755,-2.892,-2.8407,0.0,0.0,0.0,0.0,0.0,0.0,0.0,0.0,0.0,0.0,0.0,0.0,0.0,0.0,0.0,0.0,0.0,0.0,0.0,0.0,0.0,0.0,0.0,0.0,0.0,0.0,0.0,-0.9862,-0.9021,0.0,0.0,0.0,0.0,0.0,0.0,0.0,0.0,0.0,0.0,0.0,-1.7227,-1.7633,0.0,0.0,0.0,0.0,0.0,0.0,0.0,0.0,0.0,0.0,0.0,0.0,-1.7025,-1.8842,-2.3455,-2.6391,-2.7478,-2.767,-2.7635,-2.7345,-2.6699,-2.4552,-2.0782,0.0,0.0,0.0,0.0,0.0,0.0,0.0,0.0,0.0,0.0,0.0,0.0,0.0,0.0,0.0,0.0,0.0,0.0,0.0,0.0,0.0,0.0,0.0,0.0,0.0,-1.2472,0.0,0.0,0.0,0.0,0.0,0.0,0.0,0.0,0.0,0.0,0.0,-2.0988,-2.4174,-2.5552,-2.6818,-2.8347,-2.8627,-2.91,0.0,0.0,0.0,0.0,0.0,0.0,0.0,0.0,0.0,0.0,0.0,0.0,0.0,0.0,-2.3565,-1.9357,-1.9239,-1.9951,-2.0532,0.0,0.0,0.0,0.0,0.0,0.0,0.0,0.0,0.0,0.0,0.0,0.0,0.0,0.0,-1.3471,0.0,-1.2102,0.0,0.0,0.0,0.0,0.0,0.0,0.0,0.0,-1.8489,-1.9963,-2.055,-2.0933,-2.0918,0.0,-1.975,-1.7342,0.0,0.0,0.0,0.0,0.0,0.0,0.0,0.0,-1.7684,-1.9723,-2.3874,-2.6627,-2.768,-2.7625,-2.756,-2.756,-2.6931,-2.5046,-2.1824,-1.9021,-1.6413,0.0,0.0,0.0,0.0,0.0,0.0,0.0,0.0,0.0,0.0,0.0,0.0,0.0,0.0,0.0,0.0,0.0,0.0,0.0,0.0,0.0,0.0,0.0,-1.3015,0.0,0.0,0.0,0.0,0.0,0.0,0.0,0.0,0.0,-2.0686,-2.1843,-2.3655,-2.6551,-2.6838,-2.7047,-2.7791,0.0,0.0,0.0,0.0,0.0,0.0,0.0,-2.5536,-2.504,-2.5262,-2.5813,-2.6878,-2.8118,-2.8887,-2.8612,0.0,0.0,-2.3694,-2.3346,-2.4026,-2.4635,-2.5371,-2.5962,-2.6135,-2.7102,-2.7755,0.0,0.0,0.0,0.0,0.0,0.0,0.0,0.0,-1.7707,-1.807,0.0,-1.6526,0.0,0.0,0.0,0.0,0.0,-1.7837,0.0,0.0,-2.4283,-2.5525,-2.3819,-2.3729,-2.3714,-2.3684,-2.3071,-2.1769,-1.9794,-1.7372,0.0,0.0,0.0,0.0,0.0,0.0,-1.8792,-2.0933,-2.4672,-2.695,-2.761,-2.7575,-2.756,-2.761,-2.6931,-2.5674,-2.3744,-2.1799,-1.9854,-1.7832,-1.4109,0.0,0.0,0.0,0.0,0.0,0.0,0.0,0.0,0.0,0.0,0.0,0.0,0.0,0.0,0.0,0.0,0.0,0.0,0.0,0.0,-1.2632,0.0,0.0,0.0,0.0,0.0,0.0,0.0,0.0,0.0,0.0,-2.088,-2.384,-2.6481,-2.7378,0.0,0.0,0.0,0.0,-2.7143,-2.4356,-2.4031,-2.4283,-2.4411,-2.5612,-2.7068,-2.8585,0.0,0.0,-3.2356,-3.181,-3.1154,-3.0381,-3.2092,-3.2712,-2.974,-2.8526,-2.8109,-2.8289,-2.8905,-2.9333,-2.9725,-3.0835,-3.1774,-2.1017,0.0,0.0,0.0,0.0,-1.9199,-2.0294,-2.1787,-2.2017,-2.1403,-2.0171,-1.9556,0.0,0.0,0.0,0.0,0.0,0.0,-2.0961,-2.3236,-2.4597,-2.5884,-2.7141,-2.6662,-2.6422,-2.6408,-2.5779,-2.5166,-2.4567,-2.3385,-1.9645,-1.363,0.0,0.0,0.0,0.0,-2.0333,-2.2757,-2.53,-2.6916,-2.761,-2.756,-2.756,-2.756,-2.6931,-2.6318,-2.5734,-2.3819,-2.1874,-1.9914,-1.7369,0.0,0.0,0.0,0.0,0.0,0.0,0.0,0.0,0.0,0.0,0.0,0.0,0.0,0.0,0.0,0.0,0.0,0.0,0.0,-1.328,-1.471,-1.5052,0.0,0.0,0.0,0.0,0.0,0.0,0.0,0.0,0.0,-2.4715,-2.4842,-2.5236,0.0,0.0,-2.4664,-2.4016,-2.5024,-2.6212,-2.7166,-2.73,0.0,-2.9962,-2.9743,-2.9584,-3.0321,-3.2001,-3.3267,-3.3249,-3.4014,-3.4561,-3.4287,-3.4793,-3.4939,-3.4225,-3.3834,-3.3615,-3.3707,-3.3862,-3.4036,-3.4201,-3.4676,-3.4987,-2.5641,-2.2872,-2.1104,-2.0997,-2.2114,-2.274,-2.3978,-2.5582,-2.6,-2.5648,-2.4578,-2.3816,-2.2612,-2.1054,-2.0028,0.0,0.0,0.0,-2.3924,-2.6587,-2.6587,-2.7455,-2.8891,-2.8308,-2.7979,-2.7934,-2.7305,-2.6976,-2.6976,-2.6048,-2.2951,-1.7849,0.0,0.0,-1.7221,-1.9869,-2.2143,-2.3999,-2.5959,-2.7171,-2.756,-2.756,-2.756,-2.756,-2.7186,-2.6856,-2.6587,-2.5181,-2.361,-2.1919,-1.9705,-1.7176,0.0,0.0,0.0,0.0,0.0,0.0,0.0,0.0,0.0,0.0,0.0,-1.0556,-0.9725,0.0,0.0,0.0,-1.4487,-1.5122,-1.6147,-1.6915,0.0,0.0,0.0,0.0,0.0,0.0,0.0,-2.1039,-2.3981,-2.6161,-2.6655,-2.5895,-2.5806,-2.7113,-2.6109,-2.52,-2.5129,0.0,-2.7575,-2.8856,-2.9187,-2.9898,-3.1564,-3.1762,-3.2031,-3.3277,-3.4243,-3.5054,-3.5418,-3.6253,-3.6835,-3.6871,-3.684,-3.684,-3.6871,-3.6871,-3.6648,-3.6164,-3.6528,-3.696,-3.7004,-3.7571,-3.8053,-2.8887,-2.9026,-2.5608,-2.4361,-2.4765,-2.5692,-2.7151,-2.9026,-2.9644,-3.0178,-3.0522,-2.8771,-2.7604,-2.6826,-2.4462,0.0,-2.6108,-2.6707,-2.7979,-2.9804,-2.9759,-2.9774,-2.9774,-2.9101,-2.8704,-2.8757,-2.8053,-2.7709,-2.759,-2.6389,-2.509,-2.3731,-2.3191,-2.2203,-2.0976,-2.2637,-2.3969,-2.4672,-2.6482,-2.747,-2.756,-2.7575,-2.7575,-2.7575,-2.753,-2.72,-2.6602,-2.5899,-2.4971,-2.3684,-2.1276,-1.9301,-1.7864,0.0,0.0,0.0,0.0,0.0,0.0,0.0,0.0,0.0,0.0,0.0,0.0,0.0,0.0,0.0,-1.7723,0.0,-2.0421,-1.9314,0.0,0.0,0.0,-1.9263,-2.1584,-2.2971,-2.4142,-2.5195,0.0,0.0,-2.7208,-2.7028,-2.7674,-2.9826,-2.942,-2.8727,-2.8237,-2.9419,-3.0328,-2.9797,-3.0309,-3.0765,-3.1437,-3.2724,-3.4442,-3.6335,-3.7069,-3.7265,-3.7863,-3.808,-3.8156,-3.8135,-3.8174,-3.8156,-3.8174,-3.8171,-3.7863,-3.6625,-3.7462,-3.8496,-3.8605,-3.9589,-4.0445,-2.9731,-2.9411,-2.8466,-2.8717,-2.9686,-2.9925,-3.0894,-3.2348,-3.2482,-3.2377,-3.2003,-3.1539,-3.0986,-3.0313,-2.9699,-2.9684,-3.0148,-3.0298,-3.0881,-3.1764,-3.1285,-3.1345,-3.1749,-3.0514,-2.9907,-2.9863,-2.9114,-2.8497,-2.8009,-2.7646,-2.6648,-2.4946,-2.4724,-2.3599,-2.1605,-2.2892,-2.4134,-2.5206,-2.5682,-2.6362,-2.724,-2.7386,-2.7437,-2.7437,-2.7031,-2.6752,-2.6572,-2.5433,-2.4717,-2.4358,-2.2832,-2.1141,-1.9286,-1.6023,0.0,0.0,0.0,0.0,0.0,0.0,0.0,0.0,0.0,-1.3818,-1.1632,0.0,-1.4686,0.0,-1.9399,-2.1671,-2.2626,-2.2852,0.0,0.0,-2.2406,-2.2773,-2.4448,-2.5878,-2.664,-2.6347,-2.7572,-2.8469,-2.854,-2.8505,-2.9251,-3.1338,-2.9627,-2.801,-2.7945,-2.9712,-3.1189,-3.1635,-3.2679,-3.3814,-3.464,-3.5791,-3.6664,-3.7291,-3.7679,-3.7975,-3.8174,-3.8192,-3.8192,-3.8192,-3.8192,-3.8192,-3.821,-3.8663,-3.8952,-3.866,-3.893,-3.9365,-4.0031,-4.0398,-4.0617,-3.0189,-2.9907,-2.9907,-3.0055,-3.0381,-3.092,-3.1582,-3.2362,-3.2974,-3.3106,-3.2825,-3.2885,-3.2751,-3.2407,-3.2407,-3.2407,-3.2407,-3.2407,-3.2542,-3.2795,-3.2452,-3.2422,-3.2644,-3.1293,-3.0613,-3.0598,-2.961,-2.8921,-2.8582,-2.8567,-2.7859,-2.6562,-2.6533,-2.5446,-2.3376,-2.345,-2.3866,-2.452,-2.5082,-2.5952,-2.7159,-2.7284,-2.7069,-2.6525,-2.6251,-2.5687,-2.4881,-2.3864,-2.3041,-2.2443,-2.147,-2.0273,-1.8852,-1.6367,-1.4557,0.0,0.0,0.0,0.0,0.0,0.0,0.0,0.0,0.0,0.0,0.0,-1.73,-1.8356,-2.1961,-2.4289,-2.4435,-2.5065,-2.5861,-2.6759,-2.686,-2.7401,-2.8834,-2.9783,-3.0104,-2.9661,-3.0391,-3.0954,-3.0954,-3.0954,-3.1376,-3.2546,-3.159,-3.0784,-3.0869,-3.1918,-3.2933,-3.3677,-3.4627,-3.5574,-3.644,-3.6939,-3.7303,-3.7469,-3.7703,-3.7915,-3.814,-3.8192,-3.8192,-3.8192,-3.8192,-3.8337,-3.8663,-3.9061,-3.9568,-4.0256,-4.0419,-4.0582,-4.1053,-4.1379,-4.1615,-3.0292,-3.0292,-3.0292,-2.9852,-2.9156,-3.0296,-3.0677,-3.0582,-3.1913,-3.2712,-3.3072,-3.3511,-3.3677,-3.3692,-3.3692,-3.3677,-3.3692,-3.3677,-3.3615,-3.3413,-3.3413,-3.3351,-3.3195,-3.1838,-3.122,-3.1176,-2.991,-2.9248,-2.9175,-2.916,-2.8777,-2.7944,-2.7827,-2.6909,-2.5037,-2.3924,-2.3363,-2.3437,-2.4634,-2.5796,-2.685,-2.6769,-2.6184,-2.5171,-2.4934,-2.4164,-2.2581,-2.1919,-2.1036,-1.9884,-1.9271,-1.8777,-1.8343,-1.6621,-1.576,0.0,-1.4533,0.0,0.0,0.0,0.0,0.0,0.0,0.0,0.0,-2.0254,-2.0732,-2.1608,-2.5225,-2.7215,-2.6455,-2.708,-2.8566,-3.1083,-3.1438,-3.1904,-3.3035,-3.3262,-3.3305,-3.3177,-3.3262,-3.3381,-3.3355,-3.3516,-3.3457,-3.354,-3.3953,-3.4182,-3.4496,-3.4506,-3.4759,-3.5554,-3.5958,-3.613,-3.6522,-3.6781,-3.7017,-3.734,-3.7578,-3.7703,-3.814,-3.8192,-3.8192,-3.8192,-3.8192,-3.8445,-3.9242,-3.946,-4.0039,-4.1325,-4.1705,-4.1814,-4.1886,-4.2321,-4.2864,-2.9934,-2.9934,-2.9934,-2.9821,-2.9757,-3.0542,-3.0133,-2.8927,-2.9592,-3.0792,-3.2387,-3.3938,-3.4632,-3.4632,-3.4632,-3.4632,-3.4632,-3.4632,-3.4632,-3.4566,-3.4551,-3.4551,-3.4412,-3.3128,-3.2478,-3.2328,-3.1024,-3.0061,-2.9493,-2.9493,-2.865,-2.7074,-2.652,-2.5593,-2.4268,0.0,0.0,0.0,-2.4352,-2.5107,-2.5296,-2.437,-2.3743,-2.3524,-2.2626,0.0,-2.1658,-2.1129,-2.0706,-2.0452,-2.0356,0.0,0.0,0.0,0.0,0.0,0.0,0.0,0.0,0.0,0.0,0.0,-2.1757,-2.1582,-2.1595,-2.2675,-2.3927,-2.5347,-2.9281,-3.1491,-3.0788,-3.1357,-3.2052,-3.2588,-3.2672,-3.2789,-3.3014,-3.3091,-3.3074,-3.3031,-3.3108,-3.3342,-3.3963,-3.3996,-3.4231,-3.4739,-3.4968,-3.5069,-3.5165,-3.5268,-3.5408,-3.5605,-3.5711,-3.5783,-3.5827,-3.6416,-3.69,-3.7094,-3.765,-3.8054,-3.8174,-3.8228,-3.821,-3.8228,-3.8192,-3.8482,-3.9278,-3.9876,-4.06,-4.1542,-4.223,-4.2665,-4.2665,-4.2774,-4.29,-2.9779,0.0,-2.9779,-2.9315,0.0,-2.9233,-2.8571,-2.7198,-2.9568,-3.1404,-3.2847,-3.4296,-3.4935,-3.4876,-3.3932,-3.3505,-3.3461,-3.2503,-3.2576,-3.3348,-3.3377,-3.3827,-3.4639,-3.3317,-3.2655,-3.2596,-3.1253,-3.0408,-3.0103,-3.0103,-2.9435,-2.8187,-2.7853,-2.7041,-2.5828,-2.5154,-2.4515,-2.3938,-2.453,-2.5183,-2.5763,-2.5218,-2.4659,-2.4063,-2.3479,0.0,0.0,0.0,0.0,0.0,0.0,0.0,0.0,0.0,0.0,-2.2059,-2.1417,-2.1714,-2.3241,-2.3453,-2.4232,-2.5971,-2.68,-2.6637,-2.5279,-2.5861,-2.7211,-2.9449,-3.2274,-3.3656,-3.3138,-3.3372,-3.3723,-3.4086,-3.4153,-3.4108,-3.4063,-3.4108,-3.4258,-3.4547,-3.466,-3.4927,-3.5679,-3.578,-3.5897,-3.6183,-3.6315,-3.6181,-3.5783,-3.5555,-3.5475,-3.5458,-3.5503,-3.5566,-3.5594,-3.6114,-3.6701,-3.69,-3.745,-3.7898,-3.8174,-3.8518,-3.879,-3.8826,-3.9079,-3.9604,-4.0347,-4.0854,-4.1361,-4.2103,-4.2611,-4.2882,-4.29,-4.29,-4.29,-2.9779,-2.9779,-2.9779,-2.9001,-2.7792,-2.8234,-2.7636,-2.6556,0.0,0.0,0.0,-3.4062,-3.4572,-3.4537,-3.3128,-3.25,-3.2382,-3.0822,-3.0896,-3.2207,-3.2236,-3.3004,-3.4327,-3.3108,-3.2513,-3.2454,-3.1192,-3.0642,-3.0642,-3.0642,-3.0321,-2.9827,-2.9697,-2.9,-2.7781,-2.7215,-2.6358,-2.5191,-2.4901,-2.5357,-2.6402,-2.6213,-2.5639,-2.4611,-2.4542,-2.3725,-2.2263,-2.2346,-2.1943,-2.0877,-2.0896,-2.1093,-2.1302,-2.1575,-2.2263,-2.3595,-2.41,-2.5082,-2.6809,-2.6965,-2.7793,-2.9682,-3.0882,-3.0874,-2.9069,-2.9135,-3.0319,-3.2862,-3.4167,-3.4745,-3.4363,-3.4313,-3.4547,-3.5178,-3.5245,-3.5215,-3.5255,-3.5335,-3.5585,-3.6237,-3.6386,-3.6801,-3.7452,-3.7553,-3.7569,-3.7503,-3.7453,-3.7203,-3.6354,-3.5649,-3.5354,-3.5337,-3.54,-3.5446,-3.552,-3.5871,-3.635,-3.6821,-3.719,-3.7667,-3.8325,-3.8952,-3.9387,-3.9586,-4.013,-4.0727,-4.1451,-4.1596,-4.2013,-4.2737,-4.29,-4.29,-4.29,-4.29,-4.29,-2.9779,-2.9779,-2.9779,-2.9666,-2.944,-2.9517,-2.9454,-2.9226,-2.9495,-2.9686,-2.9983,-3.2373,-3.3437,-3.3492,-3.3893,-3.4074,-3.406,-3.3783,-3.3812,-3.4008,-3.3993,-3.4138,-3.4341,-3.3108,-3.2513,-3.2411,-3.1192,-3.0642,-3.0642,-3.0642,-3.0524,-3.0379,-2.99,-2.8985,-2.7824,-2.7581,-2.7244,-2.6518,-2.54,-2.4887,-2.5125,-2.4065,-2.3366,-2.3209,-2.2744,-2.2338,-2.2062,-2.2148,-2.2059,-2.1911,-2.1938,-2.2495,-2.3599,-2.3867,-2.4879,-2.702,-2.7857,-2.8742,-2.9782,-2.9914,-3.0311,-3.1205,-3.1461,-3.1444,-3.1196,-3.2116,-3.2961,-3.3686,-3.4419,-3.4866,-3.4797,-3.4781,-3.4847,-3.4963,-3.4963,-3.5179,-3.5809,-3.5909,-3.6191,-3.692,-3.7003,-3.7285,-3.7965,-3.8114,-3.8098,-3.8098,-3.8032,-3.7617,-3.6422,-3.5618,-3.5341,-3.5308,-3.5308,-3.5354,-3.5383,-3.5694,-3.6165,-3.6626,-3.7114,-3.7792,-3.8794,-3.9351,-3.9731,-4.022,-4.0492,-4.0944,-4.1578,-4.1668,-4.2085,-4.2755,-4.29,-4.29,-4.29,-4.29,-4.29,-2.9779,-2.9779,-2.9779,-2.9779,-2.9779,-2.9779,-2.9779,-2.9793,-2.9622,-2.9732,-3.0344,-3.2275,-3.3227,-3.3199,-3.2953,-3.2846,-3.2788,-3.1787,-3.1859,-3.2803,-3.2832,-3.3398,-3.424,-3.3122,-3.2513,-3.2425,-3.1192,-3.0642,-3.0642,-3.0642,-3.0642,-3.0524,-2.9943,-2.9334,-2.8697,-2.8016,-2.7523,-2.7287,-2.6358,-2.5894,-2.5894,-2.5342,-2.5023,-2.5023,-2.4733,-2.4588,-2.4588,-2.4684,-2.478,-2.478,-2.4861,-2.5221,-2.5781,-2.5889,-2.6516,-2.7796,-2.8325,-2.8966,-2.9968,-3.0705,-3.1421,-3.2133,-3.258,-3.2796,-3.2796,-3.2928,-3.3392,-3.4286,-3.4717,-3.4899,-3.4916,-3.5247,-3.5495,-3.5495,-3.5843,-3.6241,-3.6522,-3.6605,-3.6903,-3.7566,-3.7698,-3.798,-3.8692,-3.8791,-3.8775,-3.8758,-3.8493,-3.7781,-3.6754,-3.6057,-3.5554,-3.5188,-3.5152,-3.5198,-3.5198,-3.5588,-3.6062,-3.6563,-3.7369,-3.8002,-3.869,-3.9481,-4.0438,-4.0528,-4.1125,-4.1868,-4.2321,-4.2357,-4.2556,-4.2719,-4.29,-4.29,-4.29,-4.29,-4.29,-2.9779,-2.9779,-2.9779,-2.9779,-2.9779,-2.9779,-2.9779,-2.9779,-2.9779,-3.0139,-3.0758,-3.206,-3.2791,-3.2863,-3.2202,-3.1974,-3.1961,-3.0655,-3.08,-3.2077,-3.2164,-3.2991,-3.4182,-3.3253,-3.2672,-3.2411,-3.1337,-3.0727,-3.0657,-3.0642,-3.0642,-3.0524,-3.0074,-2.9769,-2.9595,-2.8507,-2.7882,-2.7708,-2.7113,-2.6794,-2.6794,-2.6794,-2.6779,-2.6794,-2.6765,-2.6794,-2.6794,-2.6899,-2.6951,-2.6951,-2.7041,-2.713,-2.7078,-2.713,-2.7416,-2.8011,-2.8191,-2.879,-2.9977,-3.1139,-3.2122,-3.2878,-3.3458,-3.3922,-3.4187,-3.3607,-3.3723,-3.4916,-3.523,-3.5313,-3.5495,-3.5909,-3.6257,-3.629,-3.6754,-3.7119,-3.7334,-3.7367,-3.7649,-3.8295,-3.846,-3.8676,-3.9123,-3.9288,-3.9255,-3.9156,-3.8659,-3.798,-3.74,-3.6605,-3.581,-3.5512,-3.5243,-3.5174,-3.5271,-3.5631,-3.6239,-3.6866,-3.7837,-3.8539,-3.8992,-4.0472,-4.132,-4.114,-4.1975,-4.2645,-4.2826,-4.2864,-4.2864,-4.29,-4.29,-4.29,-4.29,-4.29,-4.29,-2.9779,-2.9779,-2.9779,-2.9779,-2.9779,-2.9779,-2.9779,-2.9779,-2.9779,-2.9792,-2.9998,-3.0758,-3.1563,-3.2205,-3.2779,-3.3386,-3.397,-3.3949,-3.3906,-3.4037,-3.4153,-3.424,-3.4356,-3.3688,-3.3079,-3.2513,-3.1772,-3.1105,-3.0655,-3.0582,-3.0642,-3.0642,-3.051,-3.019,-2.961,-2.8942,-2.8318,-2.7683,-2.7113,-2.6794,-2.6794,-2.6794,-2.6794,-2.6794,-2.6794,-2.6794,-2.6794,-2.6846,-2.6832,-2.6832,-2.6832,-2.6832,-2.6832,-2.6937,-2.7499,-2.8508,-2.8752,-2.9574,-3.1214,-3.2063,-3.276,-3.3591,-3.3789,-3.4402,-3.5545,-3.5098,-3.5015,-3.5794,-3.6141,-3.6473,-3.6837,-3.6953,-3.7003,-3.7019,-3.7152,-3.7367,-3.798,-3.8112,-3.8394,-3.9106,-3.909,-3.9222,-3.9255,-3.9288,-3.9288,-3.9272,-3.8758,-3.8245,-3.793,-3.692,-3.6307,-3.6439,-3.5827,-3.533,-3.5759,-3.5958,-3.6666,-3.8043,-3.8521,-3.9164,-4.0196,-4.0953,-4.1513,-4.1803,-4.2438,-4.2729,-4.2804,-4.2842,-4.29,-4.29,-4.29,-4.29,-4.29,-4.29,-4.29,-2.9779,-2.9779,-2.9779,-2.9779,-2.9779,-2.9779,-2.9779,-2.9779,-2.9779,-2.9779,-2.9856,-3.0139,-3.0709,-3.1489,-3.2648,-3.3381,-3.3742,-3.4182,-3.4414,-3.4414,-3.4414,-3.4414,-3.4341,-3.3761,-3.3325,-3.2991,-3.2034,-3.138,-3.1119,-3.0756,-3.0642,-3.0642,-3.0642,-3.0437,-3.0147,-2.9566,-2.9102,-2.8784,-2.8231,-2.7737,-2.7345,-2.6982,-2.6794,-2.6794,-2.6794,-2.6794,-2.6794,-2.6794,-2.6794,-2.6794,-2.6794,-2.6794,-2.6794,-2.7195,-2.7623,-2.8125,-2.9243,-3.0401,-3.1647,-3.2546,-3.3379,-3.4133,-3.461,-3.5185,-3.5828,-3.6059,-3.6506,-3.7218,-3.7798,-3.788,-3.7284,-3.75,-3.7748,-3.7814,-3.8112,-3.8493,-3.8791,-3.8841,-3.8974,-3.9239,-3.9288,-3.9288,-3.9288,-3.9288,-3.9288,-3.9255,-3.8974,-3.8709,-3.8245,-3.7301,-3.687,-3.6903,-3.6208,-3.5959,-3.6489,-3.6655,-3.7263,-3.8265,-3.8995,-3.9809,-4.0384,-4.1518,-4.2042,-4.1938,-4.234,-4.267,-4.2783,-4.2822,-4.2842,-4.2862,-4.29,-4.29,-4.29,-4.29,-4.29,-2.9792,-2.9702,-2.9792,-2.9779,-2.9779,-2.9779,-2.9779,-2.9779,-2.9779,-2.9779,-2.9779,-2.9779,-3.0075,-3.0758,-3.1988,-3.2648,-3.3017,-3.3673,-3.4031,-3.4113,-3.4264,-3.4414,-3.4356,-3.3964,-3.363,-3.334,-3.2527,-3.1888,-3.1511,-3.0887,-3.0642,-3.0642,-3.0642,-3.0642,-3.051,-2.9943,-2.9624,-2.9566,-2.9015,-2.8463,-2.7969,-2.7374,-2.6953,-2.6808,-2.6794,-2.6794,-2.6794,-2.6794,-2.6794,-2.6794,-2.6794,-2.6794,-2.6808,-2.7389,-2.7828,-2.8371,-2.9993,-3.1285,-3.1955,-3.3028,-3.3973,-3.4726,-3.5316,-3.5841,-3.6371,-3.6819,-3.7533,-3.8394,-3.8974,-3.8725,-3.8013,-3.8195,-3.8493,-3.8526,-3.9007,-3.9272,-3.9272,-3.9288,-3.9255,-3.9288,-3.9288,-3.9288,-3.9288,-3.9288,-3.9288,-3.9272,-3.9255,-3.9139,-3.856,-3.7914,-3.7466,-3.7615,-3.717,-3.7003,-3.7335,-3.7569,-3.7997,-3.8892,-3.979,-4.0324,-4.0486,-4.1792,-4.2391,-4.2087,-4.2364,-4.2573,-4.2688,-4.2745,-4.2822,-4.2862,-4.29,-4.29,-4.29,-4.29,-4.29,-2.9689,-2.9431,-2.9702,-2.9779,-2.9779,-2.9779,-2.9779,-2.9779,-2.9779,-2.9779,-2.9779,-2.9779,-2.9792,-2.9921,-3.0771,-3.1415,-3.2146,-3.2932,-3.3311,-3.3367,-3.4045,-3.4414,-3.4414,-3.437,-3.4066,-3.3558,-3.3238,-3.2571,-3.1496,-3.0887,-3.0642,-3.0642,-3.0642,-3.0642,-3.0495,-2.9987,-2.9653,-2.9624,-2.9116,-2.8695,-2.8579,-2.8028,-2.7447,-2.6968,-2.6794,-2.6794,-2.6794,-2.6794,-2.6794,-2.6794,-2.6823,-2.6823,-2.6852,-2.7432,-2.8277,-2.9493,-3.1196,-3.2299,-3.2586,-3.3531,-3.461,-3.5364,-3.5693,-3.6252,-3.7456,-3.7446,-3.7812,-3.9073,-3.9222,-3.9226,-3.9056,-3.9023,-3.9139,-3.9156,-3.9222,-3.9288,-3.9288,-3.9288,-3.9288,-3.9288,-3.9288,-3.9288,-3.9288,-3.9288,-3.9288,-3.9288,-3.9288,-3.9239,-3.9073,-3.8543,-3.8394,-3.8764,-3.8756,-3.8605,-3.8267,-3.8539,-3.9353,-4.0117,-4.076,-4.1429,-4.1913,-4.2269,-4.2257,-4.2239,-4.2391,-4.249,-4.2609,-4.2688,-4.2804,-4.2824,-4.2862,-4.29,-4.29,-4.29,-4.29,-2.9365,-2.9419,-2.9702,-2.9779,-2.9779,-2.9779,-2.9779,-2.9779,-2.9779,-2.9779,-2.9779,-2.9779,-2.9779,-2.9792,-3.0062,-3.0633,-3.1341,-3.2132,-3.272,-3.3157,-3.352,-3.3894,-3.4346,-3.4414,-3.4327,-3.3993,-3.3253,-3.2193,-3.1032,-3.0669,-3.0642,-3.0642,-3.0642,-3.0642,-3.0524,-3.035,-3.0234,-3.0205,-2.9987,-2.9697,-2.9305,-2.9044,-2.8637,-2.7998,-2.72,-2.6794,-2.6794,-2.6794,-2.6794,-2.6794,-2.7171,-2.7389,-2.749,-2.8376,-2.9319,-3.0177,-3.123,-3.2175,-3.3017,-3.384,-3.4812,-3.5938,-3.6478,-3.689,-3.7605,-3.8044,-3.8513,-3.8908,-3.9202,-3.9272,-3.9148,-3.9218,-3.9288,-3.9288,-3.9288,-3.9288,-3.9288,-3.9288,-3.9288,-3.9288,-3.9288,-3.9288,-3.9288,-3.9288,-3.9288,-3.9288,-3.9288,-3.9288,-3.9172,-3.8676,-3.8493,-3.901,-3.8833,-3.8603,-3.8963,-3.9631,-4.0397,-4.0909,-4.1455,-4.17,-4.2086,-4.2287,-4.2251,-4.2274,-4.2387,-4.2445,-4.2548,-4.2609,-4.2727,-4.2804,-4.2842,-4.2862,-4.2882,-4.29,-4.29,-2.9197,-2.9419,-2.9599,-2.9702,-2.9779,-2.9779,-2.9779,-2.9779,-2.9779,-2.9779,-2.9779,-2.9779,-2.9779,-2.9779,-2.9779,-3.0075,-3.0633,-3.1341,-3.1988,-3.2478,-3.272,-3.3227,-3.3894,-3.4031,-3.4182,-3.4129,-3.3122,-3.1946,-3.0974,-3.0669,-3.0582,-3.0642,-3.0642,-3.0642,-3.0642,-3.0642,-3.0642,-3.0642,-3.0642,-3.035,-2.9958,-2.9726,-2.9552,-2.9189,-2.8245,-2.7592,-2.7418,-2.7389,-2.7403,-2.7447,-2.781,-2.8216,-2.8681,-2.945,-3.0321,-3.1122,-3.1767,-3.2581,-3.3614,-3.4288,-3.5211,-3.6492,-3.7031,-3.7426,-3.7834,-3.8433,-3.8733,-3.886,-3.8969,-3.904,-3.904,-3.9164,-3.9218,-3.9272,-3.9288,-3.9288,-3.9288,-3.9288,-3.9288,-3.9288,-3.9288,-3.9288,-3.9288,-3.9288,-3.9288,-3.9288,-3.9288,-3.9288,-3.9189,-3.8924,-3.8676,-3.9176,-3.9085,-3.9157,-3.9426,-4.0067,-4.0487,-4.0984,-4.164,-4.1917,-4.2103,-4.2228,-4.2287,-4.2287,-4.2346,-4.2405,-4.2445,-4.2548,-4.2627,-4.2706,-4.2783,-4.2822,-4.288,-4.2882,-4.29,-2.9028,-2.9341,-2.9419,-2.9599,-2.9779,-2.9779,-2.9779,-2.9779,-2.9779,-2.9779,-2.9779,-2.9779,-2.9779,-2.9779,-2.9779,-2.9792,-3.0011,-3.062,-3.097,-3.118,-3.1783,-3.2506,-3.3157,-3.3297,-3.3685,-3.4269,-3.3137,-3.2193,-3.1438,-3.093,-3.0655,-3.0657,-3.0642,-3.0642,-3.0642,-3.0642,-3.0642,-3.0657,-3.0626,-3.0626,-3.0524,-3.0132,-3.0132,-3.0466,-2.9958,-2.9392,-2.8826,-2.8724,-2.8695,-2.8695,-2.8753,-2.9334,-3.0321,-3.064,-3.1163,-3.2198,-3.2933,-3.3638,-3.4281,-3.4862,-3.5816,-3.6957,-3.7316,-3.7751,-3.8332,-3.8472,-3.856,-3.8711,-3.875,-3.8821,-3.8914,-3.8969,-3.9077,-3.9272,-3.9288,-3.9288,-3.9288,-3.9288,-3.9288,-3.9288,-3.9288,-3.9288,-3.9288,-3.9288,-3.9288,-3.9288,-3.9288,-3.9288,-3.9288,-3.9172,-3.9292,-3.9362,-3.9387,-3.9493,-3.9902,-4.04,-4.0594,-4.0896,-4.1596,-4.2103,-4.2187,-4.2287,-4.2287,-4.2287,-4.2287,-4.2346,-4.2405,-4.2468,-4.2548,-4.2627,-4.2724,-4.2763,-4.2765,-4.2786,-4.2862,-2.887,-2.9028,-2.9263,-2.9419,-2.9521,-2.9702,-2.9779,-2.9779,-2.9779,-2.9779,-2.9779,-2.9779,-2.9779,-2.9779,-2.9779,-2.9779,-2.9779,-3.0062,-3.0419,-3.0895,-3.1193,-3.1709,-3.2434,-3.2932,-3.3377,-3.3694,-3.3383,-3.2585,-3.1671,-3.1322,-3.1032,-3.0655,-3.0642,-3.0642,-3.0642,-3.0642,-3.0642,-3.0626,-3.1018,-3.1221,-3.1264,-3.1482,-3.1685,-3.1859,-3.1729,-3.1511,-3.1293,-3.0466,-3.0016,-2.9987,-3.0408,-3.1032,-3.1729,-3.1917,-3.2106,-3.244,-3.2689,-3.3321,-3.4348,-3.5016,-3.5962,-3.7128,-3.7794,-3.8149,-3.8415,-3.8504,-3.8504,-3.8544,-3.8655,-3.8821,-3.8766,-3.8821,-3.8985,-3.9272,-3.9288,-3.9272,-3.9288,-3.9288,-3.9288,-3.9288,-3.9288,-3.9288,-3.9288,-3.9288,-3.9288,-3.9288,-3.9288,-3.9288,-3.9288,-3.9288,-3.9288,-3.9325,-3.9504,-3.9592,-3.9747,-3.9986,-4.022,-4.0594,-4.1293,-4.1959,-4.2103,-4.2287,-4.2287,-4.2287,-4.2287,-4.2328,-4.2387,-4.2427,-4.2468,-4.2526,-4.2566,-4.2627,-4.2649,-4.2727,-4.2842,-2.8724,-2.8791,-2.9106,-2.9184,-2.9275,-2.9456,-2.9534,-2.9611,-2.9689,-2.9689,-2.9779,-2.9779,-2.9779,-2.9779,-2.9779,-2.9779,-2.9779,-2.9779,-3.0062,-3.0406,-3.0482,-3.0908,-3.1709,-3.242,-3.2904,-3.3064,-3.303,-3.263,-3.1946,-3.1874,-3.1569,-3.1018,-3.093,-3.0785,-3.0671,-3.0642,-3.0642,-3.064,-3.0959,-3.1163,-3.1293,-3.1801,-3.2266,-3.2498,-3.273,-3.2991,-3.3122,-3.2396,-3.1772,-3.1467,-3.17,-3.2193,-3.2788,-3.2875,-3.2977,-3.318,-3.3303,-3.3774,-3.5012,-3.5631,-3.6331,-3.7557,-3.8148,-3.8391,-3.8391,-3.852,-3.8464,-3.8448,-3.8544,-3.8672,-3.8616,-3.8672,-3.8821,-3.9094,-3.9148,-3.9218,-3.9272,-3.9288,-3.9288,-3.9288,-3.9288,-3.9288,-3.9288,-3.9288,-3.9288,-3.9288,-3.9288,-3.9288,-3.9288,-3.9288,-3.9288,-3.9288,-3.9379,-3.9379,-3.9379,-3.9556,-3.9782,-4.0334,-4.0955,-4.149,-4.1856,-4.2145,-4.2287,-4.2287,-4.2287,-4.2287,-4.2328,-4.2328,-4.2369,-4.2387,-4.2486,-4.2548,-4.2609,-4.2765,-4.2842,-2.8566,-2.8791,-2.8803,-2.8961,-2.9052,-2.9131,-2.9287,-2.9419,-2.9419,-2.9599,-2.9792,-2.9779,-2.9779,-2.9779,-2.9779,-2.9779,-2.9779,-2.9779,-2.9792,-2.9856,-2.9921,-3.0279,-3.1031,-3.1709,-3.216,-3.2373,-3.2426,-3.2411,-3.2378,-3.2492,-3.2237,-3.1642,-3.1482,-3.1235,-3.08,-3.0626,-3.0642,-3.0642,-3.0684,-3.0756,-3.08,-3.1438,-3.2019,-3.2629,-3.3209,-3.3746,-3.4109,-3.4051,-3.3645,-3.2788,-3.2672,-3.2962,-3.3398,-3.3514,-3.3775,-3.4211,-3.437,-3.497,-3.5963,-3.6338,-3.6948,-3.796,-3.8278,-3.8391,-3.8391,-3.8391,-3.8391,-3.8391,-3.8391,-3.8464,-3.856,-3.8576,-3.8672,-3.875,-3.8969,-3.9094,-3.9272,-3.9288,-3.9288,-3.9288,-3.9288,-3.9288,-3.9288,-3.9288,-3.9288,-3.9288,-3.9288,-3.9288,-3.9288,-3.9288,-3.9288,-3.9288,-3.9288,-3.9342,-3.9325,-3.9379,-3.9592,-4.0053,-4.0625,-4.1047,-4.1622,-4.2044,-4.2287,-4.2287,-4.2287,-4.2287,-4.2287,-4.2287,-4.2287,-4.2328,-4.2427,-4.2508,-4.257,-4.2688,-4.2804,-2.8498,-2.8578,-2.8724,-2.8791,-2.8882,-2.9052,-2.9197,-2.9419,-2.9419,-2.9521,-2.9779,-2.9779,-2.9779,-2.9779,-2.9779,-2.9779,-2.9779,-2.9779,-2.9779,-2.9779,-2.9779,-3.0203,-3.0745,-3.1119,-3.1556,-3.2102,-3.2542,-3.2734,-3.2401,-3.2852,-3.2796,-3.2251,-3.171,-3.1453,-3.1235,-3.0785,-3.0597,-3.0655,-3.1061,-3.1221,-3.138,-3.2295,-3.3021,-3.3238,-3.3775,-3.4182,-3.4399,-3.4414,-3.4312,-3.3978,-3.3906,-3.3978,-3.4095,-3.4124,-3.4211,-3.4409,-3.4839,-3.5204,-3.5785,-3.66,-3.7282,-3.761,-3.8164,-3.8391,-3.8391,-3.8391,-3.8391,-3.8391,-3.8391,-3.8391,-3.8448,-3.8464,-3.8504,-3.8672,-3.886,-3.9023,-3.9218,-3.9288,-3.9288,-3.9288,-3.9288,-3.9288,-3.9288,-3.9288,-3.9288,-3.9288,-3.9288,-3.9288,-3.9288,-3.9288,-3.9288,-3.9288,-3.9288,-3.9288,-3.9342,-3.9342,-3.952,-3.9868,-4.0334,-4.0672,-4.1338,-4.2002,-4.2187,-4.2287,-4.2287,-4.2287,-4.2287,-4.2287,-4.2287,-4.2287,-4.2369,-4.2427,-4.2468,-4.253,-4.2649,-2.851,-2.851,-2.8657,-2.8657,-2.8657,-2.8816,-2.9052,-2.9275,-2.9275,-2.9443,-2.9702,-2.9779,-2.9779,-2.9779,-2.9779,-2.9779,-2.9779,-2.9779,-2.9779,-2.9779,-2.9779,-3.0062,-3.033,-3.0482,-3.0846,-3.1563,-3.206,-3.2157,-3.2249,-3.2707,-3.2514,-3.196,-3.1647,-3.1343,-3.1047,-3.08,-3.0642,-3.064,-3.0945,-3.1119,-3.1221,-3.2106,-3.2527,-3.2832,-3.3485,-3.4095,-3.4356,-3.4414,-3.4414,-3.4399,-3.4399,-3.4414,-3.4414,-3.4414,-3.4414,-3.4399,-3.5023,-3.5529,-3.5961,-3.6845,-3.7476,-3.7786,-3.8221,-3.8335,-3.8391,-3.8391,-3.8391,-3.8391,-3.8391,-3.8391,-3.8391,-3.8391,-3.8464,-3.8616,-3.8711,-3.8931,-3.9148,-3.9272,-3.9272,-3.9288,-3.9288,-3.9288,-3.9288,-3.9288,-3.9288,-3.9288,-3.9288,-3.9288,-3.9288,-3.9288,-3.9288,-3.9288,-3.9288,-3.9288,-3.9288,-3.9288,-3.9362,-3.9731,-4.0431,-4.0672,-4.1185,-4.1899,-4.2145,-4.2287,-4.2287,-4.2287,-4.2287,-4.2287,-4.2287,-4.2328,-4.2346,-4.2346,-4.2387,-4.245,-4.257,-2.851,-2.851,-2.851,-2.851,-2.851,-2.851,-2.8749,-2.9052,-2.9052,-2.9378,-2.9702,-2.9792,-2.9792,-2.9779,-2.9779,-2.9779,-2.9779,-2.9779,-2.9779,-2.9779,-2.9779,-2.9856,-2.9921,-2.9921,-3.0203,-3.0758,-3.082,-3.1315,-3.182,-3.2006,-3.1957,-3.1632,-3.1443,-3.1155,-3.0924,-3.0669,-3.0582,-3.0642,-3.0626,-3.0698,-3.0858,-3.1496,-3.199,-3.2179,-3.3209,-3.3862,-3.4182,-3.4341,-3.4414,-3.4414,-3.4414,-3.4414,-3.4414,-3.4414,-3.4414,-3.4601,-3.5154,-3.5834,-3.6384,-3.7087,-3.777,-3.8205,-3.8335,-3.8391,-3.8391,-3.8391,-3.8391,-3.8391,-3.8391,-3.8391,-3.8391,-3.8391,-3.8448,-3.856,-3.8616,-3.8711,-3.8931,-3.9164,-3.9272,-3.9288,-3.9288,-3.9272,-3.9272,-3.9272,-3.9255,-3.9202,-3.9218,-3.9288,-3.9288,-3.9288,-3.9288,-3.9288,-3.9288,-3.9288,-3.9288,-3.9288,-3.9362,-3.9627,-4.0546,-4.1019,-4.1338,-4.1856,-4.2145,-4.2287,-4.2287,-4.2287,-4.2287,-4.2287,-4.2287,-4.2287,-4.2346,-4.2328,-4.2328,-4.249,-4.2609,-2.851,-2.851,-2.851,-2.851,-2.851,-2.851,-2.8749,-2.9052,-2.8961,-2.9221,-2.9624,-2.9599,-2.9611,-2.9779,-2.9779,-2.9779,-2.9779,-2.9779,-2.9779,-2.9779,-2.9779,-2.9779,-2.9779,-2.9779,-2.9856,-3.0203,-3.0683,-3.0957,-3.1267,-3.1656,-3.2077,-3.1914,-3.138,-3.1282,-3.1137,-3.0742,-3.0642,-3.0642,-3.0642,-3.0642,-3.0785,-3.1569,-3.215,-3.2338,-3.3441,-3.3891,-3.3819,-3.4153,-3.4399,-3.4414,-3.4414,-3.4414,-3.4414,-3.4414,-3.4414,-3.4668,-3.5529,-3.6197,-3.6569,-3.7385,-3.8221,-3.8335,-3.8391,-3.8391,-3.8391,-3.8391,-3.8391,-3.8391,-3.8391,-3.8391,-3.8391,-3.8391,-3.8391,-3.8448,-3.8504,-3.8616,-3.8727,-3.8931,-3.9094,-3.9218,-3.9272,-3.9218,-3.911,-3.9218,-3.9202,-3.9131,-3.9148,-3.9272,-3.9288,-3.9288,-3.9288,-3.9288,-3.9288,-3.9288,-3.9288,-3.9325,-3.9451,-3.9679,-4.0497,-4.1202,-4.1516,-4.1899,-4.2187,-4.2287,-4.2287,-4.2287,-4.2287,-4.2287,-4.2287,-4.2328,-4.2346,-4.2328,-4.2369,-4.249,-4.257,-2.851,-2.851,-2.851,-2.851,-2.851,-2.851,-2.8657,-2.8882,-2.8882,-2.9118,-2.9521,-2.9419,-2.9509,-2.9779,-2.9779,-2.9779,-2.9779,-2.9779,-2.9779,-2.9779,-2.9702,-2.9599,-2.9599,-2.9534,-2.9534,-2.9677,-3.0126,-3.033,-3.0393,-3.0693,-3.0831,-3.0895,-3.0788,-3.0671,-3.0683,-3.0606,-3.0597,-3.0642,-3.0642,-3.0642,-3.0756,-3.1192,-3.2034,-3.244,-3.3209,-3.3543,-3.3949,-3.4211,-3.4385,-3.4414,-3.4414,-3.4414,-3.4414,-3.4414,-3.4414,-3.4601,-3.527,-3.6072,-3.6569,-3.7342,-3.8033,-3.8391,-3.8391,-3.8391,-3.8391,-3.8391,-3.8391,-3.8391,-3.8391,-3.8391,-3.8391,-3.8391,-3.8391,-3.8391,-3.8464,-3.8504,-3.8616,-3.8766,-3.8969,-3.9094,-3.9148,-3.9094,-3.9094,-3.911,-3.9094,-3.9023,-3.9023,-3.9148,-3.9288,-3.9288,-3.9288,-3.9288,-3.9288,-3.9288,-3.9288,-3.9362,-3.954,-3.9868,-4.0497,-4.1065,-4.1428,-4.1856,-4.2287,-4.2287,-4.2287,-4.2287,-4.2287,-4.2287,-4.2287,-4.2287,-4.2287,-4.2287,-4.2328,-4.2409,-4.2468,-2.851,-2.851,-2.851,-2.851,-2.851,-2.851,-2.8657,-2.8803,-2.8803,-2.8961,-2.9275,-2.9341,-2.9431,-2.9702,-2.9689,-2.9779,-2.9779,-2.9779,-2.9779,-2.9779,-2.9611,-2.9509,-2.9431,-2.9353,-2.9275,-2.9341,-2.9599,-2.9599,-2.9586,-2.9614,-2.9943,-2.9523,-2.9923,-3.0223,-3.0045,-3.028,-3.0642,-3.0642,-3.0642,-3.0642,-3.064,-3.0814,-3.1511,-3.2338,-3.2832,-3.3311,-3.3949,-3.4283,-3.4414,-3.4414,-3.4414,-3.4414,-3.4414,-3.4414,-3.4414,-3.4414,-3.5088,-3.5642,-3.6197,-3.6966,-3.7727,-3.8205,-3.8391,-3.8391,-3.8391,-3.8391,-3.8391,-3.8391,-3.8391,-3.8391,-3.8391,-3.8391,-3.8391,-3.8391,-3.8391,-3.8464,-3.856,-3.8655,-3.8821,-3.8914,-3.8985,-3.8985,-3.8931,-3.8931,-3.8969,-3.8969,-3.8969,-3.904,-3.9218,-3.9288,-3.9288,-3.9288,-3.9288,-3.9504,-3.9556,-3.985,-3.9919,-4.0203,-4.0689,-4.1065,-4.1472,-4.1941,-4.2287,-4.2287,-4.2287,-4.2287,-4.2287,-4.2287,-4.2287,-4.2287,-4.2287,-4.2287,-4.2287,-4.2346,-4.2405,-2.851,-2.851,-2.851,-2.851,-2.851,-2.851,-2.8578,-2.8724,-2.8657,-2.8816,-2.9131,-2.8949,-2.9106,-2.9341,-2.9419,-2.9611,-2.9779,-2.9779,-2.9779,-2.9779,-2.9689,-2.9599,-2.9341,-2.9263,-2.9184,-2.904,-2.9131,-2.9209,-2.9353,-2.9459,-2.9492,-2.9796,-3.0037,-3.0132,-3.0183,-3.0506,-3.0548,-3.0577,-3.0623,-3.0669,-3.0669,-3.0988,-3.1584,-3.244,-3.2861,-3.334,-3.3703,-3.4167,-3.4414,-3.4414,-3.4414,-3.4414,-3.4414,-3.4414,-3.4414,-3.4534,-3.4971,-3.54,-3.577,-3.6723,-3.7282,-3.7653,-3.8091,-3.8391,-3.8391,-3.8391,-3.8391,-3.8391,-3.8391,-3.8391,-3.8391,-3.8391,-3.8391,-3.8391,-3.8408,-3.8408,-3.8448,-3.8504,-3.86,-3.875,-3.8805,-3.8821,-3.8821,-3.8821,-3.8821,-3.8876,-3.8876,-3.8985,-3.9164,-3.9272,-3.9272,-3.9272,-3.9288,-3.9592,-3.98,-4.0269,-4.0563,-4.0672,-4.1001,-4.1202,-4.1666,-4.2044,-4.2287,-4.2145,-4.2187,-4.2287,-4.2287,-4.2287,-4.2287,-4.2287,-4.2287,-4.2287,-4.2328,-4.2346,-4.2405,-2.851,-2.851,-2.851,-2.851,-2.851,-2.851,-2.8578,-2.8657,-2.8578,-2.8657,-2.8803,-2.887,-2.8961,-2.9197,-2.9341,-2.9521,-2.9702,-2.9779,-2.9779,-2.9779,-2.9689,-2.9443,-2.9275,-2.9184,-2.8961,-2.8724,-2.8736,-2.8895,-2.9118,-2.9341,-2.9363,-2.9338,-2.9758,-2.9987,-2.9929,-3.0233,-3.0395,-3.0429,-3.0602,-3.0657,-3.0505,-3.0913,-3.1526,-3.2367,-3.2846,-3.3282,-3.3964,-3.4182,-3.4414,-3.4414,-3.4414,-3.4414,-3.4414,-3.4414,-3.4414,-3.4467,-3.4721,-3.5088,-3.54,-3.6337,-3.6951,-3.7476,-3.8033,-3.8335,-3.8391,-3.8391,-3.8391,-3.8391,-3.8391,-3.8391,-3.8391,-3.8391,-3.8391,-3.8391,-3.8391,-3.8391,-3.8391,-3.8391,-3.8504,-3.86,-3.8655,-3.8655,-3.8672,-3.8672,-3.8672,-3.8711,-3.8766,-3.8931,-3.9148,-3.9148,-3.9218,-3.9362,-3.9415,-3.9592,-3.9902,-4.0302,-4.0707,-4.0879,-4.1047,-4.1293,-4.149,-4.177,-4.1856,-4.1813,-4.1941,-4.2287,-4.2287,-4.2287,-4.2287,-4.2287,-4.2287,-4.2287,-4.2328,-4.2346,-4.2405,-2.851,-2.851,-2.851,-2.851,-2.851,-2.851,-2.851,-2.851,-2.851,-2.8578,-2.8724,-2.8724,-2.8803,-2.904,-2.9275,-2.9509,-2.9702,-2.9702,-2.9779,-2.9792,-2.9611,-2.9353,-2.9118,-2.8895,-2.8816,-2.8578,-2.851,-2.8638,-2.9053,-2.9167,-2.9077,-2.9327,-2.974,-2.9744,-2.9539,-2.9943,-3.0072,-3.0252,-3.0577,-3.0708,-3.0707,-3.0949,-3.1474,-3.2442,-3.2651,-3.3231,-3.4143,-3.4385,-3.4414,-3.4414,-3.4414,-3.4414,-3.4414,-3.4414,-3.4414,-3.4414,-3.4414,-3.4706,-3.5139,-3.577,-3.6461,-3.7027,-3.7786,-3.8164,-3.8391,-3.8391,-3.8391,-3.8391,-3.8391,-3.8391,-3.8391,-3.8391,-3.8391,-3.8391,-3.8391,-3.8391,-3.8391,-3.8391,-3.8391,-3.8448,-3.8504,-3.856,-3.856,-3.856,-3.856,-3.8672,-3.8672,-3.8766,-3.8931,-3.904,-3.9148,-3.9398,-3.954,-3.9679,-3.9919,-4.0153,-4.0449,-4.0689,-4.0737,-4.0879,-4.1065,-4.1293,-4.1383,-4.1561,-4.2002,-4.2287,-4.2287,-4.2287,-4.2287,-4.2287,-4.2287,-4.2287,-4.2287,-4.2328,-4.2346,-2.851,-2.851,-2.851,-2.851,-2.851,-2.851,-2.851,-2.851,-2.851,-2.851,-2.859,-2.859,-2.8657,-2.8882,-2.9184,-2.9419,-2.9509,-2.9611,-2.9702,-2.9714,-2.9624,-2.9456,-2.9131,-2.9052,-2.8816,-2.859,-2.851,-2.8867,-2.9149,-2.9077,-2.9315,-2.9642,-2.9467,-2.9433,-2.949,-2.9623,-2.9611,-2.9722,-3.0405,-3.1072,-3.1639,-3.2125,-3.2505,-3.2815,-3.301,-3.3417,-3.4081,-3.4278,-3.4346,-3.4414,-3.4414,-3.4414,-3.4414,-3.4414,-3.4414,-3.4414,-3.4414,-3.4467,-3.4654,-3.527,-3.5961,-3.6585,-3.7222,-3.7786,-3.8221,-3.8391,-3.8391,-3.8391,-3.8391,-3.8391,-3.8391,-3.8391,-3.8391,-3.8391,-3.8391,-3.8391,-3.8391,-3.8391,-3.8391,-3.8391,-3.8448,-3.8448,-3.8448,-3.8448,-3.8448,-3.8576,-3.8616,-3.8711,-3.8805,-3.8914,-3.9094,-3.9309,-3.9592,-3.9782,-3.9782,-4.002,-4.017,-4.0351,-4.0368,-4.0417,-4.0594,-4.0784,-4.1248,-4.1472,-4.1941,-4.2187,-4.2145,-4.2145,-4.2246,-4.2287,-4.2287,-4.2287,-4.2287,-4.2287,-4.2287,-2.851,-2.851,-2.851,-2.851,-2.851,-2.851,-2.851,-2.851,-2.851,-2.851,-2.851,-2.851,-2.8578,-2.8803,-2.9028,-2.9106,-2.9197,-2.9365,-2.9378,-2.9456,-2.939,-2.9221,-2.8973,-2.8882,-2.8736,-2.859,-2.857,-2.8799,-2.9117,-2.904,-2.912,-2.9352,-2.9266,-2.9237,-2.9404,-2.9356,-2.9647,-3.006,-3.0802,-3.1545,-3.2037,-3.2269,-3.2502,-3.2897,-3.2992,-3.3417,-3.3969,-3.4128,-3.4278,-3.4346,-3.4414,-3.4414,-3.4414,-3.4414,-3.4414,-3.4414,-3.4414,-3.4414,-3.4467,-3.5023,-3.5642,-3.6384,-3.7027,-3.7727,-3.8221,-3.8391,-3.8391,-3.8391,-3.8391,-3.8391,-3.8391,-3.8391,-3.8391,-3.8391,-3.8391,-3.8391,-3.8391,-3.8391,-3.8391,-3.8391,-3.8391,-3.8391,-3.8391,-3.8391,-3.8391,-3.8464,-3.852,-3.856,-3.8711,-3.8876,-3.904,-3.9272,-3.9609,-3.9868,-3.9782,-3.9817,-3.9782,-3.9885,-3.9799,-3.985,-4.0037,-4.0319,-4.0832,-4.1293,-4.1666,-4.1813,-4.1899,-4.2103,-4.2287,-4.2287,-4.2287,-4.2287,-4.2287,-4.2287,-4.2287,-2.851,-2.851,-2.851,-2.851,-2.851,-2.851,-2.851,-2.851,-2.851,-2.851,-2.851,-2.851,-2.8578,-2.8724,-2.8791,-2.887,-2.904,-2.9052,-2.9143,-2.9143,-2.9064,-2.8961,-2.8882,-2.8803,-2.8724,-2.851,-2.851,-2.8703,-2.8891,-2.8899,-2.8797,-2.8961,-2.9022,-2.9015,-2.8995,-2.9098,-2.9365,-3.0448,-3.126,-3.1931,-3.2456,-3.2602,-3.2794,-3.2976,-3.3143,-3.3368,-3.3851,-3.4074,-3.4142,-3.4278,-3.4346,-3.4346,-3.4346,-3.4414,-3.4414,-3.4414,-3.4414,-3.4414,-3.4467,-3.4839,-3.5593,-3.6337,-3.7207,-3.796,-3.8278,-3.8391,-3.8391,-3.8391,-3.8391,-3.8391,-3.8391,-3.8391,-3.8391,-3.8391,-3.8391,-3.8391,-3.8391,-3.8391,-3.8391,-3.8391,-3.8391,-3.8391,-3.8391,-3.8391,-3.8391,-3.8391,-3.8408,-3.8464,-3.8616,-3.8821,-3.8985,-3.9164,-3.9292,-3.9575,-3.9644,-3.954,-3.9556,-3.9609,-3.952,-3.9556,-3.9885,-4.022,-4.0689,-4.1065,-4.1383,-4.1709,-4.1917,-4.2103,-4.2287,-4.2287,-4.2287,-4.2287,-4.2287,-4.2287,-4.2287,-2.851,-2.851,-2.851,-2.851,-2.851,-2.851,-2.851,-2.851,-2.851,-2.851,-2.851,-2.851,-2.851,-2.8578,-2.8724,-2.8803,-2.8803,-2.9052,-2.9064,-2.9064,-2.9064,-2.8882,-2.8803,-2.8724,-2.8657,-2.851,-2.851,-2.8546,-2.8582,-2.8619,-2.8935,-2.9411,-2.8814,-2.8773,-2.8779,-2.8905,-2.9515,-3.0491,-3.1389,-3.22,-3.2943,-3.3382,-3.3621,-3.3297,-3.3437,-3.3563,-3.3675,-3.3813,-3.4005,-3.4128,-3.4196,-3.4196,-3.4278,-3.4278,-3.4278,-3.4278,-3.4278,-3.4346,-3.4467,-3.4601,-3.5154,-3.6259,-3.7385,-3.8091,-3.8205,-3.8335,-3.8391,-3.8391,-3.8391,-3.8391,-3.8391,-3.8391,-3.8391,-3.8391,-3.8391,-3.8391,-3.8391,-3.8391,-3.8391,-3.8391,-3.8391,-3.8391,-3.8391,-3.8391,-3.8391,-3.8391,-3.8408,-3.8464,-3.852,-3.8727,-3.8821,-3.8985,-3.9023,-3.9185,-3.9309,-3.9362,-3.9451,-3.9679,-3.9782,-3.9833,-4.002,-4.04,-4.0879,-4.0926,-4.1248,-4.1596,-4.1917,-4.2145,-4.2287,-4.2287,-4.2287,-4.2287,-4.2287,-4.2287,-4.2287,-2.851,-2.851,-2.851,-2.851,-2.851,-2.851,-2.851,-2.851,-2.851,-2.851,-2.851,-2.851,-2.851,-2.851,-2.8578,-2.8657,-2.8657,-2.8669,-2.8749,-2.8749,-2.8736,-2.8657,-2.8657,-2.8657,-2.859,-2.851,-2.851,-2.851,-2.8522,-2.851,-2.857,-2.8735,-2.8595,-2.8614,-2.8657,-2.8961,-2.9561,-3.0266,-3.1303,-3.2264,-3.2554,-3.3254,-3.3564,-3.3368,-3.3312,-3.3466,-3.3619,-3.3689,-3.3882,-3.4074,-3.4196,-3.4128,-3.4059,-3.4074,-3.4074,-3.4059,-3.4059,-3.4196,-3.4414,-3.4414,-3.4839,-3.5706,-3.6906,-3.7786,-3.7902,-3.8148,-3.8335,-3.8391,-3.8391,-3.8391,-3.8391,-3.8391,-3.8391,-3.8391,-3.8391,-3.8391,-3.8391,-3.8391,-3.8391,-3.8391,-3.8391,-3.8391,-3.8391,-3.8391,-3.8391,-3.8391,-3.8408,-3.8464,-3.852,-3.8576,-3.8727,-3.8821,-3.886,-3.8914,-3.9094,-3.9239,-3.9435,-3.9662,-3.9952,-4.0003,-4.0153,-4.0861,-4.1248,-4.1157,-4.1157,-4.1534,-4.1899,-4.2086,-4.2228,-4.2269,-4.2287,-4.2287,-4.2287,-4.2287,-4.2287,-2.851,-2.851,-2.851,-2.851,-2.851,-2.851,-2.851,-2.851,-2.851,-2.851,-2.851,-2.851,-2.851,-2.851,-2.851,-2.851,-2.851,-2.851,-2.851,-2.851,-2.851,-2.851,-2.851,-2.851,-2.851,-2.851,-2.851,-2.851,-2.851,-2.851,-2.8534,-2.8546,-2.851,-2.851,-2.8657,-2.9028,-2.9484,-2.9999,-3.0895,-3.1928,-3.216,-3.2874,-3.3354,-3.3312,-3.3312,-3.3396,-3.3466,-3.3536,-3.366,-3.3868,-3.4005,-3.4005,-3.3937,-3.3799,-3.3799,-3.3785,-3.3908,-3.3991,-3.4264,-3.4654,-3.4905,-3.5593,-3.6384,-3.7087,-3.7476,-3.796,-3.8335,-3.8391,-3.8391,-3.8391,-3.8391,-3.8391,-3.8391,-3.8391,-3.8391,-3.8391,-3.8391,-3.8391,-3.8391,-3.8391,-3.8391,-3.8391,-3.8391,-3.8391,-3.8391,-3.8391,-3.8408,-3.8408,-3.8464,-3.852,-3.8616,-3.8711,-3.8766,-3.8821,-3.8931,-3.9077,-3.9222,-3.9575,-3.98,-3.9952,-4.0285,-4.0955,-4.1248,-4.1036,-4.1128,-4.1534,-4.1753,-4.1856,-4.2044,-4.2228,-4.2269,-4.2287,-4.2287,-4.2287,-4.2287,-2.851,-2.851,-2.851,-2.851,-2.851,-2.851,-2.851,-2.851,-2.851,-2.851,-2.851,-2.851,-2.851,-2.851,-2.851,-2.851,-2.851,-2.851,-2.851,-2.851,-2.851,-2.851,-2.851,-2.851,-2.851,-2.851,-2.851,-2.851,-2.851,-2.851,-2.851,-2.851,-2.851,-2.851,-2.851,-2.851,-2.8961,-2.9704,-3.0519,-3.1254,-3.1942,-3.2717,-3.3086,-3.3312,-3.3312,-3.3312,-3.3326,-3.3396,-3.3521,-3.3675,-3.3744,-3.3744,-3.3813,-3.3813,-3.3813,-3.3813,-3.3922,-3.4059,-3.4128,-3.489,-3.5154,-3.527,-3.5946,-3.6508,-3.7282,-3.7918,-3.8335,-3.8278,-3.8391,-3.8391,-3.8391,-3.8391,-3.8391,-3.8391,-3.8391,-3.8391,-3.8391,-3.8391,-3.8391,-3.8391,-3.8391,-3.8391,-3.8391,-3.8391,-3.8391,-3.8391,-3.8391,-3.8408,-3.8464,-3.8464,-3.8504,-3.86,-3.8655,-3.8711,-3.8766,-3.886,-3.9061,-3.9418,-3.9765,-4.0053,-4.0186,-4.0577,-4.0737,-4.0754,-4.0896,-4.1157,-4.1338,-4.1534,-4.1813,-4.2127,-4.2228,-4.2287,-4.2287,-4.2287,-4.2287,-2.851,-2.851,-2.851,-2.851,-2.851,-2.851,-2.851,-2.851,-2.851,-2.851,-2.851,-2.851,-2.851,-2.851,-2.851,-2.851,-2.851,-2.851,-2.851,-2.851,-2.851,-2.851,-2.851,-2.851,-2.851,-2.851,-2.851,-2.851,-2.851,-2.851,-2.851,-2.851,-2.851,-2.851,-2.851,-2.851,-2.8736,-2.904,-2.9704,-3.0443,-3.1267,-3.2087,-3.2775,-3.3241,-3.3241,-3.3312,-3.3312,-3.3312,-3.3396,-3.3536,-3.3605,-3.3605,-3.3536,-3.3536,-3.3536,-3.3536,-3.3591,-3.3785,-3.4059,-3.452,-3.4721,-3.489,-3.5255,-3.5819,-3.6399,-3.7711,-3.8075,-3.8205,-3.8335,-3.8335,-3.8391,-3.8391,-3.8391,-3.8391,-3.8391,-3.8391,-3.8391,-3.8391,-3.8391,-3.8391,-3.8391,-3.8391,-3.8391,-3.8391,-3.8391,-3.8391,-3.8391,-3.8391,-3.8408,-3.8391,-3.8448,-3.8504,-3.8544,-3.856,-3.8655,-3.875,-3.8914,-3.9152,-3.9749,-4.0334,-4.0431,-4.0431,-4.0625,-4.0849,-4.0737,-4.0689,-4.1065,-4.1472,-4.1753,-4.2002,-4.2187,-4.2287,-4.2287,-4.2287,-4.2287,-2.8259,-2.851,-2.851,-2.851,-2.851,-2.851,-2.851,-2.851,-2.851,-2.851,-2.851,-2.851,-2.851,-2.851,-2.851,-2.851,-2.851,-2.851,-2.851,-2.851,-2.851,-2.851,-2.851,-2.851,-2.851,-2.851,-2.851,-2.851,-2.851,-2.851,-2.851,-2.851,-2.851,-2.851,-2.851,-2.851,-2.851,-2.8803,-2.9406,-2.9999,-3.067,-3.1489,-3.239,-3.2775,-3.3086,-3.3312,-3.3312,-3.3312,-3.3312,-3.3466,-3.3466,-3.3466,-3.3312,-3.3312,-3.3312,-3.3312,-3.3382,-3.3646,-3.4059,-3.4196,-3.4399,-3.4467,-3.4691,-3.5255,-3.5897,-3.6829,-3.7637,-3.796,-3.8205,-3.8335,-3.8391,-3.8391,-3.8391,-3.8391,-3.8391,-3.8391,-3.8391,-3.8391,-3.8391,-3.8391,-3.8391,-3.8391,-3.8391,-3.8391,-3.8391,-3.8391,-3.8391,-3.8391,-3.8391,-3.8391,-3.8391,-3.8448,-3.8504,-3.8504,-3.8544,-3.8694,-3.8805,-3.8898,-3.9437,-4.0136,-4.0383,-4.0334,-4.0642,-4.0972,-4.0972,-4.1019,-4.1157,-4.1428,-4.1813,-4.2086,-4.2228,-4.2287,-4.2287,-4.2287,-4.2287,-2.7649,-2.8407,-2.8498,-2.851,-2.851,-2.8431,-2.8431,-2.851,-2.851,-2.851,-2.851,-2.851,-2.851,-2.851,-2.851,-2.851,-2.851,-2.851,-2.851,-2.851,-2.851,-2.851,-2.851,-2.851,-2.851,-2.851,-2.851,-2.851,-2.851,-2.851,-2.851,-2.851,-2.851,-2.851,-2.851,-2.851,-2.851,-2.8736,-2.904,-2.9549,-3.0139,-3.1044,-3.1783,-3.2232,-3.2632,-3.3016,-3.31,-3.3171,-3.3241,-3.3241,-3.3312,-3.3312,-3.3312,-3.3312,-3.3312,-3.3312,-3.3452,-3.373,-3.3937,-3.3991,-3.4196,-3.4346,-3.4414,-3.5139,-3.5755,-3.6197,-3.6814,-3.7637,-3.8148,-3.8262,-3.8335,-3.8391,-3.8391,-3.8391,-3.8391,-3.8391,-3.8391,-3.8391,-3.8391,-3.8391,-3.8391,-3.8391,-3.8391,-3.8391,-3.8391,-3.8391,-3.8391,-3.8391,-3.8391,-3.8391,-3.8391,-3.8391,-3.8391,-3.8391,-3.8504,-3.8711,-3.8711,-3.875,-3.8969,-3.9454,-3.98,-4.0103,-4.0252,-4.048,-4.1047,-4.1293,-4.1338,-4.1578,-4.1959,-4.2145,-4.2287,-4.2287,-4.2287,-4.2287,-4.2287,-2.6885,-2.7158,-2.8104,-2.851,-2.8431,-2.7846,-2.7926,-2.8431,-2.851,-2.851,-2.851,-2.851,-2.851,-2.851,-2.851,-2.851,-2.851,-2.851,-2.851,-2.851,-2.851,-2.851,-2.851,-2.851,-2.851,-2.851,-2.851,-2.851,-2.851,-2.851,-2.851,-2.851,-2.851,-2.851,-2.851,-2.851,-2.851,-2.859,-2.8816,-2.9184,-2.9549,-3.0304,-3.1031,-3.1709,-3.1723,-3.2245,-3.2789,-3.2704,-3.2775,-3.3171,-3.3241,-3.3312,-3.3312,-3.3312,-3.3312,-3.3143,-3.3368,-3.3605,-3.3591,-3.3854,-3.4128,-3.4196,-3.4278,-3.4683,-3.5219,-3.5627,-3.6119,-3.7071,-3.7902,-3.8091,-3.8205,-3.8278,-3.8335,-3.8391,-3.8391,-3.8391,-3.8391,-3.8391,-3.8391,-3.8391,-3.8391,-3.8391,-3.8391,-3.8391,-3.8391,-3.8391,-3.8391,-3.8391,-3.8391,-3.8391,-3.8391,-3.8391,-3.8391,-3.8391,-3.8504,-3.8711,-3.8672,-3.8672,-3.8876,-3.9023,-3.9365,-3.961,-3.9662,-4.0003,-4.0594,-4.1065,-4.1428,-4.1622,-4.164,-4.2103,-4.2287,-4.2287,-4.2287,-4.2287,-4.2287,-2.5645,-2.5859,-2.6748,-2.7313,-2.7325,-2.6917,-2.701,-2.7418,-2.7834,-2.8099,-2.851,-2.851,-2.851,-2.851,-2.851,-2.851,-2.851,-2.851,-2.851,-2.851,-2.851,-2.851,-2.851,-2.851,-2.851,-2.851,-2.851,-2.851,-2.851,-2.851,-2.851,-2.851,-2.851,-2.851,-2.851,-2.851,-2.851,-2.851,-2.859,-2.8803,-2.9106,-2.9549,-3.0367,-3.0957,-3.0807,-3.1563,-3.2259,-3.2015,-3.2461,-3.286,-3.3016,-3.3312,-3.3241,-3.3241,-3.3241,-3.3143,-3.3086,-3.3312,-3.3452,-3.3591,-3.3868,-3.4005,-3.421,-3.4332,-3.4587,-3.4942,-3.5755,-3.6646,-3.7401,-3.7976,-3.8091,-3.8148,-3.8278,-3.8391,-3.8391,-3.8391,-3.8391,-3.8391,-3.8391,-3.8391,-3.8391,-3.8391,-3.8391,-3.8391,-3.8391,-3.8391,-3.8391,-3.8391,-3.8391,-3.8391,-3.8391,-3.8391,-3.8391,-3.8391,-3.856,-3.86,-3.856,-3.8616,-3.8821,-3.9023,-3.9115,-3.9454,-3.9851,-4.002,-4.0087,-4.0611,-4.1157,-4.1082,-4.1128,-4.164,-4.2061,-4.2061,-4.2145,-4.2287,-4.2287,-2.4423,-2.4535,-2.4938,-2.5365,-2.5594,-2.5626,-2.5648,-2.5786,-2.6554,-2.751,-2.8179,-2.851,-2.851,-2.851,-2.851,-2.851,-2.851,-2.851,-2.851,-2.851,-2.851,-2.851,-2.851,-2.851,-2.851,-2.851,-2.851,-2.851,-2.851,-2.851,-2.851,-2.851,-2.851,-2.851,-2.851,-2.851,-2.851,-2.851,-2.851,-2.8578,-2.8724,-2.9172,-2.9704,-2.9999,-3.0443,-3.097,-3.1267,-3.1636,-3.2087,-3.2403,-3.2789,-3.3241,-3.3241,-3.3157,-3.3157,-3.3086,-3.3002,-3.3016,-3.3241,-3.3382,-3.3605,-3.3813,-3.402,-3.4074,-3.4264,-3.452,-3.527,-3.6165,-3.6921,-3.7476,-3.7653,-3.8091,-3.8335,-3.8391,-3.8391,-3.8391,-3.8391,-3.8391,-3.8391,-3.8391,-3.8391,-3.8391,-3.8391,-3.8391,-3.8391,-3.8391,-3.8391,-3.8391,-3.8391,-3.8391,-3.8391,-3.8391,-3.8391,-3.8391,-3.8391,-3.8448,-3.8448,-3.856,-3.8766,-3.8914,-3.8969,-3.9506,-4.0186,-4.0103,-4.002,-4.0417,-4.0849,-4.0802,-4.0896,-4.122,-4.1534,-4.1683,-4.1874,-4.2002,-4.2228,-2.3919,-2.3974,-2.4456,-2.433,-2.3903,-2.4157,-2.4304,-2.4336,-2.4851,-2.6058,-2.7429,-2.8179,-2.851,-2.851,-2.851,-2.851,-2.851,-2.851,-2.851,-2.851,-2.851,-2.851,-2.851,-2.851,-2.851,-2.851,-2.851,-2.851,-2.851,-2.851,-2.851,-2.851,-2.851,-2.851,-2.851,-2.851,-2.851,-2.851,-2.851,-2.851,-2.8578,-2.8816,-2.9184,-2.9845,-3.0443,-3.067,-3.1119,-3.1783,-3.2015,-3.2245,-3.2945,-3.3241,-3.3312,-3.3072,-3.2917,-3.286,-3.2917,-3.2917,-3.2931,-3.3241,-3.3466,-3.3536,-3.3675,-3.3882,-3.402,-3.4278,-3.4787,-3.5608,-3.6368,-3.6906,-3.7401,-3.7902,-3.8335,-3.8335,-3.8391,-3.8391,-3.8391,-3.8391,-3.8391,-3.8391,-3.8391,-3.8391,-3.8391,-3.8391,-3.8391,-3.8391,-3.8391,-3.8391,-3.8391,-3.8391,-3.8391,-3.8391,-3.8391,-3.8391,-3.8391,-3.8391,-3.8391,-3.8391,-3.856,-3.8711,-3.886,-3.9312,-3.98,-3.9935,-4.0036,-4.0351,-4.0563,-4.0754,-4.0896,-4.1036,-4.1019,-4.1174,-4.1265,-4.1356,-4.177,-2.3188,-2.2883,-2.2951,-2.2886,-2.2696,-2.2857,-2.2958,-2.3112,-2.3834,-2.5016,-2.64,-2.7394,-2.8099,-2.8431,-2.851,-2.851,-2.851,-2.851,-2.851,-2.851,-2.851,-2.851,-2.851,-2.851,-2.851,-2.851,-2.851,-2.851,-2.851,-2.851,-2.851,-2.851,-2.851,-2.851,-2.851,-2.851,-2.851,-2.851,-2.851,-2.851,-2.851,-2.8669,-2.8816,-2.9471,-2.9704,-2.9922,-3.0152,-3.0745,-3.1044,-3.1415,-3.2101,-3.2945,-3.3086,-3.3143,-3.2988,-3.2931,-3.2931,-3.2775,-3.2846,-3.3002,-3.3312,-3.3312,-3.3536,-3.3744,-3.3744,-3.4005,-3.4293,-3.5118,-3.6165,-3.6768,-3.7103,-3.7594,-3.786,-3.7976,-3.8221,-3.8391,-3.8391,-3.8391,-3.8391,-3.8391,-3.8391,-3.8391,-3.8391,-3.8391,-3.8391,-3.8391,-3.8391,-3.8391,-3.8391,-3.8391,-3.8391,-3.8391,-3.8391,-3.8391,-3.8391,-3.8391,-3.8391,-3.8391,-3.8391,-3.8655,-3.8952,-3.9115,-3.9312,-3.9662,-3.9902,-4.002,-4.0269,-4.0546,-4.0707,-4.0849,-4.0754,-4.0611,-4.0707,-4.0896,-4.1311,-2.2456,-2.1599,-2.1303,-2.1357,-2.1709,-2.1777,-2.1797,-2.203,-2.3041,-2.4187,-2.537,-2.6481,-2.7498,-2.8259,-2.851,-2.851,-2.851,-2.851,-2.851,-2.851,-2.851,-2.851,-2.851,-2.851,-2.851,-2.851,-2.851,-2.851,-2.851,-2.851,-2.851,-2.851,-2.851,-2.851,-2.851,-2.851,-2.851,-2.851,-2.851,-2.851,-2.851,-2.851,-2.8736,-2.8657,-2.8657,-2.8657,-2.8961,-2.9328,-2.9845,-3.0367,-3.1341,-3.2403,-3.3002,-3.3072,-3.3072,-3.3002,-3.286,-3.2775,-3.2846,-3.2917,-3.2988,-3.3072,-3.3382,-3.3536,-3.3605,-3.3744,-3.402,-3.4654,-3.5642,-3.6337,-3.6662,-3.7163,-3.7358,-3.7727,-3.8033,-3.8391,-3.8391,-3.8391,-3.8391,-3.8391,-3.8391,-3.8391,-3.8391,-3.8391,-3.8391,-3.8391,-3.8391,-3.8391,-3.8391,-3.8391,-3.8391,-3.8391,-3.8391,-3.8391,-3.8391,-3.8391,-3.8391,-3.8391,-3.8448,-3.875,-3.9007,-3.9115,-3.9382,-3.9747,-3.9952,-4.017,-4.022,-4.04,-4.0563,-4.0802,-4.0707,-4.0659,-4.0802,-4.099,-4.1036,-2.1939,-2.0576,-2.0508,-2.0536,-2.0661,-2.0951,-2.1176,-2.1426,-2.1971,-2.331,-2.4789,-2.544,-2.6588,-2.8498,-2.851,-2.851,-2.851,-2.851,-2.851,-2.851,-2.851,-2.851,-2.851,-2.851,-2.851,-2.851,-2.851,-2.851,-2.851,-2.851,-2.851,-2.851,-2.851,-2.851,-2.851,-2.851,-2.851,-2.851,-2.851,-2.851,-2.851,-2.8657,-2.8949,-2.9184,-2.9484,-2.9471,-2.9691,-3.0291,-3.0152,-3.038,-3.1119,-3.216,-3.2761,-3.2988,-3.2988,-3.2917,-3.2775,-3.2704,-3.2775,-3.2917,-3.2917,-3.2917,-3.3157,-3.3396,-3.3312,-3.3241,-3.3591,-3.3868,-3.4743,-3.537,-3.5819,-3.6569,-3.6951,-3.746,-3.7844,-3.8148,-3.8335,-3.8335,-3.8391,-3.8391,-3.8391,-3.8391,-3.8391,-3.8391,-3.8391,-3.8391,-3.8391,-3.8391,-3.8391,-3.8391,-3.8391,-3.8391,-3.8391,-3.8391,-3.8391,-3.8391,-3.8391,-3.8391,-3.8448,-3.8694,-3.8898,-3.9115,-3.9382,-3.9764,-4.0286,-4.0707,-4.0659,-4.0449,-4.0737,-4.099,-4.0849,-4.0802,-4.0943,-4.099,-4.1036]}]]